GFSNGP_500_spd_003.txt.gz
Wind_Speed
48 50 55 60 59 65 67 66 67 61 55 44 42 41 37 30 21 26 30 29 22 26 25 21 18 12 11 9 12 18 20 22 24 29 33 35 41 51 54 50 49 27 21 37
44 39 45 54 59 59 58 60 60 54 56 47 42 30 26 22 21 22 26 27 22 26 23 21 17 15 13 15 19 19 22 26 28 29 34 38 41 49 40 49 47 35 26 24
38 35 37 45 54 54 55 59 57 56 52 46 26 25 26 24 28 23 24 21 21 21 21 18 21 23 25 23 23 25 28 29 31 35 39 44 44 45 40 42 44 38 33 27
33 35 39 48 51 52 54 57 59 57 51 33 27 25 28 25 29 28 28 25 22 23 23 27 31 30 24 26 29 33 35 37 39 43 48 52 52 47 43 37 36 36 38 32
37 35 37 47 45 51 52 51 55 50 44 32 30 29 27 28 28 30 28 26 27 32 37 37 31 31 29 34 35 37 40 41 44 43 47 49 51 46 42 41 39 36 34 36
46 37 38 37 35 39 42 45 42 41 39 33 36 36 34 32 33 33 30 35 34 38 39 36 34 36 37 36 40 44 47 48 49 48 54 43 45 45 47 45 42 34 33 30
49 40 43 35 26 33 40 39 38 34 36 37 35 37 38 39 38 35 33 39 37 38 37 37 40 41 43 44 50 53 53 51 57 56 45 50 47 48 48 45 34 35 32 30
51 41 38 43 30 30 35 34 35 40 36 36 36 38 42 43 39 38 36 33 32 35 36 40 42 44 49 53 57 59 62 52 41 54 51 44 47 46 46 39 36 36 33 30
50 51 40 42 34 30 30 31 39 38 43 34 36 35 40 40 40 40 38 45 32 29 35 40 43 47 53 58 59 55 43 40 42 51 52 51 47 47 38 35 29 35 33 35
30 54 53 39 37 37 37 37 39 35 35 43 43 41 39 38 44 41 44 46 38 41 38 38 40 42 46 50 50 54 47 45 51 53 51 47 44 44 36 34 34 36 34 34
36 20 35 38 38 37 40 40 39 39 39 41 44 43 37 39 39 39 39 43 39 37 39 39 42 43 43 45 48 48 51 50 48 41 36 37 34 34 37 39 42 40 38 41
29 39 26 36 34 36 38 42 46 43 40 39 40 41 39 41 42 42 43 39 40 44 44 45 49 47 42 42 45 47 46 43 43 44 42 40 38 40 42 44 43 43 44 43
20 23 36 32 30 40 40 44 44 45 43 36 34 36 37 37 37 40 45 44 44 45 47 52 49 47 45 38 37 39 40 42 44 45 46 47 43 46 48 46 43 42 41 39
25 21 23 25 35 39 39 52 47 42 45 45 41 39 39 40 38 38 42 38 39 44 38 37 43 47 44 43 43 43 45 46 48 47 46 44 43 43 43 41 39 39 40 40
26 28 26 24 25 29 30 40 36 31 37 43 29 33 41 46 41 36 36 36 36 39 44 44 48 47 44 43 43 42 43 43 42 42 43 43 41 39 38 38 38 38 38 36
26 35 33 28 30 24 29 19 14 12 17 16 19 22 27 28 31 39 42 40 36 36 37 42 44 43 41 41 41 42 42 41 42 39 38 39 39 39 36 38 37 39 36 34
35 19 18 10 14 10 7 5 12 16 20 23 26 24 25 29 32 34 34 35 35 37 39 42 43 44 41 41 40 42 42 42 35 37 36 35 33 36 35 35 35 36 33 29
29 17 6 5 4 5 9 13 17 19 20 23 26 30 34 32 33 36 38 38 36 34 34 32 34 37 38 39 41 39 33 33 32 31 34 33 39 37 33 34 33 29 28 24
15 12 13 15 15 18 19 21 22 24 25 26 28 31 32 35 35 36 35 32 32 34 35 35 35 33 33 31 32 34 38 38 37 40 39 37 36 29 28 29 26 22 24 25
19 17 20 21 21 21 22 24 25 26 26 25 23 24 25 27 29 31 32 32 32 33 33 32 31 31 32 35 34 33 33 32 30 30 30 30 24 26 26 24 23 24 25 26
19 21 21 22 23 22 22 24 23 22 21 22 23 24 26 29 29 29 30 30 31 31 31 32 33 32 29 28 29 27 25 27 28 26 23 25 24 23 23 23 23 24 23 23
20 20 19 19 21 22 21 19 19 20 22 23 25 26 26 28 27 27 26 26 26 26 26 26 24 23 23 21 22 25 25 24 24 23 22 22 22 23 23 23 23 21 24 25
17 16 15 15 16 18 19 19 19 20 22 23 23 23 23 22 21 22 22 21 21 21 21 21 21 20 19 18 19 19 19 20 22 24 25 24 23 23 23 22 23 25 27 27
12 11 12 13 15 16 16 17 18 19 19 19 18 18 18 18 18 18 18 18 19 20 20 20 21 22 22 22 23 23 24 25 25 24 23 23 23 22 24 25 26 28 29 28
11 11 12 14 16 16 16 17 17 15 13 13 14 17 18 18 18 18 19 20 19 19 18 18 19 20 21 21 21 21 21 21 22 24 25 25 26 27 29 28 29 31 32 32
13 14 15 16 15 14 14 14 14 15 17 18 19 19 19 19 20 20 20 19 19 19 19 18 18 19 21 21 22 24 25 26 26 27 28 28 30 32 33 34 34 34 34 32
17 18 19 19 17 16 15 15 17 18 20 21 21 21 21 21 22 24 24 25 25 25 24 25 27 28 28 29 29 29 29 29 29 29 29 30 30 31 31 31 32 31 31 31

GFSNGP_500_spd_006.txt.gz
Wind_Speed
34 36 30 38 42 57 69 67 60 52 51 48 43 43 36 33 29 27 24 28 24 27 23 25 21 21 20 20 21 21 22 21 19 22 21 23 27 31 38 41 45 37 37 31
32 31 33 36 40 44 47 71 68 61 56 39 43 51 47 34 31 28 27 28 27 28 31 27 27 25 27 26 25 26 21 20 23 25 28 33 33 37 39 44 44 34 30 34
30 23 30 37 39 40 47 50 58 65 68 67 55 49 42 37 32 27 27 31 29 29 35 34 30 28 29 28 25 23 23 22 25 30 34 36 36 41 42 46 44 42 39 39
31 34 33 32 30 35 39 46 51 56 46 54 56 52 44 36 33 30 32 30 33 37 33 30 32 34 33 26 23 28 27 29 32 36 38 40 41 43 47 48 48 44 42 42
40 34 28 26 26 29 34 40 42 48 48 48 52 52 43 34 35 32 34 32 37 34 31 33 35 35 34 29 28 33 33 34 35 37 43 46 48 50 55 61 45 47 44 45
39 41 40 35 28 34 36 47 48 43 48 48 51 48 36 40 34 35 32 31 39 37 35 35 37 38 36 34 32 32 34 37 40 45 50 52 56 49 56 53 50 49 46 41
45 43 39 47 39 36 29 37 36 47 45 46 48 42 42 42 36 37 35 31 31 34 40 39 40 41 43 37 38 37 37 40 44 50 55 56 47 42 51 48 45 48 45 38
47 45 37 43 36 36 27 30 33 36 43 37 40 39 44 39 36 39 37 38 36 34 33 44 48 48 43 44 39 40 42 44 49 52 57 55 56 48 54 52 50 42 41 38
50 49 54 49 36 31 30 31 30 27 32 35 35 39 42 39 37 39 39 38 37 38 37 41 49 46 42 44 43 41 40 44 49 52 60 53 52 51 48 44 38 39 39 36
41 42 40 39 45 42 35 33 32 33 32 36 35 37 38 38 38 38 41 41 40 39 41 42 47 53 38 45 42 42 40 44 46 52 47 54 55 50 46 44 37 36 34 38
39 34 31 35 38 39 41 37 37 36 37 38 40 39 45 47 46 44 46 45 42 42 43 47 50 47 43 45 49 47 49 51 48 47 52 45 42 46 44 41 39 39 43 43
35 31 29 37 38 48 44 39 37 42 45 42 40 43 46 56 52 40 46 45 42 40 44 45 46 45 47 50 52 52 52 47 49 46 42 44 46 44 44 43 41 42 43 43
31 31 29 20 41 41 44 46 46 44 44 46 42 42 45 40 39 42 50 48 36 35 40 46 48 47 49 46 41 40 42 43 46 47 45 46 44 42 43 43 45 45 44 46
28 24 26 23 35 40 42 44 46 51 50 51 48 42 39 40 42 36 38 37 36 35 38 42 46 45 45 45 44 47 47 50 51 50 48 47 45 43 42 43 43 42 41 40
32 25 27 31 41 43 46 43 41 45 59 53 53 53 48 46 43 42 38 37 38 40 39 42 44 46 46 48 50 51 51 45 44 45 47 46 43 44 46 45 43 40 42 39
28 31 29 33 21 30 31 28 49 45 33 33 39 45 49 50 51 39 34 39 43 46 52 54 48 48 50 48 48 48 45 42 43 44 43 43 45 46 42 41 43 38 38 37
23 17 19 41 31 34 29 23 33 28 27 31 32 33 43 34 29 33 36 36 38 41 46 47 47 46 46 46 46 44 41 38 40 42 44 45 41 38 39 37 35 39 38 34
27 27 27 34 25 25 29 28 23 22 22 20 20 24 27 27 31 33 35 38 39 41 42 43 41 41 42 39 38 38 38 40 42 40 36 36 37 38 39 40 36 34 31 27
37 30 26 22 16 18 13 16 18 17 20 24 22 24 29 32 37 39 39 41 41 42 40 38 36 35 36 38 40 40 38 36 37 39 39 40 39 36 32 31 30 28 27 25
26 18 12 11 10 7 6 9 12 15 16 18 22 25 27 30 32 34 35 36 37 37 37 37 37 36 36 38 37 36 36 36 34 32 30 28 28 28 27 25 25 24 24 24
16 15 14 11 12 13 14 15 15 16 17 20 23 25 27 28 29 30 29 31 32 32 34 33 33 32 33 34 35 34 31 29 28 26 26 28 27 25 24 25 25 25 26 24
9 8 12 14 16 15 15 17 19 20 22 23 24 24 25 26 26 26 28 30 31 30 29 29 30 30 30 30 30 28 27 26 26 27 27 26 25 24 25 25 24 24 24 21
10 12 13 14 16 19 21 22 22 21 22 23 23 24 25 26 26 27 28 26 25 25 26 28 27 26 25 25 25 25 24 24 24 23 23 24 26 26 25 24 23 23 21 24
12 14 16 16 15 16 18 20 20 21 23 25 25 25 26 27 26 23 23 24 25 25 25 25 25 25 25 26 26 26 25 24 24 25 25 24 22 22 23 23 23 23 25 24
10 12 14 16 16 16 17 19 21 23 24 25 24 22 22 23 23 22 24 27 27 24 24 23 23 24 25 25 25 26 25 25 23 22 21 22 23 25 25 26 28 28 28 29
11 13 15 17 17 17 17 18 19 19 20 22 23 24 25 26 25 25 26 26 25 24 24 24 24 25 26 26 25 24 24 25 25 25 26 27 27 27 27 27 27 27 28 29
16 17 20 20 21 22 21 21 22 20 21 22 23 24 26 26 27 29 29 29 29 29 29 28 28 28 30 30 30 30 30 31 30 30 29 28 27 26 26 27 28 30 31 32

GFSNGP_500_spd_009.txt.gz
Wind_Speed
40 34 25 31 33 38 46 49 53 50 45 43 42 38 36 31 32 31 29 33 27 30 32 29 26 27 24 20 21 21 20 19 20 20 16 18 21 23 27 29 33 35 37 35
39 32 34 32 32 37 38 45 51 49 49 44 44 38 33 36 40 40 28 31 31 30 31 29 29 26 24 24 24 25 20 20 21 15 16 19 22 25 30 35 39 42 45 44
39 33 31 34 38 37 38 40 41 50 55 46 46 45 46 48 46 46 34 29 35 33 29 32 32 32 32 30 28 25 20 18 23 23 25 24 25 29 36 41 45 50 53 51
36 31 35 38 33 31 36 38 39 42 38 40 51 55 48 39 41 40 36 36 37 33 30 36 32 32 34 35 31 23 23 21 22 25 26 29 34 37 42 46 49 50 55 50
35 36 34 33 34 34 36 36 37 37 38 37 35 39 53 61 54 42 45 27 39 33 34 35 36 34 36 36 32 28 29 25 24 27 31 35 37 41 45 49 54 47 46 51
35 40 38 29 37 26 37 42 40 39 33 36 36 31 33 33 52 53 37 41 40 37 36 38 36 36 39 39 35 31 30 28 29 31 33 37 39 41 48 56 53 50 48 51
44 37 37 41 41 33 33 25 29 32 37 34 38 30 35 42 42 44 39 44 44 38 37 39 39 37 37 36 35 35 36 33 33 36 39 40 42 46 47 55 56 55 55 53
41 41 40 38 39 40 35 39 27 23 22 39 36 34 49 45 38 34 42 46 46 39 37 40 43 40 39 40 41 42 42 40 40 44 44 44 46 46 50 53 58 60 54 53
34 36 43 48 43 41 34 38 30 25 29 32 36 51 47 35 35 36 41 42 45 42 35 32 32 32 41 45 46 45 46 44 46 45 46 47 51 53 55 57 56 55 50 46
43 45 49 47 44 30 30 31 28 32 31 32 30 34 32 32 34 40 45 47 46 42 40 39 36 37 35 37 45 49 48 49 46 46 50 53 53 56 53 51 55 49 45 44
57 59 55 50 41 34 30 34 34 35 34 33 34 37 37 36 37 39 45 48 42 42 42 42 40 42 43 43 43 46 49 49 50 56 54 55 55 56 51 53 49 48 48 48
55 50 48 44 38 30 30 34 34 35 32 37 34 35 39 39 39 37 36 39 42 42 43 46 47 45 44 45 44 46 48 48 53 57 59 58 60 56 49 49 48 47 46 46
34 33 32 36 34 29 28 34 36 39 38 34 32 33 37 39 39 36 40 45 46 47 46 46 47 48 46 48 49 47 49 50 56 59 58 58 57 53 53 50 46 46 44 44
31 33 32 31 30 33 35 32 37 43 40 40 40 40 38 37 39 44 50 54 58 52 49 49 45 48 47 42 45 49 53 55 56 58 54 53 53 53 46 44 45 45 44 45
29 30 30 31 38 40 40 34 37 46 44 45 46 49 48 46 46 46 48 44 43 60 45 38 50 54 53 41 48 50 51 51 52 52 52 52 51 50 49 45 45 43 44 39
30 30 33 33 32 38 43 50 50 54 51 47 49 50 50 50 50 49 45 46 44 40 38 38 38 39 44 44 46 48 54 51 50 49 48 48 48 46 43 44 46 41 35 37
30 28 29 42 31 46 47 29 37 48 49 50 50 54 56 59 54 52 50 49 47 45 43 41 40 45 45 48 48 48 48 45 47 50 47 42 42 43 44 42 39 39 40 36
26 20 18 16 28 24 37 30 21 27 43 46 52 55 52 59 52 55 63 62 44 50 53 44 44 44 43 44 43 44 46 45 46 42 42 40 40 39 39 40 40 42 40 36
23 15 20 19 19 18 29 36 36 34 30 31 28 23 25 31 29 26 27 30 30 32 36 36 38 40 42 43 42 42 42 40 39 41 40 36 36 39 39 37 31 31 30 28
31 27 28 22 22 24 27 26 24 21 18 17 19 23 24 27 28 29 33 35 35 36 37 39 42 45 43 42 39 40 40 39 41 39 36 34 37 35 31 29 30 30 28 25
30 42 31 18 12 9 13 19 25 21 17 18 20 23 26 27 29 31 32 32 33 34 36 36 37 39 36 37 38 40 41 40 36 34 31 31 32 29 29 31 30 29 27 26
29 28 21 18 13 8 9 13 16 19 20 22 24 27 26 28 29 31 32 32 33 32 32 38 38 38 38 38 39 36 35 33 32 30 29 30 30 31 30 29 27 26 27 25
7 13 10 11 13 15 16 16 17 19 20 23 25 27 27 26 26 27 28 29 29 32 35 35 36 36 33 33 32 33 32 30 29 29 30 30 29 28 27 28 29 26 22 20
6 7 8 9 12 13 14 15 16 17 18 20 20 21 22 24 25 27 27 28 29 30 31 31 30 29 30 31 31 31 31 31 32 32 31 30 30 29 27 24 21 21 22 23
10 7 5 8 10 11 13 14 15 17 20 22 24 25 27 27 29 27 30 27 29 30 29 29 29 29 29 30 30 31 33 34 33 30 30 29 28 26 25 25 26 28 29 29
7 8 10 12 13 14 16 18 21 21 24 25 26 26 28 29 29 28 30 30 30 31 33 31 30 29 29 31 31 32 31 31 30 28 27 28 28 28 29 30 31 31 31 30
13 14 15 15 17 18 20 22 24 25 25 26 28 29 29 30 30 32 33 34 34 34 34 35 37 35 34 34 34 32 33 34 33 33 33 31 31 33 34 34 34 34 33 33

GFSNGP_500_spd_012.txt.gz
Wind_Speed
46 41 29 36 35 38 41 44 50 53 48 40 51 37 33 34 29 25 27 37 37 37 38 33 32 27 26 26 27 21 16 10 9 8 6 9 5 6 14 15 22 26 30 37
51 40 41 35 33 39 37 41 42 50 46 47 42 54 46 34 37 36 32 37 50 41 39 36 36 29 27 28 27 24 20 13 13 10 10 13 15 16 16 22 26 31 34 42
56 48 35 41 47 35 33 35 36 38 53 48 48 44 49 48 40 35 37 36 47 45 38 36 37 35 32 28 28 26 24 15 15 10 9 13 13 16 21 24 27 33 39 47
52 40 42 54 35 36 37 36 34 35 38 42 52 58 55 54 44 46 46 39 40 48 47 41 38 36 34 33 29 27 28 22 20 16 13 13 18 21 25 26 31 35 41 46
44 48 45 39 35 36 35 33 35 39 38 33 35 56 62 61 57 49 50 38 49 52 53 47 39 35 35 36 29 29 28 25 21 24 26 23 23 27 30 32 35 39 43 48
46 45 51 43 35 43 50 47 43 41 39 38 35 37 41 67 63 60 52 47 49 51 46 37 38 38 37 38 33 33 30 26 26 27 26 26 30 31 34 36 40 42 45 49
50 52 38 35 41 42 47 46 36 40 42 43 47 44 38 31 47 67 57 48 57 41 36 42 35 37 34 34 35 31 31 27 26 27 30 31 33 34 37 42 44 47 50 52
47 43 44 49 45 35 43 37 39 43 43 45 48 46 36 41 36 41 48 63 58 47 51 36 39 39 37 36 35 32 32 31 30 32 34 34 34 38 41 46 48 51 55 56
55 52 32 18 50 46 40 42 34 36 40 33 37 47 47 53 51 42 44 52 64 65 54 46 44 43 40 38 36 35 36 35 35 36 38 42 38 42 42 49 57 56 57 58
49 47 45 52 47 43 46 43 42 42 42 41 35 41 47 52 55 48 49 47 47 48 48 48 46 43 37 37 37 37 36 38 42 41 39 42 45 48 53 56 57 57 58 58
43 45 53 51 54 54 52 47 38 44 39 41 40 41 46 55 55 54 47 47 46 45 45 45 45 42 38 36 34 34 35 40 44 46 45 46 45 50 53 57 59 60 60 56
47 57 57 58 53 49 45 43 40 37 39 41 43 39 41 50 49 46 45 46 48 42 39 40 41 44 41 39 41 43 43 45 47 45 46 49 50 54 58 60 60 58 53 51
58 57 61 71 61 48 41 38 36 35 36 40 36 39 44 38 40 38 33 39 38 36 40 42 44 47 47 45 47 48 51 47 46 49 48 49 52 55 57 60 58 51 46 44
53 65 53 61 53 39 37 42 37 26 31 37 32 36 36 30 30 31 29 32 33 38 37 40 45 47 50 52 50 49 47 49 52 51 51 51 54 56 53 50 49 46 45 44
46 26 23 36 35 37 33 31 31 31 32 32 30 37 34 19 25 30 33 35 37 38 44 48 40 41 42 45 47 50 54 56 56 55 58 57 60 58 52 46 45 44 42 42
10 9 14 24 29 31 34 36 34 35 35 31 31 38 39 32 31 34 36 39 41 41 42 45 44 48 44 47 44 41 48 48 41 43 48 54 54 46 43 45 44 41 41 41
20 17 16 20 24 27 24 26 27 28 33 33 32 41 41 44 44 43 42 39 41 43 40 45 53 40 49 53 54 49 48 44 48 51 52 46 44 43 44 43 41 39 36 34
20 16 16 14 17 25 26 27 28 34 23 39 49 33 39 45 55 52 48 53 47 46 44 44 42 45 46 49 53 52 50 44 44 43 43 41 42 40 39 42 41 40 33 36
18 16 16 13 12 18 20 30 30 43 35 27 35 45 46 45 48 47 49 53 52 54 51 49 49 52 54 60 45 41 45 40 41 42 41 42 41 38 40 39 37 32 35 31
19 17 11 18 14 14 12 13 11 26 29 23 26 27 32 46 55 58 60 57 60 50 48 44 40 50 59 39 37 40 41 42 39 41 37 39 39 36 32 33 30 34 31 30
19 20 21 21 21 23 18 24 23 25 33 33 30 26 26 31 38 38 33 25 27 29 30 32 32 32 35 37 38 39 36 37 34 40 38 38 36 37 36 32 33 34 32 34
11 14 18 22 21 23 22 20 19 19 19 13 13 15 16 17 19 22 24 25 29 32 33 35 34 34 34 34 34 36 36 38 38 39 39 38 35 36 34 34 35 33 32 29
17 25 29 24 18 15 9 7 7 9 13 17 19 23 25 25 24 25 26 26 28 31 32 32 33 35 35 35 34 34 38 35 37 40 36 38 36 35 36 36 36 34 32 31
4 4 8 14 13 13 10 10 15 16 17 19 21 24 27 30 31 30 31 32 30 29 31 32 33 34 35 36 34 35 38 36 36 36 38 37 38 37 36 36 34 34 32 30
3 4 4 6 6 9 12 16 19 17 15 17 18 20 21 22 24 24 26 26 28 29 30 32 32 32 34 34 34 35 36 35 36 36 37 37 38 38 36 35 34 34 33 32
3 5 7 7 8 9 12 15 15 15 18 18 19 20 21 25 23 24 26 28 29 31 31 31 31 31 33 34 35 38 35 35 36 38 38 38 37 36 36 36 34 34 34 34
10 12 13 14 16 17 18 20 23 23 21 22 26 27 28 28 27 26 28 29 31 31 32 34 38 36 36 37 38 39 40 41 39 40 41 39 38 38 38 38 36 36 36 38

GFSNGP_500_spd_015.txt.gz
Wind_Speed
57 49 46 49 47 41 42 43 45 38 44 42 45 49 42 37 29 28 36 34 35 38 38 39 31 31 21 21 23 22 20 15 14 11 11 13 10 8 8 7 10 15 18 21
57 55 47 49 51 43 40 39 42 39 42 41 45 46 32 24 35 40 31 43 46 39 43 43 37 35 37 32 24 23 23 19 16 13 12 13 14 13 16 18 20 21 21 21
67 59 52 51 57 51 42 38 35 44 39 34 45 52 45 32 30 38 36 33 28 46 46 47 42 40 36 33 27 24 25 22 18 16 16 15 15 12 12 13 15 19 23 24
66 62 59 60 53 50 44 41 40 39 35 35 38 49 58 49 44 46 47 48 43 37 43 47 43 44 40 36 31 28 30 27 23 17 20 19 15 13 14 15 17 21 25 28
61 67 66 61 52 48 46 48 44 42 42 40 34 37 61 67 55 53 63 50 49 50 39 39 39 39 40 42 36 35 34 32 27 21 20 25 21 22 23 20 22 24 27 32
48 62 71 63 53 44 50 53 49 49 50 46 43 43 39 63 69 59 53 56 58 46 36 44 46 38 40 42 38 39 33 33 31 26 23 22 26 28 24 27 34 24 30 35
50 59 64 60 51 43 46 53 48 50 49 46 47 44 45 45 63 70 71 62 53 51 52 53 36 44 45 41 42 34 35 37 35 32 27 24 24 24 29 30 26 34 37 39
41 47 54 52 51 52 53 52 56 56 48 44 42 43 43 39 38 47 76 74 70 57 51 49 52 49 37 36 37 38 37 41 41 34 30 23 22 31 27 32 35 37 42 44
46 46 47 45 47 54 58 52 56 49 50 45 49 42 41 37 37 39 46 52 74 72 67 59 51 51 53 41 40 37 37 40 37 33 30 27 30 31 30 36 39 42 48 46
57 54 57 54 50 60 66 64 57 44 42 46 40 40 41 41 41 45 51 51 52 50 74 67 61 51 51 43 40 42 39 39 36 36 33 34 33 34 37 39 44 45 45 50
56 57 53 46 60 66 64 48 49 46 41 41 41 42 43 46 47 48 51 55 57 54 54 53 48 59 56 50 44 44 40 43 42 42 37 37 37 38 42 44 46 47 51 54
57 56 54 45 46 34 40 42 34 34 40 36 40 40 47 51 51 47 50 53 60 58 55 58 46 48 56 60 55 49 46 42 39 38 37 38 40 43 44 48 46 51 52 52
65 56 58 58 62 56 59 52 47 43 39 40 41 46 45 41 41 48 60 40 54 58 53 59 49 48 46 44 48 48 45 41 39 40 42 44 45 45 49 49 52 53 51 52
62 67 63 62 63 61 53 55 46 34 37 43 45 41 40 39 39 45 52 27 37 45 45 44 43 44 43 47 53 46 48 45 44 44 46 47 49 49 53 55 56 57 55 54
44 53 52 45 38 43 48 52 44 38 39 37 39 34 35 36 35 39 22 12 26 28 36 37 41 40 45 52 42 47 54 50 52 53 48 46 48 48 57 58 63 52 48 47
34 35 57 41 38 46 35 43 49 35 32 35 40 37 36 29 31 23 18 17 22 28 32 35 40 44 46 43 46 52 55 55 55 52 54 53 49 47 45 44 43 43 42 40
13 15 31 43 28 34 37 35 43 32 33 33 37 39 38 30 22 22 21 27 26 29 30 30 35 40 49 44 46 50 55 38 45 47 44 50 50 46 47 49 43 43 43 38
19 11 15 17 17 15 17 25 27 29 29 31 34 32 34 33 21 28 30 29 31 33 33 36 36 30 37 40 40 45 45 40 42 49 45 47 55 52 48 42 40 42 41 40
7 13 12 13 7 14 18 20 21 25 22 27 22 23 23 31 33 29 32 34 39 41 42 40 41 42 42 42 42 42 43 44 47 49 58 58 47 34 40 41 39 40 40 35
14 7 10 11 15 8 9 8 14 17 24 28 32 38 34 24 30 31 32 33 46 43 47 45 49 45 49 54 49 50 40 52 38 30 26 27 29 37 36 37 37 35 33 34
10 11 9 9 12 13 9 12 10 15 14 16 24 26 24 22 22 33 41 39 40 37 33 38 42 43 59 49 36 18 29 32 28 25 29 32 35 37 37 36 35 29 34 29
5 9 11 12 13 13 12 10 13 15 17 17 18 25 27 30 29 24 27 29 26 24 26 37 24 22 22 24 22 27 31 30 34 36 36 38 38 32 39 38 30 31 31 30
19 18 15 16 16 14 12 12 12 13 12 11 12 15 18 19 17 18 19 19 19 20 19 22 22 25 29 29 27 30 31 34 37 36 37 38 37 36 36 34 33 33 34 34
5 8 8 10 14 15 12 13 12 12 12 11 11 15 18 17 18 20 23 26 26 26 26 26 26 27 28 30 33 35 37 36 37 37 39 37 36 34 33 34 35 36 36 35
6 5 4 3 2 6 8 11 12 13 15 14 16 17 20 24 26 26 28 31 31 30 30 29 28 29 31 35 38 40 41 40 39 38 37 37 38 36 34 36 37 37 37 39
3 4 2 3 5 7 9 10 11 11 14 17 19 22 22 24 24 24 27 29 29 31 33 31 31 32 32 34 36 37 35 36 34 36 35 36 36 36 35 38 37 36 37 38
12 10 12 14 15 15 15 19 19 18 19 22 24 25 25 26 26 28 29 32 33 33 34 33 33 35 36 37 38 38 37 39 38 36 36 36 38 38 39 36 36 38 37 35

GFSNGP_500_spd_018.txt.gz
Wind_Speed
67 60 50 54 53 53 53 49 52 40 43 33 28 49 40 34 40 30 28 38 45 42 25 30 30 26 18 20 19 19 19 20 15 16 19 23 21 21 21 16 15 17 18 16
73 67 62 55 58 58 55 50 50 46 42 37 32 44 52 45 36 38 26 31 39 37 26 35 32 28 23 25 20 23 22 21 23 20 19 22 22 23 21 18 17 17 17 17
75 69 60 50 64 63 59 56 54 52 43 35 38 34 49 57 49 48 33 30 30 31 30 32 36 31 31 30 31 32 31 24 23 24 20 23 25 26 23 26 23 17 16 16
74 69 63 67 61 62 61 58 56 54 47 40 40 39 38 54 56 47 44 36 38 37 35 37 34 35 36 38 30 25 27 27 23 25 25 22 26 27 27 25 22 22 21 22
76 67 65 63 64 60 63 60 56 55 52 49 40 41 39 43 57 58 52 57 52 47 41 37 42 47 41 44 33 33 31 31 27 28 29 28 25 28 28 28 26 25 27 30
62 74 68 71 65 63 52 62 61 57 52 48 44 41 40 41 44 59 64 63 57 59 56 47 38 44 51 47 39 40 32 33 33 33 36 33 28 31 33 32 34 33 34 30
49 61 72 73 63 59 51 52 53 55 52 49 46 42 36 35 35 52 61 63 62 57 62 58 49 54 45 44 50 41 34 36 35 36 39 38 33 33 33 39 38 40 42 40
66 47 57 69 62 56 57 51 54 53 54 53 48 46 44 38 36 42 57 53 66 67 62 58 60 67 60 55 42 44 37 39 43 39 44 43 39 35 36 38 38 43 48 30
58 38 51 69 48 54 58 57 54 58 57 57 52 50 50 45 38 37 38 43 57 73 72 68 66 58 60 55 52 54 45 43 40 41 46 45 44 43 39 38 42 46 37 31
59 38 45 60 70 56 53 61 61 60 58 59 54 50 46 46 48 46 48 47 46 51 56 59 62 65 62 56 51 48 47 44 45 42 44 47 48 52 42 45 46 42 28 35
63 35 65 65 60 63 58 58 66 65 60 57 55 47 41 46 52 49 47 51 52 50 48 49 48 51 58 66 60 59 48 48 47 46 48 47 50 51 50 47 47 28 36 38
58 47 58 60 63 65 59 61 62 59 55 56 56 57 51 53 52 54 55 50 48 51 53 51 56 51 48 53 60 64 64 71 42 44 50 51 55 53 43 32 35 36 40 44
66 49 45 55 50 50 49 48 47 49 61 56 49 65 67 51 52 51 48 51 51 55 63 54 46 51 58 54 56 62 68 71 63 52 60 47 55 38 21 33 38 42 46 49
54 44 54 54 50 46 27 53 51 31 63 50 59 44 44 52 48 47 49 51 53 53 55 68 84 83 49 53 60 58 53 42 58 60 64 49 44 30 38 43 45 46 50 52
49 39 49 46 42 45 53 46 38 29 38 45 49 39 44 46 50 50 44 39 39 42 31 24 36 36 45 52 59 38 39 40 39 43 46 45 38 40 43 50 48 49 53 54
46 50 42 49 46 52 56 60 39 45 45 50 43 43 43 39 31 33 30 30 29 28 32 14 12 29 26 38 43 42 41 30 40 46 47 52 52 53 52 53 55 56 53 52
33 35 46 50 53 59 53 47 50 36 40 45 45 43 33 30 33 33 28 28 24 16 19 12 13 19 28 29 32 31 36 36 39 43 49 55 56 58 62 57 61 51 44 44
39 44 43 44 46 45 49 58 36 30 37 37 41 32 27 27 30 33 29 23 21 21 23 21 23 24 24 27 31 34 41 36 37 43 47 52 59 59 49 49 51 46 44 43
24 22 27 16 14 21 40 48 41 33 26 25 31 29 26 22 21 24 27 28 29 30 29 27 26 28 31 32 35 43 39 30 32 38 40 39 39 43 39 42 44 51 49 34
19 15 20 9 11 17 15 14 18 17 22 22 27 30 27 22 23 23 22 29 35 29 35 35 34 35 35 34 35 37 31 39 42 39 43 39 45 49 48 47 34 28 28 30
10 13 12 10 9 8 6 10 11 13 15 17 20 24 27 27 23 25 21 26 30 29 29 33 36 46 49 42 42 47 42 46 49 46 52 62 47 31 33 29 32 34 34 33
4 4 3 5 5 8 8 8 8 14 12 14 16 16 15 17 17 22 23 24 30 31 36 41 44 41 36 39 46 50 52 48 48 41 33 34 29 33 36 32 33 34 36 36
5 4 5 5 3 7 9 8 8 10 11 12 13 15 17 17 17 19 24 27 27 28 28 26 26 30 30 32 35 35 31 34 34 28 27 28 32 34 34 32 33 36 36 37
3 4 6 9 11 13 14 15 15 15 16 17 16 15 14 14 13 13 12 16 18 17 19 20 20 21 22 22 23 24 24 25 27 30 31 31 32 35 36 36 36 36 36 36
7 4 0 3 4 7 11 15 16 17 17 17 17 18 17 18 17 21 20 21 22 23 24 24 24 25 26 28 29 28 30 30 30 31 31 31 32 32 32 33 34 35 34 35
7 6 5 5 6 8 9 8 8 12 15 16 16 17 18 20 21 22 23 24 26 29 30 29 28 28 28 29 31 33 34 34 34 33 35 37 36 33 34 35 33 34 36 38
10 14 14 11 13 17 17 17 17 19 20 22 24 23 23 24 26 29 30 29 30 31 34 34 32 31 34 33 34 35 35 35 36 36 36 37 38 39 39 38 38 37 38 38

GFSNGP_500_spd_021.txt.gz
Wind_Speed
67 64 65 62 60 55 57 52 52 35 40 28 24 30 30 41 48 46 44 41 38 37 35 35 30 29 26 21 20 22 22 17 12 14 15 18 17 19 25 26 25 24 24 22
74 70 68 71 66 59 58 54 53 45 46 33 27 33 37 41 48 50 50 48 43 43 32 37 32 30 29 27 23 23 23 18 19 19 21 19 20 21 26 27 27 28 27 28
81 77 75 74 69 64 61 58 55 52 42 37 35 34 39 39 41 47 50 44 43 44 37 31 26 19 33 29 28 26 23 22 22 24 27 22 22 25 26 28 30 31 29 29
86 79 81 70 64 65 65 64 60 57 49 46 40 37 36 41 43 49 52 50 46 43 43 30 23 30 29 33 31 29 30 29 31 28 28 25 24 26 27 29 32 33 32 34
87 82 82 77 72 65 65 64 63 61 54 52 47 42 41 40 41 46 51 55 51 45 46 46 45 30 29 33 35 37 35 36 28 27 27 29 28 26 27 27 31 37 37 35
86 84 82 80 73 72 64 66 59 61 58 53 53 50 41 36 39 40 46 57 62 59 55 55 54 47 38 36 37 39 40 38 36 33 30 32 32 33 31 32 32 37 41 39
87 81 85 79 73 69 65 69 58 59 59 52 52 50 44 37 34 36 42 52 53 52 56 55 48 45 46 40 42 38 41 40 42 40 33 38 39 40 40 38 38 40 43 42
92 79 75 69 61 51 53 63 65 56 56 55 54 50 47 41 36 34 37 38 46 55 54 49 47 46 48 42 37 40 43 40 46 51 38 42 41 40 43 47 46 44 40 47
88 88 68 57 55 56 45 51 60 67 58 52 55 55 52 47 41 36 34 32 33 39 57 54 55 53 51 50 45 49 51 53 49 57 51 45 50 48 46 52 55 50 49 46
78 72 67 58 53 59 57 51 52 59 59 53 53 54 56 54 48 41 39 39 40 40 43 50 59 62 61 62 55 51 51 52 51 57 54 55 53 49 55 55 59 58 54 52
54 51 67 57 60 59 59 58 60 67 66 53 53 53 53 55 55 48 47 47 46 48 49 48 49 52 54 61 61 64 66 57 57 56 52 58 55 56 52 58 61 64 60 55
46 46 57 46 49 61 66 63 61 64 65 60 57 53 53 55 54 50 52 51 52 52 55 55 56 54 54 54 55 57 56 67 60 57 57 62 61 61 58 61 65 65 70 47
41 51 62 53 13 40 56 69 71 57 54 56 60 58 58 57 56 56 57 54 58 54 52 57 59 53 56 58 59 64 64 61 61 59 61 63 69 69 69 73 72 38 59 17
45 59 68 52 20 57 52 58 55 55 54 53 55 56 59 62 62 60 58 58 58 58 57 51 54 57 59 64 71 72 71 67 62 66 69 77 78 77 83 67 57 42 51 42
44 55 57 38 35 47 50 50 49 53 50 51 52 51 54 57 60 64 58 55 53 57 56 52 51 54 61 70 78 89 78 67 71 77 65 72 73 72 68 45 32 34 29 37
31 47 54 57 47 26 40 38 34 31 33 35 42 51 56 49 50 61 57 57 42 39 42 43 45 44 49 55 44 63 83 87 24 40 61 26 59 71 31 26 30 29 35 38
36 43 48 52 42 45 24 28 33 32 32 36 43 49 46 38 47 44 41 41 37 34 37 37 33 31 36 36 27 22 19 61 71 38 30 24 24 27 25 28 29 32 37 43
40 39 27 35 48 35 37 36 35 34 35 40 51 38 43 38 36 33 33 30 32 33 36 32 26 22 20 20 13 6 3 13 24 22 22 24 26 27 31 36 35 37 39 43
28 38 37 34 37 40 32 29 32 34 38 48 43 43 36 40 35 35 30 30 32 32 33 29 27 24 18 15 16 14 17 18 19 24 28 29 30 30 31 34 38 40 40 44
11 8 16 18 21 21 22 27 32 39 37 44 44 45 36 22 29 30 29 29 29 31 31 29 28 31 24 21 21 20 20 24 27 25 25 26 36 40 36 37 38 37 39 40
17 16 16 14 14 12 13 14 14 15 23 21 22 20 21 21 23 28 31 33 30 30 31 30 31 28 30 29 28 26 28 28 30 35 31 35 38 36 37 38 35 40 47 52
14 13 13 14 15 15 14 9 9 17 17 19 18 16 14 13 18 25 32 35 28 25 27 28 29 27 29 33 29 32 31 39 37 40 41 42 43 47 45 43 47 50 45 35
5 5 4 6 7 7 5 3 4 3 5 8 7 9 10 10 12 14 17 19 20 23 25 25 24 26 30 34 37 38 39 38 39 42 45 45 46 46 47 43 41 43 35 32
11 8 4 1 2 3 4 6 7 8 9 10 9 9 10 9 10 11 13 17 21 25 25 25 25 26 23 22 23 22 20 22 24 24 25 34 33 29 29 31 31 32 35 40
10 9 8 7 6 4 6 8 10 11 12 12 14 14 14 14 16 14 16 20 22 22 23 22 22 24 26 27 28 27 26 28 29 29 31 33 34 36 38 39 40 41 43 42
6 7 5 5 5 6 8 9 11 12 13 13 15 16 16 17 18 19 20 21 23 23 24 25 27 27 28 29 29 28 28 30 32 33 34 36 39 41 43 44 44 45 44 43
10 10 11 11 13 13 14 15 17 19 20 23 25 25 26 26 27 28 28 28 27 27 28 29 29 29 31 33 34 34 34 34 35 36 38 38 40 42 42 43 41 41 44 43

GFSNGP_500_spd_024.txt.gz
Wind_Speed
66 62 61 62 60 58 58 54 55 38 36 25 20 23 24 28 37 44 43 40 41 40 34 36 33 33 27 27 26 24 22 22 16 16 14 12 13 17 17 15 21 25 28 26
70 68 65 63 63 60 58 59 58 47 45 32 26 26 30 32 32 34 43 43 41 39 36 38 39 31 24 30 31 27 24 20 22 22 20 18 17 20 21 19 20 23 27 27
77 74 72 69 63 62 62 61 57 50 44 35 31 31 34 37 36 34 32 35 43 44 41 37 37 32 32 25 33 33 27 27 23 24 24 24 23 26 24 22 24 23 26 28
84 80 79 74 65 66 66 64 60 52 47 45 36 36 36 35 41 40 36 34 35 36 39 38 37 40 36 33 30 27 27 34 29 27 23 25 27 29 28 24 23 25 29 30
91 87 82 80 74 69 69 65 63 60 53 48 46 42 40 39 42 41 41 36 37 41 41 42 40 38 37 36 33 31 19 23 33 36 32 31 30 28 30 29 26 23 27 34
95 93 88 84 78 73 70 71 64 62 58 51 52 51 44 41 42 43 39 42 41 43 43 46 45 44 42 36 32 27 26 29 37 37 37 33 29 28 30 33 35 31 29 29
95 97 96 90 86 80 76 71 64 63 60 55 54 50 47 44 42 41 40 42 41 45 48 46 45 46 46 46 45 33 34 34 38 40 39 47 44 36 35 37 40 39 38 40
98 100 101 93 86 83 80 74 71 67 57 55 57 50 43 45 41 39 37 38 41 41 47 51 51 50 49 45 40 42 44 37 38 40 43 47 46 42 48 41 44 44 47 47
100 106 95 95 88 83 78 78 75 70 61 56 55 51 47 44 40 38 39 42 42 40 40 46 49 48 42 45 46 45 46 45 36 42 50 44 40 56 50 56 40 44 48 51
85 101 100 96 79 79 74 72 66 67 66 64 56 52 45 44 45 42 41 40 42 42 43 40 43 51 54 50 51 51 52 51 49 48 48 42 48 59 61 54 57 59 57 50
53 80 92 94 81 68 65 55 48 38 40 51 46 45 49 44 45 47 49 46 41 42 43 44 45 45 46 50 58 59 54 54 56 56 58 59 62 65 48 52 64 57 56 56
41 45 66 63 73 66 56 59 49 40 37 35 43 40 40 47 47 46 46 48 47 43 45 48 47 48 49 51 50 51 57 63 66 70 73 69 60 61 61 63 67 58 69 70
38 39 41 52 50 62 55 48 53 54 52 42 41 48 52 53 50 42 43 45 45 42 44 46 48 50 51 51 51 54 52 59 62 63 65 64 66 69 68 67 68 68 70 74
39 36 44 47 50 56 55 61 47 51 57 55 54 53 54 56 54 52 54 49 47 49 50 51 51 50 52 55 56 57 54 53 56 56 60 65 67 66 66 67 71 75 76 78
43 44 41 48 50 58 44 57 63 54 65 62 49 52 54 52 49 52 52 51 50 51 52 53 52 51 52 54 57 52 52 54 62 71 78 80 82 79 71 67 72 75 68 69
39 35 41 52 54 62 46 35 36 67 41 52 58 56 54 51 45 42 44 48 53 53 53 58 53 48 41 35 35 40 47 49 60 68 68 92 88 83 69 70 78 80 56 50
43 40 31 56 57 59 36 26 34 36 41 41 30 38 40 41 45 43 36 44 48 51 56 53 43 43 35 36 37 40 43 48 40 40 16 29 55 51 51 60 81 69 62 17
36 24 21 57 58 49 34 14 30 30 30 38 41 37 34 35 37 41 43 47 48 43 42 36 36 36 36 38 35 33 33 28 28 12 30 27 24 17 18 17 9 18 14 17
22 31 27 34 26 34 39 37 19 20 21 23 26 28 33 36 35 32 36 32 35 33 34 34 36 36 38 37 34 33 33 18 14 9 4 7 18 20 26 13 9 13 19 20
27 24 20 35 31 25 26 41 44 24 27 29 31 35 36 35 39 36 37 35 39 35 34 33 34 32 30 33 34 35 24 17 13 12 14 11 6 12 13 17 18 24 25 23
16 15 16 9 7 8 9 18 22 25 31 26 26 30 31 25 30 24 27 29 29 33 36 33 31 30 30 31 25 25 26 26 22 20 17 17 23 18 23 25 27 23 23 25
20 17 20 15 15 14 14 15 19 17 15 17 23 23 22 22 23 26 27 29 32 34 34 35 33 32 31 32 32 32 33 28 28 28 29 32 29 17 20 28 26 25 28 30
11 12 15 23 21 19 19 16 13 12 15 17 16 16 17 19 23 25 26 32 35 34 38 39 37 37 35 31 34 37 35 36 37 35 34 39 37 42 42 40 39 43 43 35
12 9 8 7 5 5 4 7 10 10 9 9 10 11 11 13 20 26 27 25 24 24 26 30 33 32 30 32 33 32 32 34 34 35 38 40 43 42 31 36 41 42 35 30
10 10 11 11 9 7 7 6 4 3 5 8 11 12 14 15 17 18 19 21 21 20 20 21 23 25 25 27 29 28 29 28 30 29 29 31 34 35 35 36 41 42 40 36
9 8 7 7 8 9 9 10 11 11 11 11 12 13 14 15 16 19 20 21 24 24 24 25 25 25 26 27 28 30 31 32 34 35 36 36 36 37 39 41 42 42 43 43
12 12 13 14 15 15 14 15 17 18 19 20 20 20 21 22 23 24 24 25 26 26 27 27 26 27 29 30 31 31 30 30 32 36 37 39 39 43 44 45 47 48 47 47

GFSNGP_500_spd_027.txt.gz
Wind_Speed
65 64 63 61 60 58 56 51 52 36 35 30 22 25 21 25 37 44 43 43 43 40 37 35 33 31 31 27 27 28 23 22 19 18 19 16 12 12 13 14 16 18 21 26
70 68 66 65 63 62 59 54 52 40 40 33 27 28 26 27 36 44 49 46 47 45 43 41 37 32 31 32 32 27 26 23 23 22 23 20 18 16 18 16 16 19 18 21
74 72 70 70 64 61 58 56 53 46 40 35 33 30 29 29 29 34 42 46 49 49 46 46 45 38 36 29 30 27 25 26 28 26 24 24 24 23 24 21 25 21 21 21
78 75 76 69 68 67 65 61 58 51 44 39 36 34 35 36 34 35 33 35 35 39 46 43 41 39 35 36 32 26 28 32 34 30 29 27 29 29 28 27 25 28 23 22
83 81 78 75 71 70 67 63 61 56 50 46 41 38 39 38 39 40 39 35 34 33 33 41 40 35 39 38 35 36 32 30 29 31 34 33 30 30 31 29 28 28 28 24
89 85 84 75 72 72 69 66 61 58 54 47 45 44 34 40 42 43 41 40 39 36 33 33 34 34 34 38 41 33 31 25 29 32 35 38 36 35 36 38 32 32 30 32
92 91 90 84 78 75 72 68 63 62 59 52 49 45 40 40 43 43 43 44 40 36 33 34 34 35 35 37 35 32 35 33 30 32 34 36 45 49 45 45 43 38 37 34
99 97 94 86 82 80 75 70 66 64 58 57 53 49 46 45 42 44 44 43 43 37 36 35 35 36 37 38 40 42 41 37 37 38 40 40 41 55 48 38 49 52 38 45
99 102 96 92 87 81 78 73 69 64 58 57 54 48 50 47 47 42 39 44 44 41 39 38 36 36 37 40 44 45 44 42 43 43 42 46 42 47 51 54 52 59 37 38
87 100 97 97 91 90 84 78 73 69 65 62 49 50 53 48 45 44 44 38 37 40 41 40 40 40 41 42 44 43 43 42 43 45 48 50 49 49 51 59 60 69 71 47
69 85 92 97 95 94 88 83 77 73 67 59 57 59 56 48 46 44 47 45 39 40 42 43 43 42 39 39 40 46 50 49 48 49 51 53 54 56 59 57 64 63 51 57
42 53 73 75 85 94 90 82 75 77 66 58 50 42 42 50 50 48 48 45 48 45 37 39 41 41 42 41 42 40 40 44 48 54 60 66 67 66 64 66 65 64 61 64
25 42 58 60 70 81 86 80 76 75 61 57 51 41 37 36 38 41 40 41 41 38 36 33 31 36 46 46 44 46 49 50 54 56 53 59 58 59 62 65 72 74 72 74
25 42 50 52 59 62 56 61 70 67 62 41 40 42 38 39 39 38 38 38 40 42 40 34 31 34 38 42 45 48 51 53 57 58 60 60 62 65 67 63 67 72 68 69
23 42 54 47 43 43 42 48 47 52 48 41 40 44 44 45 43 42 42 43 45 46 45 45 48 47 47 45 47 49 50 50 53 61 66 69 70 66 67 68 70 69 68 68
32 38 40 40 35 45 46 49 53 53 48 50 50 46 48 49 43 44 54 52 50 49 45 43 43 44 44 47 47 48 49 51 55 56 54 55 58 59 60 70 79 81 86 78
27 28 35 24 33 56 60 54 57 53 47 47 49 49 49 48 53 52 58 57 57 50 40 44 41 42 40 39 46 45 48 47 46 47 48 46 48 54 60 56 43 40 51 69
22 31 31 19 24 46 54 54 51 45 46 46 56 63 58 44 61 41 27 54 52 46 40 45 39 40 42 41 40 43 44 41 42 45 41 41 44 45 37 48 51 22 25 32
25 15 17 28 18 27 34 35 41 44 52 58 58 59 48 43 42 29 33 35 41 43 43 43 40 39 38 37 38 40 40 39 42 39 33 38 29 24 21 25 14 12 11 8
8 5 15 16 16 14 16 17 11 17 22 23 24 24 29 29 28 32 36 41 40 40 40 35 36 35 36 35 37 43 46 42 42 37 29 27 19 11 10 11 9 7 8 9
24 24 18 12 13 16 16 12 9 18 21 19 20 17 22 27 33 37 38 40 39 41 40 38 38 34 35 38 41 41 46 39 38 35 27 25 23 17 15 15 17 18 17 16
24 22 27 22 23 21 18 23 16 14 17 20 24 27 29 33 38 40 41 42 40 41 40 37 36 36 35 36 37 37 39 37 35 34 31 30 30 25 22 22 24 28 20 20
16 16 16 21 17 15 15 15 19 21 22 23 24 24 25 28 30 31 32 33 36 34 30 31 35 36 37 35 36 39 41 37 37 37 37 36 33 30 30 28 28 20 21 23
11 7 5 8 12 9 7 12 16 20 20 15 13 19 20 24 28 29 29 30 24 23 21 24 29 34 36 35 37 39 36 35 35 37 39 39 38 39 35 35 34 39 36 33
7 9 11 13 13 13 12 10 7 3 3 5 9 13 16 18 22 23 18 15 15 16 21 20 21 24 28 25 29 33 33 33 34 35 35 34 34 38 37 36 39 41 44 44
5 5 5 5 7 8 10 10 9 11 11 12 14 14 13 12 12 13 16 19 21 20 20 22 23 25 25 25 26 27 29 32 31 33 33 32 33 34 32 32 34 32 38 38
12 12 10 10 11 13 13 14 15 16 16 17 18 18 18 18 19 20 21 23 24 25 25 25 25 27 29 29 30 31 32 34 35 36 36 37 36 36 37 38 37 37 40 43

GFSNGP_500_spd_030.txt.gz
Wind_Speed
63 64 62 59 59 56 54 49 45 38 34 31 23 24 23 35 41 44 45 44 44 41 43 39 36 33 28 29 28 25 20 20 18 18 18 19 16 12 11 8 7 9 13 15
67 63 64 63 61 59 55 49 47 38 38 35 30 24 23 30 38 39 48 47 44 45 46 43 41 39 35 33 30 30 25 21 23 23 21 21 19 18 17 14 12 14 16 17
71 67 67 69 65 62 58 54 51 43 43 38 37 29 27 28 36 43 47 50 47 45 43 43 41 42 38 36 34 30 27 29 28 26 21 22 24 25 23 20 20 19 17 19
75 76 74 69 66 67 64 57 53 49 49 41 39 35 32 35 35 37 44 45 45 44 46 47 45 44 39 40 39 34 31 26 29 16 22 26 29 24 24 26 25 24 25 23
75 78 73 74 75 71 68 64 60 53 52 48 44 39 33 34 35 35 38 38 44 43 41 46 46 46 46 44 45 44 36 30 25 22 24 27 31 29 30 30 31 29 29 29
80 79 79 74 75 75 73 68 61 59 53 49 47 43 34 30 37 39 41 39 37 39 36 34 34 43 49 41 39 37 34 34 32 30 31 33 34 39 38 39 38 38 33 35
84 84 82 82 82 78 73 66 65 62 57 56 51 49 42 41 35 38 41 42 40 38 35 34 34 34 33 34 31 33 39 39 38 38 34 35 40 43 45 46 47 45 44 41
89 88 88 85 81 80 74 74 70 67 62 61 55 51 46 43 39 38 40 42 42 41 38 36 36 36 35 32 31 33 34 36 37 37 35 36 34 36 40 43 43 45 51 50
94 94 87 88 86 83 78 77 70 66 60 61 57 53 51 45 43 40 38 39 41 41 40 39 37 36 36 35 33 34 35 36 35 36 38 40 38 42 43 44 49 50 48 55
90 94 94 94 85 83 83 75 74 69 63 59 55 52 52 47 45 44 41 41 39 40 41 41 38 37 36 37 39 40 38 38 39 40 42 43 42 46 45 49 50 52 56 53
76 88 93 95 92 88 84 84 78 72 69 66 59 53 49 49 47 45 40 39 38 37 37 36 35 37 38 39 38 38 38 39 40 40 42 45 46 48 48 51 51 56 58 55
48 60 79 90 94 92 92 88 80 76 72 65 60 56 53 52 48 43 41 41 43 40 35 35 33 33 33 36 38 40 40 40 41 42 45 46 48 49 50 53 54 58 60 63
27 47 63 77 88 91 91 88 82 80 72 69 67 59 54 52 49 49 50 48 46 42 37 33 30 33 34 36 37 39 41 41 42 42 44 47 50 51 54 56 57 58 62 68
18 26 47 55 66 80 86 83 81 78 74 72 69 64 54 51 51 49 48 44 41 41 45 46 41 36 35 36 37 40 43 45 49 50 50 52 53 54 56 56 57 63 64 65
29 27 30 49 57 70 74 78 75 72 70 69 64 59 46 50 45 39 39 37 35 38 43 42 41 39 40 42 45 47 48 48 46 47 52 53 54 55 57 58 60 64 67 70
19 28 30 45 56 56 56 56 60 60 54 46 53 55 51 44 43 40 37 38 40 40 40 42 42 42 43 45 45 48 49 51 53 55 55 56 57 55 58 60 63 60 60 60
24 26 23 19 33 35 42 40 34 33 35 39 44 46 49 49 45 45 46 49 50 50 48 45 43 45 45 39 40 41 44 49 52 51 57 59 58 58 62 60 58 58 54 54
29 40 37 27 37 45 36 36 32 37 40 51 48 45 47 52 53 51 54 59 58 52 49 51 54 52 50 48 44 43 42 44 44 46 52 55 61 64 62 54 54 51 49 51
22 30 32 32 46 33 34 43 45 48 56 61 55 56 46 50 56 53 59 60 54 48 51 56 60 57 60 54 49 46 49 52 50 51 51 52 51 45 45 43 44 43 34 40
22 22 19 20 20 24 44 26 17 18 42 45 51 56 55 53 52 51 50 46 42 50 56 53 40 53 54 49 52 57 54 51 50 48 46 46 44 43 40 39 34 28 24 21
26 23 23 17 21 28 36 38 35 34 31 43 43 38 41 43 46 49 51 53 47 48 37 36 43 48 51 52 51 46 46 47 47 47 43 42 41 41 41 39 35 32 21 16
19 25 25 27 21 19 21 26 25 20 28 42 43 34 34 38 39 47 51 51 46 36 33 38 41 45 45 44 48 49 49 49 51 47 41 38 37 39 40 39 36 35 23 22
9 8 9 8 22 29 29 27 30 29 24 21 21 26 30 30 28 27 29 32 33 34 38 40 44 44 43 44 48 49 51 54 49 44 42 39 34 34 36 36 36 36 32 25
9 6 3 6 5 6 8 13 13 20 27 32 35 32 29 29 25 27 30 34 36 37 36 38 36 35 38 41 42 45 48 46 44 41 38 39 38 37 38 38 39 38 36 32
7 9 10 9 7 6 5 5 3 3 2 3 6 10 15 20 23 27 32 34 36 37 37 37 37 33 32 36 38 42 41 36 36 38 36 35 37 36 34 35 36 35 33 38
11 9 9 8 8 7 6 6 6 7 7 8 8 8 9 8 8 9 14 20 23 25 27 31 33 32 29 30 31 30 27 28 29 32 31 30 31 31 31 32 33 34 36 43
17 16 16 15 15 16 17 16 15 13 12 13 13 13 14 14 15 16 17 21 20 19 20 22 23 22 22 23 24 25 27 28 30 31 32 32 32 33 32 33 34 37 39 40

GFSNGP_500_spd_033.txt.gz
Wind_Speed
57 34 39 41 53 55 54 48 43 27 30 25 31 18 29 37 39 43 41 37 34 32 32 29 28 28 28 29 27 25 24 20 16 15 15 14 15 17 13 12 10 6 2 5
65 49 58 55 54 54 52 52 47 40 29 28 32 25 25 35 40 39 40 43 44 41 38 33 34 34 32 31 29 26 23 19 17 16 15 17 17 20 18 14 14 12 11 9
70 69 69 67 62 54 46 47 49 50 41 32 37 37 30 30 30 41 41 41 43 41 39 37 38 38 37 37 35 27 23 22 20 21 20 19 21 19 19 19 19 18 16 15
72 68 70 63 58 59 54 54 53 51 50 51 44 32 27 26 29 33 36 47 46 45 43 40 41 41 40 40 36 32 29 25 23 23 20 20 20 19 22 25 23 24 24 22
70 67 60 67 64 61 62 58 51 48 46 46 45 39 36 29 29 31 35 38 47 49 49 48 44 43 41 38 35 38 35 31 28 29 26 23 19 18 23 27 29 27 28 28
75 70 63 44 43 68 68 63 62 54 52 55 51 48 40 37 38 41 41 42 41 41 47 47 42 44 44 40 38 38 37 37 37 38 33 28 25 26 28 29 32 35 33 33
76 76 71 43 42 63 66 54 58 61 59 60 56 53 46 42 36 37 40 40 39 35 33 34 38 38 40 43 44 41 45 44 44 46 38 33 33 32 34 32 34 37 38 36
75 78 77 53 68 63 51 69 70 69 66 66 60 56 45 45 39 38 41 43 42 40 37 35 33 32 33 38 43 45 45 47 49 45 41 38 36 38 35 36 36 37 38 39
78 79 79 72 78 73 79 75 66 76 67 64 61 56 52 47 44 40 41 41 43 43 40 38 35 33 34 34 35 34 34 32 35 39 42 42 41 40 38 39 39 38 41 42
86 90 89 85 84 83 85 80 79 71 65 63 57 56 54 48 46 45 43 44 42 42 43 41 39 36 35 35 33 34 35 35 34 35 36 37 40 39 40 41 42 41 44 45
83 86 89 92 91 86 88 81 79 74 68 63 59 55 53 51 50 46 46 43 44 43 42 41 40 39 37 36 34 35 34 34 35 37 38 39 42 43 43 44 47 49 47 50
67 76 83 89 92 91 87 79 77 73 70 67 63 60 53 51 48 45 47 46 46 44 44 42 42 41 37 36 36 37 37 39 40 39 40 42 45 45 45 46 49 54 57 54
47 64 77 86 93 93 90 87 84 77 74 70 64 60 58 59 50 46 44 42 45 46 43 42 41 39 41 41 39 37 37 37 39 42 45 48 48 47 48 49 50 53 54 52
25 46 62 74 82 85 90 87 83 78 76 67 63 64 61 56 51 52 49 44 44 43 42 43 45 42 40 41 41 40 41 41 42 43 44 46 47 48 51 52 53 54 54 55
25 31 34 48 65 75 83 84 85 81 76 72 69 66 61 57 54 55 52 50 48 45 44 44 44 44 44 43 42 43 43 43 44 45 46 47 48 52 54 55 58 61 61 60
27 36 30 31 42 57 64 79 79 77 75 72 67 62 61 61 62 60 58 54 53 52 45 46 42 43 43 47 51 51 52 53 53 54 55 56 56 58 61 62 63 60 61 63
10 17 35 26 23 37 55 60 64 66 69 66 63 61 50 56 55 55 54 52 52 51 49 41 44 50 53 54 55 55 55 56 56 56 54 55 57 60 62 61 62 62 64 63
30 14 8 21 21 19 30 48 52 53 49 46 42 36 56 54 42 40 41 44 44 42 46 48 47 51 51 54 56 57 56 54 55 57 56 55 59 59 58 53 51 54 60 63
23 20 14 17 21 18 18 29 39 42 39 45 45 56 44 52 44 43 45 48 51 51 53 54 54 59 60 61 62 58 56 56 55 56 53 53 55 53 53 55 57 60 61 58
21 15 26 20 24 38 27 26 32 39 40 39 49 41 42 50 49 48 51 56 60 59 60 62 64 67 64 62 58 56 56 57 57 57 55 55 54 51 54 57 58 55 55 51
19 20 11 12 26 16 29 39 31 48 53 45 42 54 52 56 50 62 68 61 60 62 66 63 61 62 59 60 57 57 61 62 61 64 61 59 57 54 54 54 50 43 46 43
18 21 25 26 25 24 19 21 13 25 21 23 22 36 40 36 33 43 51 52 42 42 54 46 62 54 50 49 48 53 52 48 48 55 60 58 55 53 54 53 52 49 43 41
14 10 8 8 16 26 29 26 21 15 11 17 23 28 27 28 30 36 34 33 41 43 46 49 51 51 52 50 51 52 51 52 47 50 52 54 53 57 53 53 48 44 42 43
14 13 14 16 13 10 6 6 10 14 18 20 23 26 27 29 33 37 37 42 46 43 43 46 43 45 47 46 44 46 49 47 46 49 54 55 56 57 52 49 48 45 45 43
9 6 6 7 6 6 5 5 5 6 10 17 22 27 30 34 33 34 37 35 34 36 37 35 34 35 37 38 40 40 38 40 43 48 51 52 52 50 48 49 50 47 46 44
12 11 10 10 10 10 7 7 6 7 7 7 7 7 8 11 14 19 24 21 28 24 22 25 27 28 29 30 33 38 40 41 41 43 44 46 46 46 48 46 47 48 47 46
24 23 20 17 16 16 15 14 13 13 13 13 13 13 14 14 14 13 14 14 15 15 16 16 16 17 18 20 24 26 27 35 42 43 42 42 42 39 37 36 39 39 40 41

GFSNGP_500_spd_036.txt.gz
Wind_Speed
53 40 29 42 45 45 49 40 41 27 32 31 35 24 28 33 32 32 35 38 39 42 33 27 28 26 26 25 23 23 22 20 16 18 14 9 9 7 8 8 8 7 6 7
70 53 47 46 43 41 43 43 32 31 22 35 35 34 22 33 34 36 42 45 46 37 31 27 24 25 28 28 26 26 23 18 16 18 15 6 8 10 8 7 10 9 10 10
67 60 55 45 51 39 39 41 37 40 30 30 29 31 29 31 39 39 36 39 40 36 36 33 27 26 29 27 26 24 23 19 14 14 13 13 12 9 10 10 11 13 15 15
64 63 53 49 52 51 42 40 39 38 40 24 21 29 37 35 36 39 38 35 33 32 30 34 32 31 28 28 28 24 23 19 14 12 14 14 15 13 13 14 13 13 12 16
68 58 60 55 59 57 51 42 37 37 39 45 45 45 47 40 33 31 35 37 39 39 37 35 35 38 37 36 31 29 25 23 20 18 18 19 17 18 19 17 16 15 17 18
66 67 56 41 36 51 55 53 50 52 57 59 63 60 57 33 37 38 37 36 32 32 36 40 39 41 38 36 29 28 25 26 27 29 28 25 24 24 25 25 23 25 22 20
60 68 41 47 40 46 52 56 63 66 68 67 67 68 54 44 41 36 33 33 32 31 30 30 26 24 26 24 29 28 31 34 34 32 34 33 37 32 32 33 34 31 27 24
63 63 52 31 44 49 53 55 65 71 66 60 59 58 57 53 44 37 33 35 36 36 33 33 32 28 29 28 29 27 35 36 37 38 37 39 41 42 40 37 36 33 29 27
52 68 60 42 46 54 56 61 54 63 69 65 61 61 58 52 39 39 41 40 39 38 36 38 33 31 27 26 29 30 32 33 37 41 40 43 43 47 43 40 39 37 35 32
61 65 72 54 56 56 58 65 73 76 71 67 63 59 51 41 43 42 41 41 43 40 39 37 35 33 32 32 31 31 31 32 32 31 31 35 38 39 39 41 40 40 38 36
78 79 78 83 77 73 75 73 73 70 70 69 63 62 60 54 51 47 43 42 41 41 42 40 35 35 34 33 34 32 31 32 33 33 33 35 36 36 37 39 40 40 41 42
77 78 85 87 88 85 88 87 82 76 72 65 56 54 58 49 49 51 49 46 45 43 43 43 41 39 35 34 37 37 36 35 35 36 36 37 37 38 39 41 42 44 45 46
74 73 82 88 89 89 87 86 81 77 72 68 68 62 56 52 53 51 46 45 47 46 45 44 41 40 42 39 37 39 38 38 39 40 41 41 42 42 43 44 45 46 47 49
25 47 63 73 82 88 87 86 83 78 77 75 70 64 59 59 54 50 46 43 43 46 46 45 43 41 41 40 40 40 40 41 41 41 43 43 42 43 45 47 48 49 50 53
28 33 44 53 73 80 83 86 84 80 79 77 71 67 65 62 54 52 51 51 49 42 42 43 43 41 40 41 43 44 43 41 40 42 43 45 46 46 47 48 50 51 54 56
20 35 36 49 64 72 79 83 84 82 81 79 75 72 67 60 58 59 55 53 49 48 48 47 46 43 42 44 44 46 48 48 46 47 49 50 51 51 51 54 57 59 61 62
9 5 28 34 42 54 66 75 82 83 81 78 75 73 70 68 63 61 57 55 54 55 54 48 47 48 51 50 50 51 51 52 53 53 55 56 58 59 61 62 63 65 63 66
19 17 15 16 13 19 34 55 69 75 79 79 74 67 67 61 61 62 61 57 55 55 54 53 53 53 52 54 53 55 57 59 58 58 61 63 64 65 66 67 67 67 67 68
22 18 7 11 14 13 10 14 39 61 66 69 67 66 64 58 54 59 58 57 53 55 55 55 56 57 57 57 56 56 60 62 65 66 66 67 69 69 69 68 68 66 64 63
16 17 16 18 10 5 4 4 10 34 53 56 54 55 52 49 52 52 48 47 52 51 53 53 55 56 57 57 58 62 65 66 68 68 67 68 67 68 65 62 62 66 66 64
22 17 16 13 15 26 22 9 20 24 29 35 37 39 39 43 43 42 42 46 46 49 52 54 55 57 57 61 62 65 68 69 68 67 67 65 63 61 62 63 64 66 64 62
20 19 19 17 4 13 21 19 32 40 49 37 32 42 50 58 61 56 47 49 50 55 54 57 60 64 67 67 68 69 71 71 70 68 64 63 65 63 64 66 66 61 63 60
22 26 22 15 10 10 16 24 27 30 31 35 44 47 42 51 59 50 48 48 54 53 60 61 63 64 63 65 68 71 74 73 66 73 70 67 64 64 61 55 57 59 58 57
13 15 15 17 21 18 10 5 7 14 20 27 27 33 30 30 34 39 41 38 42 39 34 41 38 37 38 37 37 44 46 50 53 57 48 51 59 64 59 54 53 50 48 51
11 10 12 12 11 11 12 9 5 1 4 12 22 27 29 30 29 28 27 26 28 31 32 33 33 34 33 33 34 39 44 49 53 55 52 53 55 54 51 53 54 54 53 52
23 19 13 12 11 9 9 8 6 4 4 3 4 8 11 12 17 20 19 21 23 27 27 27 28 29 30 30 32 33 38 40 41 43 45 44 46 47 48 48 48 48 49 50
18 23 24 24 21 19 17 16 14 14 12 11 11 11 10 10 10 11 11 10 10 11 11 12 13 14 17 19 23 27 31 35 37 39 40 42 42 41 45 47 45 44 44 45

GFSNGP_500_spd_039.txt.gz
Wind_Speed
65 59 53 40 44 38 45 44 41 40 33 22 15 17 20 23 24 20 33 44 45 31 27 22 19 17 21 23 23 22 18 17 15 13 11 9 7 5 2 1 1 0 1 2
70 58 50 43 49 42 40 43 41 42 35 26 26 26 25 28 32 32 35 40 38 40 34 27 24 23 24 25 22 20 19 15 13 11 12 10 8 8 4 2 3 2 2 3
70 61 60 52 40 44 31 33 45 44 34 22 25 28 31 30 29 34 43 45 44 41 33 24 20 20 23 25 27 25 22 16 14 11 13 12 9 7 8 6 5 2 2 4
76 63 64 49 43 48 34 25 39 40 30 25 20 28 34 36 32 32 41 38 41 41 30 25 25 20 19 28 28 25 21 20 15 12 15 13 10 7 8 10 9 9 6 5
69 66 65 50 46 43 46 43 45 45 33 33 40 37 42 43 40 37 38 38 33 26 23 24 27 27 23 26 25 26 23 19 19 17 16 14 11 10 10 10 13 13 13 10
72 62 66 56 57 53 52 50 49 51 44 47 44 37 41 42 43 39 34 31 31 32 31 26 27 24 26 26 28 25 22 20 21 21 20 17 16 17 17 16 15 19 19 16
59 64 65 62 63 58 57 54 59 57 49 51 53 54 50 46 39 43 36 33 33 29 29 29 31 32 32 29 27 27 24 22 24 26 25 24 25 25 23 24 24 24 24 26
61 60 64 63 59 67 65 64 65 66 52 58 57 55 53 50 43 34 42 39 36 32 30 30 29 28 26 23 20 19 25 29 27 29 30 31 31 29 30 31 31 30 31 29
69 55 51 54 67 82 72 71 73 70 64 68 65 62 61 58 53 39 37 38 36 35 33 32 30 28 25 23 22 29 29 33 35 32 33 36 35 36 35 35 37 38 38 37
71 74 70 49 50 67 80 75 71 73 77 79 76 72 69 64 59 51 44 39 39 37 36 36 34 29 25 24 23 23 31 36 35 36 38 40 40 38 37 36 37 39 42 42
64 64 79 67 47 59 66 73 68 75 75 76 77 74 70 65 60 57 37 43 42 40 40 36 34 29 30 32 28 28 28 28 32 35 38 39 38 35 33 33 34 34 35 38
62 61 69 73 61 46 56 61 70 76 74 73 71 68 64 61 53 42 48 51 44 47 45 41 38 34 34 35 34 34 33 32 32 33 34 34 36 37 34 35 35 36 36 38
65 66 69 64 68 57 53 58 61 67 70 70 73 72 69 66 63 61 53 50 48 49 47 42 41 39 38 38 35 34 36 36 37 38 39 38 38 38 38 37 38 39 40 41
50 63 73 76 74 70 73 55 56 57 58 62 64 66 67 64 58 55 54 51 52 52 49 45 43 43 43 41 41 39 38 37 39 39 39 40 41 39 41 42 43 44 45 46
19 25 41 61 81 85 83 83 76 66 59 57 58 58 55 55 54 50 48 46 48 48 43 45 46 46 46 47 46 45 44 40 40 42 43 42 44 43 44 45 46 46 47 48
18 27 35 41 52 75 92 90 86 85 83 78 78 72 69 70 68 62 55 55 52 49 47 42 44 44 45 47 49 47 47 47 47 45 46 47 48 49 49 48 47 48 49 51
28 19 19 31 47 57 66 81 92 92 89 86 85 80 77 74 71 68 63 59 56 54 52 49 50 49 45 44 47 48 50 50 51 50 50 51 51 50 50 51 53 55 55 56
30 27 9 5 21 40 50 59 72 80 86 88 87 86 83 79 76 71 66 60 57 57 57 55 52 46 50 55 54 51 51 52 52 52 52 52 52 53 55 57 58 60 61 63
26 23 6 4 10 10 14 21 37 53 68 77 82 83 82 80 76 72 66 60 57 57 56 56 54 57 56 56 59 58 59 58 57 56 57 58 59 60 62 65 66 67 67 69
16 19 21 3 6 9 11 17 22 22 32 61 69 72 73 75 73 71 67 63 57 57 59 59 55 58 58 58 61 59 61 64 65 64 64 63 65 67 68 69 71 72 73 74
15 9 8 12 8 1 5 7 3 9 7 27 43 59 68 70 70 69 66 61 61 58 57 58 58 59 59 57 59 61 64 65 67 67 67 68 68 69 71 73 74 75 74 72
19 15 9 2 4 13 17 21 13 3 8 11 20 32 49 59 63 61 59 58 56 55 55 56 54 58 61 62 65 61 61 68 72 70 69 69 72 73 71 70 70 70 71 72
13 18 15 12 6 5 7 14 11 12 19 35 33 28 21 37 47 50 48 43 49 42 46 54 56 52 60 58 58 59 58 61 61 63 65 67 65 65 65 65 68 67 69 69
13 10 9 12 9 5 6 13 19 19 15 19 26 29 27 37 41 49 53 56 57 60 57 60 59 61 62 60 67 63 58 55 58 62 65 61 64 63 58 66 69 71 76 77
16 15 13 9 6 7 2 4 2 13 18 17 24 28 32 36 43 45 44 46 51 62 71 78 70 61 61 57 58 56 56 55 56 53 53 52 52 52 53 52 57 54 50 51
19 17 16 15 16 11 11 10 5 4 5 4 6 13 18 23 29 31 33 32 33 36 33 30 30 35 39 39 39 39 37 37 40 41 39 41 44 46 46 47 49 49 49 51
18 20 19 16 15 16 15 17 17 13 11 11 8 8 6 6 7 6 9 15 18 22 27 30 32 36 40 38 39 42 40 40 39 39 41 41 41 41 43 43 43 42 43 47

GFSNGP_500_spd_042.txt.gz
Wind_Speed
74 71 65 60 59 54 52 51 46 33 38 28 25 21 21 18 16 32 37 34 31 28 28 23 19 14 21 24 23 23 23 21 20 21 18 14 13 12 12 9 10 10 9 8
72 68 65 58 54 49 45 42 43 33 40 24 25 21 27 20 19 18 24 33 35 34 28 27 22 18 14 22 24 25 23 21 21 20 16 15 14 15 12 10 11 10 8 5
70 68 64 54 54 51 43 31 34 40 41 33 31 24 23 26 23 24 26 25 30 31 31 29 26 23 21 17 23 25 23 22 20 17 15 17 16 14 12 10 11 9 8 8
63 68 65 57 45 51 49 39 33 42 36 37 34 27 33 35 34 31 29 29 30 29 28 33 32 31 27 27 24 27 25 22 19 15 15 18 17 14 14 13 13 11 9 8
60 67 67 61 53 52 55 49 43 39 41 41 37 38 39 39 34 37 33 31 30 28 24 18 23 22 21 22 29 27 27 21 18 18 18 19 17 17 17 15 12 11 13 12
65 64 68 66 57 48 53 52 46 42 49 40 44 39 39 40 40 37 35 33 32 29 24 17 22 23 26 23 23 29 27 21 23 27 25 22 21 21 19 18 14 15 13 14
72 70 68 68 59 52 59 60 53 47 53 47 48 44 43 43 43 39 39 34 31 28 26 25 24 26 27 26 21 20 29 35 33 31 29 29 27 25 25 23 21 20 18 17
70 76 65 73 66 52 63 63 60 53 57 57 55 45 46 45 44 40 40 36 32 29 27 25 26 28 31 31 33 35 38 37 35 32 32 32 31 33 30 28 27 26 27 25
69 77 75 66 69 48 68 63 59 59 62 61 60 49 49 47 46 46 42 42 37 38 38 37 30 27 27 29 31 36 39 38 38 33 32 34 37 39 39 36 34 33 32 32
72 72 77 57 70 59 62 68 64 67 76 72 63 61 57 54 52 47 44 43 43 38 38 33 31 30 28 24 24 29 37 40 41 42 42 41 39 41 43 43 40 40 38 38
68 72 73 72 57 69 56 71 71 71 77 75 69 63 60 58 57 54 49 48 43 43 41 38 36 33 31 28 28 28 30 34 40 44 45 46 48 47 47 45 43 39 39 40
62 65 66 70 66 52 62 67 73 75 76 76 74 70 67 64 61 58 54 50 41 39 37 36 37 36 33 33 33 32 31 31 37 41 42 43 42 41 39 37 37 37 36 35
51 67 63 56 58 53 52 58 69 83 84 77 79 76 72 69 65 62 59 55 53 44 42 45 47 43 40 35 34 33 32 34 34 34 36 39 42 42 41 39 39 38 38 38
37 54 68 69 64 53 46 56 61 63 79 83 76 79 79 76 73 68 63 60 55 51 47 49 50 46 44 40 39 38 37 35 37 38 38 39 40 40 40 41 41 42 42 43
49 52 52 62 78 75 78 69 57 72 85 89 87 85 84 82 83 77 73 68 62 53 48 44 49 49 47 45 43 42 42 40 39 39 40 42 44 45 46 46 45 45 45 44
19 38 54 66 73 79 83 76 79 71 60 68 90 95 92 88 88 84 75 64 57 55 54 51 49 48 50 49 47 46 45 46 45 44 44 44 46 47 47 47 47 47 47 47
13 14 18 30 45 75 87 85 82 77 73 66 65 79 88 85 82 77 72 64 65 66 61 58 49 44 47 49 48 48 51 52 52 52 51 50 49 49 50 50 51 51 51 51
19 20 14 12 13 49 68 90 94 90 84 81 70 69 68 75 75 75 72 69 67 62 58 55 54 50 47 48 50 53 53 52 53 54 55 55 54 53 53 55 55 56 57 56
19 26 22 10 7 8 37 61 70 88 95 91 87 85 76 75 75 74 74 72 75 74 73 69 67 65 60 56 53 56 58 56 54 56 56 57 58 58 58 60 61 60 60 61
14 17 21 21 8 6 10 18 32 55 70 86 95 97 95 95 91 88 88 89 85 80 73 66 64 64 61 60 59 56 59 58 61 61 59 59 60 61 61 62 62 62 64 65
17 13 13 16 17 4 3 11 14 20 26 37 51 79 97 99 97 95 92 88 84 79 74 67 63 61 58 58 61 57 55 57 62 63 64 66 66 66 68 68 69 68 69 69
15 15 12 7 10 15 7 10 12 6 11 14 14 41 52 71 88 93 91 90 86 81 77 72 68 63 61 58 58 58 58 62 65 68 67 65 66 69 71 73 75 76 74 73
12 12 11 13 4 7 10 8 16 14 12 12 17 15 23 29 47 64 80 83 78 76 73 71 69 66 63 62 51 52 55 56 57 62 65 67 68 70 73 73 76 79 78 78
16 13 10 6 12 8 6 14 15 20 11 12 11 26 28 14 13 27 35 47 61 70 74 68 65 65 64 65 60 67 63 64 64 64 66 53 62 65 64 65 65 65 65 65
15 16 15 10 8 10 11 13 7 13 16 17 16 20 27 40 34 21 24 37 34 45 41 37 50 56 48 50 53 58 57 60 59 57 66 62 74 65 61 60 59 58 62 65
16 15 13 14 14 12 9 12 14 15 11 8 15 21 25 29 30 22 24 25 50 42 44 47 57 61 57 62 65 67 68 71 69 71 61 54 70 67 64 62 61 59 58 58
19 18 16 14 12 14 12 10 13 17 17 16 14 13 8 10 22 32 35 33 32 50 57 47 47 52 49 52 47 44 45 42 44 46 47 46 42 41 46 47 48 51 52 53

GFSNGP_500_spd_045.txt.gz
Wind_Speed
74 67 65 68 62 59 62 56 51 37 39 39 35 33 34 34 39 26 27 36 38 32 35 30 22 21 23 27 25 26 26 25 25 27 27 26 23 19 18 14 14 14 13 10
72 66 62 66 62 62 61 58 50 39 46 39 35 33 36 34 32 22 24 37 40 32 27 31 24 22 20 26 28 27 26 27 27 26 25 24 21 20 18 17 17 17 16 12
65 69 62 60 67 65 59 58 50 42 47 43 36 37 38 37 27 20 23 34 30 28 23 24 26 21 20 20 27 28 28 30 28 26 25 24 23 21 19 18 17 17 16 15
60 62 67 63 62 63 61 59 54 50 45 41 37 37 41 37 26 20 21 28 28 27 31 28 24 24 21 22 22 23 27 28 27 26 25 25 23 23 21 17 17 15 13 14
58 58 63 60 66 59 61 61 53 53 48 44 43 40 44 39 30 28 27 31 31 26 30 33 30 25 23 23 22 21 25 28 25 23 21 24 22 22 21 19 17 16 15 16
57 61 66 53 62 58 59 60 55 52 51 44 48 46 45 47 39 38 36 33 30 25 27 26 29 30 28 28 22 22 21 26 27 26 24 24 27 26 26 24 22 21 19 18
59 61 66 51 62 60 57 59 57 55 55 50 53 49 44 45 46 43 41 35 28 23 26 26 26 25 27 22 20 19 27 28 33 33 31 30 32 30 28 27 27 23 20 20
63 62 62 55 60 61 62 61 58 57 55 54 59 54 47 45 44 43 39 32 28 27 23 27 27 28 27 28 27 27 25 33 34 33 33 35 32 32 31 31 29 26 24 24
63 64 64 51 59 62 56 61 60 57 57 61 63 61 54 49 43 44 42 35 29 29 26 25 30 32 33 32 32 34 33 33 33 36 37 38 37 42 38 38 33 32 32 30
57 63 62 69 59 68 56 63 65 60 59 65 63 64 57 51 45 44 41 39 34 31 29 29 32 38 40 40 41 42 43 43 44 44 46 49 52 50 45 45 38 39 39 38
55 63 58 67 64 67 55 56 62 63 62 64 66 64 63 57 50 45 44 43 42 38 36 34 32 32 33 33 35 38 44 47 48 49 49 50 45 44 47 46 44 48 48 48
53 63 65 66 61 68 68 46 64 69 73 70 69 68 65 62 55 51 52 51 47 46 45 42 42 39 34 31 28 27 30 32 39 47 52 52 53 54 55 53 53 53 53 53
48 48 56 59 68 61 66 72 62 73 79 76 75 70 69 67 61 59 61 53 51 50 48 46 43 40 36 35 34 33 31 31 33 38 43 48 53 55 56 56 56 54 53 52
40 52 55 55 58 73 71 63 46 73 80 81 80 75 73 73 69 65 65 60 59 57 56 49 44 44 42 41 39 37 35 34 33 34 36 40 44 46 45 44 44 43 42 43
20 32 55 63 61 66 70 70 62 61 77 80 81 81 76 76 75 70 66 66 61 58 57 54 49 49 43 37 40 42 42 40 38 35 36 38 40 42 42 42 42 43 44 45
23 28 32 42 60 62 69 70 74 67 66 85 88 81 78 79 77 75 74 70 68 63 59 58 54 52 44 41 49 52 49 46 44 39 39 39 40 41 41 42 43 45 45 46
9 16 31 41 46 61 72 72 69 67 70 78 76 79 74 81 78 79 78 77 75 71 68 64 60 58 53 44 51 56 55 50 47 46 44 44 45 45 45 46 47 48 49 49
3 11 20 28 36 46 61 75 78 78 79 66 75 78 72 74 68 80 80 78 77 75 73 69 66 62 54 50 53 50 50 50 51 53 52 52 52 52 51 51 52 53 54 54
12 8 11 21 25 26 30 39 64 78 82 77 81 74 72 75 73 73 70 76 79 79 81 74 72 70 62 58 55 53 51 51 51 52 53 54 54 54 55 55 57 57 57 58
14 16 18 11 7 9 18 19 21 60 79 85 81 79 77 82 74 81 81 75 65 81 92 85 77 72 67 65 62 57 53 50 50 51 53 57 58 58 57 58 59 60 62 63
16 18 17 21 20 14 11 12 14 17 38 62 80 92 94 95 97 89 80 83 82 76 74 82 80 75 69 69 66 62 59 57 62 65 65 64 65 67 67 67 68 67 64 64
16 18 21 18 17 18 17 13 9 8 13 21 32 44 55 66 79 95 98 93 86 79 80 79 83 85 82 76 70 66 68 70 66 62 61 61 64 68 70 71 70 69 70 70
18 17 17 20 18 15 15 18 14 15 18 14 14 21 25 25 41 54 72 88 93 88 83 75 74 75 78 76 79 83 78 68 63 63 63 65 69 68 65 68 69 72 73 71
18 19 17 15 17 21 17 11 17 20 19 19 17 13 14 16 19 22 36 49 61 71 78 92 90 90 92 91 89 81 75 74 72 70 66 66 71 70 72 70 69 72 71 75
18 17 19 19 16 15 18 21 21 16 17 22 25 22 19 16 19 16 15 23 29 33 56 71 81 94 99 97 93 86 85 82 79 75 72 61 58 56 59 64 71 69 68 68
23 20 19 20 20 20 16 16 15 17 22 18 19 22 24 26 25 29 33 29 24 30 29 31 39 49 64 76 86 85 81 81 82 80 67 66 68 71 68 68 73 71 71 69
23 23 21 22 21 19 20 17 18 18 15 16 21 21 17 16 24 29 32 35 36 37 39 38 34 38 42 41 49 54 49 46 51 59 68 64 69 73 77 80 83 76 78 75

GFSNGP_500_spd_048.txt.gz
Wind_Speed
54 61 68 64 68 66 69 63 62 56 39 33 37 33 43 44 45 45 44 46 46 41 33 37 32 25 22 27 31 32 31 29 28 32 31 29 27 24 22 19 17 16 15 13
53 53 64 67 67 67 67 64 62 51 40 39 39 40 41 47 52 50 48 49 50 44 36 36 29 26 22 26 30 31 31 31 32 33 32 29 27 25 23 20 19 17 16 15
44 50 63 64 65 69 67 64 61 49 40 42 44 43 42 38 43 48 43 28 33 47 43 42 35 31 26 27 30 31 31 34 32 32 30 30 27 25 23 21 21 20 19 16
45 43 65 64 64 67 69 66 59 50 43 47 46 42 38 33 37 31 25 27 32 34 45 35 36 32 28 26 29 33 33 32 32 31 30 29 26 26 24 22 20 19 18 18
49 45 61 65 65 63 68 67 60 50 46 51 51 48 40 39 36 33 29 29 35 38 44 35 27 26 27 28 30 33 33 29 30 30 30 29 28 27 27 25 22 20 20 19
44 43 46 66 66 62 66 64 60 51 50 54 51 49 45 44 41 34 25 25 36 42 28 29 29 29 27 27 27 29 31 26 29 31 30 29 29 29 30 28 25 23 21 19
44 40 40 53 68 58 61 58 60 51 54 52 56 53 49 49 45 37 26 25 28 31 32 33 32 33 30 30 24 24 21 22 27 32 30 30 33 31 29 30 29 26 25 24
38 48 47 46 65 61 60 57 53 54 56 55 58 55 52 52 48 45 39 37 37 37 36 35 37 38 34 32 32 28 26 26 26 31 34 31 32 33 32 30 28 27 26 25
45 48 52 51 56 65 55 54 50 54 54 58 59 60 55 53 52 49 47 45 41 37 32 34 36 37 34 31 28 31 26 24 26 30 39 38 33 32 31 32 31 31 29 29
46 50 50 49 50 58 55 48 50 48 56 55 59 62 61 57 57 54 51 48 44 39 32 37 35 36 34 32 29 28 26 25 27 25 36 42 33 35 38 38 36 37 37 36
28 51 56 50 46 50 50 50 54 52 53 56 57 63 63 59 58 57 52 49 47 42 31 34 38 36 36 36 35 35 34 34 34 32 36 41 41 43 44 43 45 43 48 44
34 40 51 49 44 48 44 42 50 52 54 55 60 62 63 62 60 56 53 48 46 42 38 34 34 35 39 41 43 41 41 39 39 41 45 49 52 50 51 51 55 51 50 52
29 42 49 49 47 39 60 53 50 50 56 57 60 62 64 64 64 62 54 52 48 42 38 37 35 32 34 41 42 47 46 46 48 48 47 49 50 49 50 54 57 55 51 51
21 58 48 47 48 45 44 46 59 49 56 58 63 63 63 65 67 64 63 57 53 47 43 40 38 36 37 38 39 38 38 39 38 38 40 42 46 50 54 54 54 56 57 57
17 37 45 48 47 50 50 52 56 56 54 58 61 67 67 65 67 69 67 64 59 55 50 48 48 45 47 46 43 40 39 38 34 35 36 36 38 40 42 45 48 50 51 52
16 17 20 48 53 53 52 52 56 60 57 67 62 70 68 73 69 73 72 70 67 62 60 58 58 53 54 52 46 46 45 42 38 38 38 39 39 39 39 39 39 41 41 42
11 19 25 26 28 34 47 53 50 53 59 60 63 64 47 76 83 73 73 72 71 68 68 67 63 58 56 56 52 51 51 48 41 40 41 41 43 45 44 41 40 40 41 42
3 11 16 27 36 36 36 52 54 59 60 61 56 66 66 67 64 74 75 74 73 74 73 70 70 68 63 60 55 52 52 55 48 44 43 42 44 47 48 46 44 43 43 45
13 9 7 14 22 33 41 46 51 52 55 59 60 62 63 68 68 66 71 69 77 78 79 77 74 71 69 65 62 59 55 59 53 49 46 44 43 46 48 47 48 49 49 49
24 21 17 17 11 11 20 30 38 45 52 55 55 61 71 71 68 66 73 71 70 73 85 81 79 77 73 72 70 66 65 63 60 57 52 51 53 49 46 45 46 47 49 51
21 22 22 20 23 21 17 23 30 34 37 39 44 53 59 68 74 71 71 65 76 71 64 65 78 80 72 69 68 68 69 65 63 61 59 56 57 55 52 43 45 50 54 57
19 19 20 19 19 19 21 20 21 22 20 22 26 27 35 52 67 73 75 73 68 69 69 62 65 67 77 73 57 60 63 65 67 70 66 60 62 64 60 57 56 57 62 64
21 21 21 22 22 19 17 18 21 18 14 18 18 15 16 24 35 47 65 75 76 75 72 73 72 69 73 73 68 65 67 64 66 68 69 64 66 66 66 67 60 64 66 69
23 23 22 22 23 21 20 19 17 19 20 21 19 20 18 12 17 23 27 34 42 57 76 82 83 84 84 82 78 77 74 74 77 71 68 66 72 77 75 74 70 70 67 67
26 25 24 24 24 25 22 19 19 20 20 18 20 20 21 19 13 16 19 21 21 30 41 55 64 72 80 76 80 85 87 84 79 77 72 70 72 72 72 76 80 75 71 68
25 26 25 25 25 26 25 23 19 19 21 21 21 20 20 22 23 21 16 18 16 18 23 20 24 34 49 58 63 70 80 84 83 81 84 78 78 78 82 83 81 79 78 78
24 25 25 25 25 26 26 26 23 21 19 19 20 21 21 22 19 18 21 23 24 27 34 26 29 28 23 30 39 48 58 70 72 80 88 89 88 93 93 95 94 93 84 80

GFSNGP_500_spd_051.txt.gz
Wind_Speed
54 52 55 60 67 71 72 71 73 67 62 48 44 46 44 50 57 58 53 56 52 46 39 36 35 30 29 33 35 34 33 32 32 32 33 34 33 32 32 29 27 25 21 19
54 54 56 59 65 71 72 73 74 70 63 49 42 45 48 54 59 62 60 59 54 52 46 40 34 29 27 27 33 34 33 31 35 34 32 31 33 32 32 31 28 24 21 19
47 49 56 58 60 66 72 72 72 67 59 47 43 44 48 51 57 61 60 60 57 55 52 45 39 35 33 28 31 34 34 35 34 33 33 33 33 31 31 30 28 24 23 20
34 46 55 49 57 63 68 68 69 65 53 46 43 47 47 48 56 59 59 58 58 56 55 46 39 41 34 30 30 31 34 35 34 33 33 36 34 32 31 30 28 27 25 23
35 41 51 45 59 63 70 66 66 62 53 46 39 45 44 45 50 52 53 55 57 51 50 47 44 38 34 32 32 28 33 32 32 33 34 34 33 32 32 33 30 28 28 24
33 39 39 47 56 58 67 63 59 59 51 51 40 50 47 42 42 44 50 53 39 37 40 52 53 44 37 35 34 25 26 29 30 33 35 33 34 34 34 34 32 29 27 22
35 43 35 36 54 57 58 60 57 58 52 53 45 50 46 38 34 32 32 32 35 33 42 39 51 46 41 36 28 26 23 28 32 33 34 35 35 35 34 32 30 28 26 24
32 41 36 40 56 59 56 59 57 57 53 50 48 53 46 44 37 37 36 32 34 32 44 47 46 42 41 37 32 26 25 27 34 35 35 35 34 33 32 31 30 29 26 23
23 33 38 32 54 59 57 56 52 53 55 49 49 56 51 46 42 41 36 32 33 38 45 49 44 45 43 42 37 30 29 27 30 33 33 35 35 34 34 33 32 30 27 26
20 34 30 22 41 57 54 52 50 49 55 50 49 54 55 51 47 45 43 42 41 40 39 43 43 43 40 40 40 35 31 31 30 30 30 32 36 38 35 35 32 30 30 30
20 29 30 22 50 45 54 52 43 46 49 51 48 53 55 57 53 52 51 50 48 46 46 46 43 39 42 43 42 38 31 33 32 32 33 36 38 41 37 36 35 36 37 38
28 27 33 28 39 28 41 53 49 46 48 44 47 49 51 58 58 55 51 53 53 51 51 47 44 44 45 45 42 40 38 35 40 39 39 40 32 43 44 43 43 41 46 46
22 31 27 36 31 32 32 44 50 46 45 42 46 49 48 54 59 59 54 49 49 50 51 51 47 50 49 49 53 46 45 43 44 53 63 37 28 35 45 50 49 49 51 53
21 29 40 43 37 35 34 34 46 51 44 39 42 42 45 48 52 58 58 52 51 53 53 52 52 46 52 54 49 51 57 63 39 29 37 37 39 43 45 51 55 53 53 54
5 10 41 45 44 36 35 33 41 41 44 44 46 48 49 45 49 55 61 59 57 56 55 55 54 53 49 51 53 55 50 42 48 53 50 50 47 46 47 48 50 52 53 53
2 6 10 35 39 42 45 40 51 47 48 47 49 52 51 53 50 54 59 59 61 60 58 58 56 52 51 50 50 48 50 54 54 53 51 46 45 44 45 44 44 45 46 47
11 9 7 10 38 39 43 47 43 36 37 46 48 51 50 57 58 55 56 57 61 62 62 61 59 58 56 52 50 48 45 45 43 43 44 43 43 41 41 41 41 39 39 39
4 3 5 13 24 22 31 38 39 44 45 46 46 49 51 48 52 45 55 65 62 61 60 64 62 61 59 57 54 52 50 50 49 48 46 46 48 43 40 42 42 42 43 43
9 6 4 7 11 18 29 29 32 33 40 47 52 52 47 51 49 55 57 60 56 71 67 66 67 65 63 62 61 59 57 56 57 53 50 50 50 53 48 44 43 42 43 45
18 14 9 10 12 12 15 25 32 38 41 42 46 49 51 50 48 49 50 47 50 56 55 69 66 67 68 69 68 67 65 62 63 59 55 53 54 53 57 52 49 45 43 46
23 21 19 14 12 16 17 17 16 21 29 36 40 44 49 52 55 56 57 56 56 55 57 64 58 71 73 75 76 76 75 73 70 66 64 59 58 56 55 53 54 50 48 47
27 26 24 21 18 14 13 17 19 18 21 26 30 36 42 46 50 54 56 60 61 62 61 57 60 70 73 79 76 79 83 81 78 76 73 65 62 64 63 59 59 56 54 53
28 26 27 27 25 23 20 15 14 19 20 18 23 26 31 36 38 43 52 56 59 64 64 67 72 67 59 73 79 88 74 71 83 89 74 71 67 70 68 66 65 63 58 56
27 26 26 27 26 26 24 23 20 16 18 20 22 25 30 30 30 28 26 28 37 50 63 69 72 72 71 73 75 74 78 71 74 71 75 69 65 69 68 67 66 67 62 62
26 26 24 26 27 27 26 25 23 22 19 19 21 23 23 26 31 28 22 22 26 28 32 41 56 63 70 71 69 66 76 84 75 64 67 66 64 69 68 67 67 69 68 69
22 22 21 20 20 22 26 27 25 23 23 23 21 19 19 20 21 22 24 20 22 24 24 31 37 42 51 56 62 68 71 74 73 72 73 76 76 74 77 75 75 73 76 78
24 24 23 23 22 21 20 22 25 23 23 23 23 21 20 19 19 18 21 23 21 23 23 23 26 26 22 24 31 45 56 67 71 74 78 79 81 81 81 83 80 79 80 81

GFSNGP_500_spd_054.txt.gz
Wind_Speed
54 50 50 57 57 64 69 76 74 52 46 42 57 48 46 44 54 58 59 61 53 49 47 44 40 36 33 32 36 38 38 38 36 37 37 37 35 32 30 29 28 28 27 26
47 48 51 54 56 58 67 74 78 75 67 39 58 55 50 48 58 61 62 62 57 53 51 46 40 37 32 30 30 35 34 35 37 38 38 36 35 35 33 30 30 30 29 28
42 42 52 58 59 55 62 67 74 78 68 57 62 55 49 50 47 61 64 65 62 58 55 50 44 37 34 34 29 31 34 34 36 37 37 35 35 35 33 32 32 32 31 28
39 38 48 56 52 55 58 63 66 77 70 64 61 57 49 47 51 53 64 65 64 60 57 53 47 41 38 35 29 26 30 34 36 35 35 35 33 31 32 33 32 33 31 28
37 32 40 45 52 59 57 60 70 76 73 68 59 57 53 51 48 53 61 64 68 66 57 54 53 43 41 36 35 30 29 28 34 34 35 37 34 32 34 33 32 31 30 29
30 33 35 44 46 58 55 59 64 69 71 63 58 57 53 53 51 48 56 61 65 66 61 58 57 49 47 39 39 33 29 22 26 35 35 34 33 34 37 36 33 33 32 31
27 32 32 34 43 50 54 57 58 62 64 58 59 58 56 52 52 48 47 52 60 61 61 59 57 55 51 44 39 36 34 30 25 32 33 34 36 37 37 36 34 32 31 31
27 36 40 35 32 52 50 54 52 55 54 57 59 54 52 44 48 44 43 43 53 60 59 55 55 54 51 46 45 40 40 32 26 29 32 33 34 36 35 35 34 33 32 30
29 33 27 24 29 40 46 42 44 50 50 55 59 58 49 47 48 43 40 39 45 47 48 50 52 56 58 54 50 45 42 32 30 26 32 33 32 33 33 33 32 31 30 29
8 13 15 6 9 41 47 43 40 41 51 56 59 53 47 49 47 41 42 38 37 40 44 50 48 51 56 58 54 48 41 36 31 26 28 34 35 34 33 32 31 31 30 29
9 9 18 15 14 43 49 45 45 40 52 52 55 46 49 51 46 48 42 40 41 42 43 47 46 50 49 59 55 47 45 43 34 31 29 33 35 34 34 34 34 33 32 33
10 11 8 17 7 51 52 46 42 45 50 51 50 48 51 53 52 50 47 47 47 46 45 45 48 50 51 57 52 48 46 38 38 37 37 37 37 39 41 40 38 38 36 37
7 10 12 13 20 48 58 38 47 44 49 44 42 47 46 53 56 54 51 50 50 50 51 53 55 56 55 53 49 50 49 44 43 39 40 41 41 43 42 46 45 43 35 39
6 8 14 14 19 32 46 48 44 45 43 43 43 45 45 48 59 55 54 50 52 51 53 54 54 54 52 50 52 48 49 51 51 56 45 48 57 50 53 65 51 42 46 44
5 6 10 18 17 27 42 40 48 47 44 39 42 44 46 45 58 57 57 52 53 53 53 55 55 54 55 52 51 52 52 62 52 47 50 53 55 62 73 45 27 43 48 47
17 10 3 10 24 32 29 39 38 44 49 45 39 44 45 44 50 59 56 61 54 52 52 50 50 51 48 48 47 49 49 52 53 56 58 68 51 39 32 33 36 35 38 38
18 16 16 3 12 32 38 37 43 40 42 43 45 40 36 43 44 50 53 53 60 54 52 51 49 51 50 46 47 49 50 55 58 59 56 54 51 44 38 33 30 33 36 38
13 9 9 10 11 5 15 40 39 41 49 47 44 43 45 46 44 47 48 55 56 59 60 60 54 54 56 55 54 54 55 55 56 58 59 55 53 48 44 39 37 38 42 44
18 15 10 9 10 13 13 17 27 34 39 50 46 50 50 50 51 42 51 53 56 57 55 53 53 57 58 57 56 56 57 58 56 57 56 53 48 43 41 41 43 46 47 43
19 17 15 11 9 10 12 14 17 19 24 38 37 37 37 42 49 52 46 56 57 60 58 58 59 60 60 59 61 59 57 56 59 59 57 55 52 52 52 50 50 49 47 49
20 19 17 13 11 12 12 15 18 16 20 21 28 33 36 44 44 44 46 43 43 46 51 60 63 69 65 66 64 65 66 63 61 61 64 65 65 61 59 56 55 54 51 51
26 22 20 18 16 14 14 15 17 22 22 23 29 31 36 39 44 48 46 42 43 48 51 44 42 47 59 60 69 66 67 69 72 69 68 70 69 68 68 69 64 61 57 56
24 23 20 19 20 19 17 16 17 17 20 24 24 26 30 35 39 41 42 44 44 46 51 54 53 50 49 53 59 66 69 73 76 73 76 76 76 78 73 72 72 68 69 69
25 24 21 19 17 18 21 21 19 19 20 20 24 26 27 29 34 37 39 42 43 46 47 52 59 62 61 56 59 61 62 63 67 71 65 74 81 88 83 77 81 80 78 77
23 24 22 20 18 15 16 19 22 23 21 21 22 23 28 28 29 30 32 35 40 42 41 38 40 56 65 66 66 65 68 66 64 66 70 69 73 69 79 69 82 92 89 85
22 23 23 21 19 18 17 17 17 20 22 23 22 23 22 23 26 27 27 30 33 36 36 33 29 30 37 49 60 72 75 76 76 74 74 75 74 72 76 76 69 72 76 83
22 22 24 24 22 21 19 18 18 17 19 21 22 23 23 21 21 24 24 23 28 34 35 36 35 32 29 29 33 40 49 58 64 70 76 76 78 80 80 76 74 72 74 81

GFSNGP_500_spd_057.txt.gz
Wind_Speed
54 52 54 57 56 54 53 54 62 57 39 45 37 31 32 39 44 53 53 54 53 47 53 47 43 40 35 33 28 27 29 34 33 34 35 35 34 33 29 26 25 28 28 27
51 51 59 58 63 62 62 60 65 73 60 47 47 42 31 41 45 51 60 64 66 65 56 50 48 43 38 34 28 25 28 30 33 34 36 35 35 34 33 30 28 29 28 28
39 36 47 57 56 57 59 61 62 67 68 61 54 42 46 43 46 54 56 64 61 58 58 55 52 47 42 36 33 29 23 30 33 35 34 35 36 36 35 33 33 30 30 29
35 31 35 44 49 59 58 63 64 64 69 66 55 49 37 50 61 48 45 55 56 59 59 59 53 50 46 40 35 30 27 25 29 32 34 35 35 34 36 37 35 33 32 31
36 39 33 33 36 55 66 67 60 56 66 70 59 64 52 60 56 54 46 48 57 60 61 60 60 50 48 43 37 34 31 26 25 28 30 32 32 32 33 35 36 33 34 32
39 41 36 23 43 46 59 64 56 62 58 65 72 72 60 60 57 55 54 48 52 59 60 62 60 54 51 47 41 35 30 27 23 21 28 30 30 31 33 34 33 34 34 32
31 41 35 42 42 46 55 61 64 59 63 68 73 79 78 72 58 52 51 54 48 54 60 63 61 57 54 52 46 33 36 33 29 24 21 28 31 33 35 35 36 33 32 31
22 31 38 39 30 40 48 56 56 55 56 58 64 74 69 68 59 51 51 47 50 53 54 59 62 62 56 55 46 43 42 38 32 32 25 26 32 32 33 34 33 32 33 32
21 24 29 32 33 24 38 35 55 50 53 52 54 62 67 68 60 53 50 51 47 49 52 57 62 65 60 58 58 49 45 42 37 39 32 28 31 34 33 33 34 33 34 32
9 9 10 19 27 19 36 48 37 46 51 44 48 56 67 66 59 49 49 49 47 47 51 56 59 64 65 65 60 58 51 50 47 43 35 30 28 34 32 32 33 33 34 32
7 5 6 6 10 16 15 43 44 42 44 44 47 54 63 61 57 49 47 47 45 45 48 53 55 57 58 57 58 57 55 56 53 48 39 33 28 33 34 34 34 34 34 34
4 5 3 6 11 12 8 36 44 42 42 45 47 54 59 59 56 50 46 44 45 45 48 50 52 54 52 55 56 58 57 58 56 53 42 35 33 31 35 35 35 36 36 35
4 4 4 7 9 8 9 39 47 49 43 49 50 53 58 56 55 48 47 46 47 47 47 45 48 47 47 54 55 57 61 59 59 54 43 39 36 34 32 36 37 38 39 38
6 6 4 9 11 11 13 18 40 38 53 51 53 48 48 51 52 48 50 49 49 48 44 43 47 50 48 50 52 54 51 60 61 53 50 50 42 38 36 33 37 40 41 43
10 5 8 3 8 11 10 15 36 33 41 43 49 45 45 51 51 48 53 54 52 48 44 46 47 52 53 50 52 55 52 63 59 57 54 52 47 43 41 41 44 47 51 50
24 24 17 11 5 10 10 17 31 42 37 48 42 50 47 48 49 49 52 56 53 50 44 49 51 50 53 55 59 60 63 64 61 59 55 57 55 58 57 47 56 52 54 58
26 25 23 23 13 8 3 12 39 37 34 38 41 39 43 45 48 48 49 52 57 52 47 45 52 53 55 59 61 61 62 61 61 61 60 63 61 68 56 61 38 38 41 27
18 18 21 20 19 16 1 12 19 42 41 42 40 32 39 46 38 47 49 50 52 50 54 51 50 51 54 59 60 57 60 62 53 48 45 50 50 46 51 37 38 39 38 30
16 11 11 15 15 16 16 7 9 20 40 47 50 54 40 44 47 47 46 50 51 53 55 58 56 56 55 59 57 52 55 56 51 45 46 51 50 49 47 41 40 45 40 35
21 20 13 9 12 11 12 16 9 9 28 46 49 47 42 40 45 49 44 53 57 56 55 60 65 55 57 52 58 57 53 62 50 45 49 53 52 51 52 50 48 47 42 39
18 16 18 15 12 14 12 11 14 11 10 16 35 49 51 46 51 52 51 50 48 46 58 56 51 57 66 59 56 57 56 45 41 36 59 58 57 61 58 52 50 49 50 48
19 16 16 17 15 15 16 14 14 16 14 15 16 23 39 49 49 53 56 49 51 52 47 54 52 50 53 55 61 66 63 58 54 57 60 56 60 63 68 64 59 56 56 55
24 21 20 17 15 14 18 19 18 19 17 20 22 22 25 33 35 44 46 49 45 47 50 54 52 53 54 50 58 61 59 61 62 65 65 67 67 70 71 64 65 63 62 56
25 21 21 19 17 17 15 17 23 23 22 22 23 26 26 29 32 37 41 42 45 47 46 44 46 50 56 54 48 53 47 61 53 58 66 68 69 70 72 71 69 69 68 68
23 24 25 20 19 17 16 16 15 19 25 25 26 25 25 30 32 33 36 39 42 47 50 49 50 52 52 54 57 56 54 53 52 55 56 61 65 64 71 75 74 74 77 78
21 23 24 21 21 18 18 18 18 18 17 22 27 28 26 26 28 32 33 33 35 39 42 45 46 48 51 54 55 55 56 57 61 62 63 63 64 67 64 70 70 72 76 77
21 20 22 23 21 19 20 19 19 18 17 18 20 26 28 27 28 27 28 31 33 35 38 42 43 44 46 49 51 50 51 49 53 61 70 73 74 77 76 77 75 75 79 81

GFSNGP_500_spd_060.txt.gz
Wind_Speed
58 56 49 53 55 54 45 51 44 47 44 50 33 44 43 44 40 38 40 47 45 45 47 39 38 31 32 28 25 22 18 16 21 32 33 33 30 30 30 26 24 24 25 25
53 59 55 61 61 61 60 57 55 47 59 60 47 44 43 43 46 45 42 39 39 49 49 51 37 37 37 34 31 25 17 17 20 26 32 31 31 30 32 30 26 25 24 24
39 46 52 63 66 64 65 61 61 64 66 60 59 53 43 41 42 46 50 52 51 55 48 49 45 42 41 36 34 29 20 18 20 22 26 29 30 30 29 31 30 28 26 25
30 32 40 45 58 57 61 64 63 64 60 68 62 58 60 46 46 47 55 58 59 58 57 66 51 39 27 35 37 33 25 22 20 19 23 27 27 27 29 30 31 31 29 27
31 35 33 36 35 42 45 61 64 68 65 64 74 63 60 56 55 46 49 52 54 57 59 59 50 47 45 46 40 36 29 25 21 20 20 25 25 26 28 29 30 30 31 30
32 33 33 33 37 44 50 61 66 70 67 64 76 76 63 70 64 55 43 42 51 53 59 59 57 53 51 46 39 34 29 26 25 21 21 23 25 27 29 29 29 30 31 31
27 35 35 36 40 37 46 54 60 65 67 65 74 86 86 67 59 72 53 51 59 51 53 58 57 54 52 49 43 35 34 36 31 26 23 20 24 26 29 29 29 29 29 30
18 30 37 42 41 39 46 54 60 62 66 68 68 78 84 80 62 69 46 31 49 48 52 55 57 54 52 52 46 43 39 41 37 31 27 23 22 22 28 31 30 29 30 30
22 17 24 28 36 49 42 53 47 56 62 67 69 71 79 74 84 79 41 43 49 51 49 49 52 55 52 51 52 49 47 44 42 37 32 29 27 24 23 30 32 31 31 29
19 25 27 25 28 36 47 53 47 53 57 62 67 64 68 77 87 71 79 60 53 53 54 52 49 53 53 52 53 53 52 47 45 41 35 34 31 29 25 26 32 33 33 32
13 13 14 12 16 30 38 42 42 44 48 52 57 62 57 63 68 84 71 74 54 53 52 46 50 50 53 55 57 58 58 53 50 46 42 38 36 30 29 26 28 34 34 34
11 13 13 11 10 14 24 27 26 40 38 44 50 50 57 53 55 63 78 82 69 56 55 52 47 50 51 54 57 60 60 59 55 52 47 44 41 37 34 30 28 34 36 35
12 11 13 11 11 11 8 14 19 37 46 35 49 49 43 46 49 52 66 69 62 58 57 55 52 48 49 51 54 55 57 61 60 58 53 50 49 46 41 35 31 32 35 34
17 11 12 13 12 10 9 7 13 20 45 43 37 37 42 46 47 54 60 62 57 54 54 53 53 50 48 52 54 54 55 55 60 62 60 58 57 54 48 38 32 33 34 36
20 26 19 12 13 11 11 8 10 8 36 39 39 40 46 50 50 50 55 58 55 50 51 50 50 49 48 49 53 55 56 57 59 60 62 61 60 59 55 44 40 37 34 34
20 20 20 25 19 12 12 9 12 9 25 33 42 47 46 50 45 47 47 54 53 49 50 49 49 51 47 46 51 45 63 55 59 60 60 61 59 57 54 52 48 47 47 42
23 22 20 18 19 24 14 9 11 18 19 22 17 35 49 45 45 50 48 51 50 49 47 50 49 51 46 45 50 53 40 50 54 54 57 58 54 58 60 53 54 60 49 44
20 20 21 19 17 17 22 13 9 5 15 20 23 22 45 55 53 40 53 44 52 46 45 52 52 49 47 48 46 48 55 47 47 57 56 56 58 58 57 58 59 58 62 50
26 24 22 21 17 16 15 17 14 4 3 7 19 28 30 50 44 46 52 53 49 54 56 44 54 53 48 51 49 48 50 50 50 51 53 59 59 42 59 55 56 58 60 53
25 24 25 25 20 17 14 14 14 17 8 5 12 24 31 30 44 40 41 43 53 57 54 60 55 53 53 50 55 54 54 54 57 59 60 61 65 55 63 68 59 57 42 30
23 21 22 24 24 20 17 15 13 14 16 14 10 21 29 35 33 40 47 38 43 45 42 39 52 61 59 58 52 57 58 57 61 61 65 69 66 68 69 45 34 35 32 40
28 24 21 21 25 25 19 17 18 15 16 15 17 12 29 38 43 39 37 41 33 50 29 42 52 54 60 62 59 55 57 55 59 55 51 49 50 57 58 55 50 47 45 45
30 28 22 20 20 24 25 20 16 21 19 17 17 19 14 25 39 44 43 43 38 38 46 41 37 47 58 55 56 58 61 62 59 55 53 50 51 52 55 53 47 54 54 52
24 25 24 21 19 21 23 23 22 16 22 22 19 20 18 19 19 31 47 51 44 41 36 40 45 41 40 42 57 56 54 54 58 61 65 65 63 52 53 53 56 61 57 56
21 25 27 27 23 22 22 24 24 20 18 22 23 24 23 23 21 25 26 27 34 38 35 40 44 49 48 46 50 46 47 49 50 52 54 56 59 59 55 58 59 55 56 59
24 18 18 25 24 23 22 24 26 22 21 20 17 21 25 24 25 24 28 27 28 31 33 35 41 46 46 45 47 50 52 55 55 54 56 57 56 53 50 51 55 56 56 59
22 17 23 26 24 24 20 22 26 24 22 22 19 18 21 26 27 26 26 26 29 33 32 31 33 37 41 45 48 51 54 55 56 57 58 58 57 57 57 57 58 60 62 65

GFSNGP_500_spd_063.txt.gz
Wind_Speed
48 50 48 54 62 56 56 58 57 58 61 42 55 48 37 29 31 36 39 33 30 34 35 33 34 35 33 23 15 14 14 10 16 21 30 34 32 29 28 27 24 23 23 22
39 49 53 57 58 61 62 63 61 60 63 51 64 61 47 46 37 36 36 45 31 37 33 30 30 33 36 27 20 19 16 15 14 16 21 30 32 31 30 29 27 25 23 22
43 35 48 59 60 59 62 63 59 55 56 60 72 70 56 53 53 47 37 28 35 35 35 39 34 40 59 40 33 28 21 19 14 14 15 22 30 32 30 28 30 28 25 23
31 35 38 52 57 64 65 67 63 64 62 57 74 72 66 63 59 57 54 50 42 46 46 45 30 36 49 48 38 35 31 23 16 12 12 17 24 27 28 28 29 30 29 27
32 34 32 31 46 60 69 69 68 70 67 60 70 78 76 61 62 64 65 59 50 47 48 43 44 50 42 38 36 33 27 22 17 15 15 14 18 24 27 28 29 28 30 30
25 30 31 31 36 44 59 71 71 72 71 65 66 71 77 72 60 61 62 63 63 54 52 54 55 54 48 41 35 24 19 24 22 22 19 18 18 23 27 28 28 32 31 31
23 26 24 32 33 38 44 61 62 71 73 72 71 70 73 80 69 59 61 63 65 55 62 61 55 46 33 39 38 32 23 26 26 25 23 21 21 21 24 27 28 29 30 32
25 33 23 25 32 38 41 45 54 61 69 75 78 74 74 74 80 68 54 57 49 59 63 67 62 56 50 20 31 38 33 34 33 28 26 26 24 22 22 27 28 29 30 30
18 20 23 23 25 30 38 45 48 56 61 68 73 77 74 73 83 81 61 59 70 55 63 63 67 64 54 54 51 43 38 38 37 34 31 32 26 26 24 23 28 29 30 29
20 22 26 29 25 27 31 40 49 57 58 68 69 70 71 74 74 88 85 67 67 63 60 56 50 61 61 53 52 47 42 42 40 39 35 37 32 29 28 24 23 23 30 31
14 17 17 24 30 33 35 37 41 53 60 64 64 64 67 70 75 79 83 86 76 66 46 51 61 58 50 47 49 49 47 47 45 43 42 39 38 36 31 28 25 23 20 30
11 11 10 12 16 20 25 28 28 45 52 60 58 56 66 68 72 76 75 78 80 75 55 59 53 50 47 48 46 48 50 51 50 48 47 45 42 40 36 32 28 26 26 25
18 10 10 8 8 14 19 22 25 27 33 53 60 55 57 68 67 72 76 69 78 72 79 54 53 51 52 49 46 46 51 55 53 50 50 50 47 45 41 35 34 32 30 31
19 20 20 11 11 12 13 14 12 18 27 34 38 43 47 61 66 65 67 67 71 70 78 67 60 51 45 46 44 50 51 55 56 55 52 53 53 50 47 42 40 38 37 36
16 19 22 26 25 18 12 9 10 11 19 26 27 41 43 51 59 59 64 63 65 68 68 75 70 61 57 57 52 46 52 53 54 53 55 54 55 56 56 51 48 46 44 43
25 25 22 19 24 26 19 11 8 9 15 25 26 37 36 52 50 49 55 59 57 58 58 73 66 69 75 69 57 53 50 53 54 53 55 58 58 60 63 59 57 55 54 52
27 28 27 25 22 22 25 18 8 4 11 23 20 27 35 44 48 47 48 51 49 54 54 60 75 72 73 64 60 54 55 54 56 58 59 58 61 63 65 66 64 63 62 61
26 28 28 24 24 21 19 22 17 7 4 14 21 30 35 33 42 51 53 54 50 47 59 60 64 67 67 61 56 54 56 55 53 51 63 69 66 60 62 63 64 63 67 72
21 24 28 26 21 23 21 17 18 19 4 5 22 29 29 28 42 46 47 47 51 52 56 57 58 58 59 59 57 55 53 52 52 54 32 37 51 51 56 58 59 64 66 82
30 28 27 28 25 22 21 21 18 13 18 7 4 15 25 28 26 34 47 48 53 58 50 51 56 51 51 56 58 56 54 39 45 52 48 51 38 50 51 51 57 59 67 58
33 30 31 29 30 29 24 20 18 18 16 14 15 8 5 14 20 21 24 56 54 52 55 60 52 59 50 49 58 59 59 62 49 39 37 43 35 51 39 57 44 51 51 56
32 32 29 31 25 26 23 20 19 16 17 16 13 14 15 4 7 18 22 26 28 37 34 38 60 53 53 57 67 64 57 52 53 54 52 49 54 54 50 52 56 56 54 55
25 4 17 33 26 23 21 22 23 18 18 15 15 16 15 15 8 6 15 23 23 22 31 38 53 52 44 52 47 54 57 58 52 51 54 55 53 52 53 54 56 56 60 61
26 25 25 24 27 26 25 21 25 23 19 18 13 15 17 16 12 11 5 11 19 21 27 29 41 30 41 52 53 60 57 49 58 56 52 51 53 54 53 56 62 56 60 65
25 27 29 27 27 24 23 23 22 22 19 17 15 12 16 19 16 13 10 11 10 16 25 26 29 31 33 43 32 27 43 56 58 57 57 56 54 53 55 59 63 59 50 46
25 27 22 22 21 24 27 30 25 22 21 18 16 14 13 17 20 18 15 14 13 13 12 21 30 32 35 35 37 48 46 41 37 44 51 56 55 55 55 57 53 50 52 54
17 18 13 17 20 26 28 27 22 21 22 20 18 17 14 17 17 21 20 18 18 17 17 19 20 29 34 35 37 37 40 41 46 49 40 40 45 51 53 51 50 49 49 48

GFSNGP_500_spd_066.txt.gz
Wind_Speed
34 38 47 54 57 54 57 55 56 54 56 52 54 56 50 42 28 38 39 33 39 31 30 37 33 41 54 42 32 26 21 22 25 26 30 33 31 30 28 26 25 24 24 23
31 33 36 48 55 57 59 60 60 60 58 55 58 57 56 50 39 34 38 42 41 34 36 25 31 40 41 42 35 29 25 22 23 22 22 28 34 32 32 29 28 26 24 23
40 39 40 41 44 57 62 67 65 63 61 58 62 59 60 56 48 38 37 42 42 44 41 34 39 35 40 34 38 34 30 28 26 25 21 22 31 35 32 31 31 29 27 26
36 39 43 44 44 48 63 70 69 68 66 61 61 65 63 61 60 50 39 44 46 43 36 41 40 34 40 42 43 40 36 32 29 25 25 23 25 31 33 32 31 30 30 29
37 43 47 44 42 45 56 71 74 75 74 69 62 67 66 65 63 63 52 48 50 49 44 44 49 41 37 40 45 44 40 33 32 26 21 22 23 25 30 33 33 31 32 32
40 42 42 38 38 41 47 67 76 75 73 70 65 68 69 72 69 67 61 56 51 52 54 40 37 35 32 40 47 56 48 39 37 34 26 22 23 26 29 31 32 35 34 33
29 29 29 28 31 32 39 47 67 76 75 72 70 71 73 69 73 71 68 58 60 59 50 54 50 48 45 34 48 57 44 58 44 40 32 28 27 26 28 30 32 32 33 34
25 25 26 28 26 28 34 35 42 64 77 79 76 77 76 72 73 78 74 71 64 65 68 61 58 59 52 42 39 42 39 36 50 42 34 32 30 30 26 26 29 32 34 34
24 21 21 26 29 32 28 34 40 44 57 79 81 82 81 76 76 78 84 77 68 77 68 68 65 58 59 56 47 50 56 46 43 41 37 35 33 32 28 24 23 29 32 33
20 20 20 25 27 30 31 32 39 46 50 58 77 83 85 82 79 77 78 88 80 73 78 73 77 71 61 62 57 52 47 51 46 45 44 40 40 38 34 28 24 22 27 31
14 15 15 19 22 23 27 34 38 43 50 57 64 73 80 84 84 82 81 80 88 84 75 80 81 65 64 69 63 56 46 46 45 44 46 46 43 41 39 33 31 29 27 27
18 21 17 17 19 18 21 27 33 38 44 56 61 65 68 77 80 84 85 82 80 89 85 80 71 63 67 57 63 62 55 48 48 47 47 51 49 44 44 40 35 34 32 32
16 16 16 20 15 17 21 25 30 30 32 34 44 63 62 70 71 77 82 83 82 84 94 90 76 81 85 68 59 67 52 56 60 51 51 53 53 50 47 46 42 41 37 34
19 20 21 21 20 19 22 23 25 24 23 26 33 39 44 59 67 72 77 77 77 83 90 94 91 76 55 64 65 59 49 57 60 58 57 56 56 54 52 50 49 46 43 40
19 19 20 21 22 21 18 24 21 20 22 23 25 31 32 35 51 64 72 77 74 77 80 89 90 91 80 57 56 46 49 55 56 57 56 55 55 57 58 57 53 52 49 46
19 20 22 21 20 20 21 19 22 15 14 18 19 21 25 22 24 39 62 68 76 70 79 78 78 89 94 77 64 55 58 59 59 55 53 53 53 53 57 60 60 58 55 52
22 19 18 22 25 23 20 20 21 21 14 11 13 20 24 24 29 35 37 54 71 74 69 76 71 69 75 85 73 67 72 62 56 54 55 54 50 51 55 60 63 63 61 59
21 24 22 23 25 25 25 21 19 22 22 9 14 19 30 37 34 30 29 41 57 69 67 64 66 68 63 68 73 70 63 57 53 47 47 49 52 54 56 59 61 65 66 67
23 27 25 25 26 27 27 26 24 20 18 23 9 14 26 30 25 27 28 32 47 58 64 63 64 70 64 49 49 63 74 79 68 63 56 55 56 56 60 62 67 68 66 69
29 30 31 28 24 23 22 21 23 20 17 16 21 13 10 21 26 28 27 27 39 46 54 61 61 60 63 54 46 49 56 65 65 58 56 58 61 61 61 35 40 68 69 64
25 21 24 22 15 19 25 22 17 18 17 15 15 17 17 7 22 32 33 34 40 45 51 53 54 54 56 58 56 57 60 61 60 54 51 54 68 66 66 62 57 46 57 54
16 19 16 20 25 25 29 25 19 17 14 14 16 16 16 15 4 15 32 36 32 45 51 56 58 57 57 54 58 57 63 66 63 62 59 54 37 52 55 44 43 40 52 59
23 21 18 22 26 31 26 18 19 19 17 15 12 16 14 15 15 4 10 16 29 32 40 44 48 56 54 55 52 59 62 67 72 71 68 75 70 50 46 39 40 38 40 31
23 16 20 23 26 29 24 20 16 15 15 15 12 15 14 12 12 16 5 8 11 19 26 35 37 47 54 50 63 55 56 63 68 67 68 65 66 70 64 64 52 50 44 41
19 22 26 26 24 22 25 18 17 18 18 14 13 13 12 11 11 11 13 9 2 8 18 25 31 45 45 59 53 56 55 59 66 59 69 67 61 57 55 52 55 55 55 51
30 28 32 22 17 15 16 17 19 23 22 15 10 11 12 12 9 9 10 9 9 6 11 23 23 23 32 54 53 35 25 45 53 56 73 63 65 60 57 54 55 50 48 51
23 19 20 23 17 24 17 15 13 19 16 19 16 11 11 8 11 10 9 10 10 8 8 8 13 18 19 17 21 26 32 29 33 45 38 51 59 57 59 60 53 53 51 48

GFSNGP_500_spd_072.txt.gz
Wind_Speed
40 42 42 43 42 41 41 41 42 44 43 44 42 39 36 39 41 40 38 37 36 42 41 45 43 40 38 39 36 34 32 31 33 36 36 37 35 34 33 31 30 29 28 26
33 38 40 42 41 42 43 44 44 46 46 46 46 43 40 37 47 45 44 43 41 43 42 43 40 42 39 38 41 40 36 34 35 35 39 39 39 39 38 36 35 33 32 31
24 27 31 34 39 42 44 46 46 48 49 50 49 49 46 43 45 53 50 51 49 46 49 45 43 43 39 40 45 48 46 42 39 38 37 38 43 44 42 40 39 36 36 34
21 23 27 29 29 32 35 40 47 52 52 55 55 53 52 50 47 49 57 58 56 53 50 54 49 47 46 50 46 55 54 50 45 41 38 39 40 43 46 45 43 40 39 37
27 28 30 30 31 33 34 37 41 45 52 60 62 59 57 56 54 52 54 59 62 57 57 56 56 51 49 52 48 52 57 56 52 46 42 40 39 40 45 49 48 46 44 43
34 33 33 33 30 31 34 36 40 46 52 53 59 64 66 65 62 61 59 57 64 64 60 61 59 55 52 54 49 43 43 53 60 54 53 50 46 44 45 46 48 50 47 46
28 29 26 24 25 27 31 35 37 44 55 60 62 64 64 67 69 67 66 65 64 67 68 63 60 59 54 56 56 47 42 47 51 61 59 51 49 47 45 45 45 45 46 47
26 24 24 21 25 29 33 32 32 33 47 61 66 67 69 69 69 70 72 72 69 68 71 71 68 62 61 58 57 49 47 42 47 57 55 52 49 47 45 44 44 41 42 44
18 19 22 25 30 35 35 35 35 34 31 35 44 58 70 74 75 71 72 75 77 73 70 72 72 69 67 65 60 56 53 50 52 55 56 55 52 47 45 46 44 40 39 39
15 19 24 26 29 32 33 36 36 36 33 34 38 43 46 54 63 73 77 76 80 81 77 72 74 71 68 71 67 64 61 57 58 62 64 60 57 54 53 48 42 39 39 35
7 10 12 12 15 15 16 21 27 31 32 34 39 42 43 45 48 54 64 76 81 83 83 77 75 76 73 74 73 71 66 57 61 67 65 61 62 67 57 53 46 42 41 40
16 17 19 18 17 17 20 21 21 20 23 27 31 35 39 43 45 48 47 54 69 83 86 85 79 80 81 78 80 77 66 74 65 58 72 65 68 58 56 50 52 49 48 47
26 25 26 26 27 27 25 23 23 22 23 27 28 30 33 37 41 42 46 48 52 60 85 89 89 84 84 86 82 83 82 69 68 65 58 57 50 49 52 44 56 59 56 51
31 29 30 31 32 31 27 26 26 23 23 24 25 29 28 24 27 34 39 42 49 52 55 87 92 90 87 89 90 87 87 79 72 60 57 64 56 50 52 38 57 59 60 59
30 33 34 32 31 28 24 21 23 23 21 23 26 30 33 28 22 26 29 33 38 44 56 62 88 93 90 88 93 93 91 89 81 79 74 72 64 55 45 40 45 51 63 65
30 31 31 32 28 24 21 21 23 26 29 30 31 34 39 35 26 23 28 31 34 36 39 53 62 83 92 90 88 97 97 93 89 78 74 72 67 63 56 55 54 58 57 58
25 25 27 28 28 26 24 25 29 30 31 33 36 37 35 34 32 25 24 25 25 29 33 38 43 65 77 87 90 90 99 99 93 90 82 85 68 68 66 58 55 56 59 67
20 23 25 24 26 26 27 28 31 33 34 32 32 34 33 28 27 30 26 27 27 27 26 30 30 40 62 75 86 89 89 99 101 94 92 93 85 79 71 66 58 58 62 64
22 23 23 22 28 29 30 31 31 32 30 22 24 30 30 28 23 25 25 28 26 32 33 33 32 27 34 64 75 83 88 87 96 101 95 87 82 83 82 74 66 65 64 63
27 30 31 33 31 28 27 25 25 23 26 27 31 32 30 26 23 24 22 23 27 27 33 41 36 39 37 34 58 71 81 88 86 86 94 89 85 77 80 68 70 62 61 61
25 22 23 25 26 28 27 27 27 26 26 26 28 31 30 27 24 22 23 20 21 24 26 34 34 29 33 41 35 53 65 78 85 82 75 81 89 85 85 70 70 72 65 62
25 26 25 27 24 27 27 29 30 26 22 25 27 28 28 25 21 20 22 18 16 19 20 25 34 37 36 38 42 38 55 65 75 79 78 74 72 78 83 85 76 66 64 66
28 25 28 26 23 31 32 29 26 22 21 22 25 25 25 23 19 18 20 19 16 14 17 16 14 13 17 28 34 33 40 52 63 68 71 72 74 71 71 79 81 71 67 68
30 28 28 33 29 30 29 29 23 20 20 21 20 17 16 16 17 15 16 18 18 9 9 16 11 10 8 13 24 34 35 42 51 61 63 62 63 64 64 58 72 92 86 84
29 24 27 34 27 24 18 12 17 17 16 11 8 6 9 15 17 15 14 13 15 14 7 5 11 6 10 19 17 27 28 36 46 52 54 53 54 51 50 40 45 50 72 65
30 25 25 22 20 23 15 17 16 15 12 10 11 12 15 19 21 18 14 12 12 15 12 5 8 9 6 9 15 23 27 32 39 43 48 52 54 55 50 52 53 44 45 54
23 21 21 21 22 18 17 12 17 18 14 13 14 14 18 21 18 20 15 13 12 12 13 11 2 12 11 11 13 15 20 30 33 39 45 46 50 54 58 57 53 41 51 59

GFSNGP_500_spd_075.txt.gz
Wind_Speed
36 38 39 40 39 40 40 41 41 41 40 38 37 36 35 36 35 35 35 36 36 36 40 38 35 34 35 35 34 30 30 35 37 34 34 34 34 33 32 31 30 29 27 26
39 39 39 39 39 39 39 40 42 42 40 40 39 39 39 39 38 39 38 38 36 37 37 45 43 41 40 39 36 36 42 36 34 35 37 36 37 36 35 33 34 34 31 29
34 35 35 35 35 36 38 38 39 40 40 40 40 40 40 40 43 44 43 43 43 42 41 45 48 48 45 44 45 46 51 43 35 35 35 37 40 40 38 37 36 35 35 34
30 32 35 34 35 37 39 41 41 41 42 42 41 41 42 42 42 44 47 48 48 46 46 47 49 50 49 48 47 48 43 41 41 41 40 39 39 39 42 42 40 39 38 37
27 29 31 31 30 31 32 34 37 40 44 46 47 47 47 47 48 48 48 51 54 54 52 52 52 53 54 53 49 47 48 42 47 47 48 45 42 41 41 43 44 43 42 40
30 30 30 30 31 32 32 33 34 36 38 40 42 46 51 54 54 55 55 54 56 63 61 59 58 58 57 57 58 57 53 51 48 54 56 55 50 45 43 42 43 45 46 44
34 36 37 36 35 34 35 34 37 39 40 42 44 47 50 54 56 57 60 62 61 62 65 71 67 65 64 61 61 63 61 58 55 55 58 60 57 55 50 44 44 43 44 45
29 32 35 35 34 35 33 34 35 37 39 42 47 50 52 57 60 62 63 63 66 67 67 67 72 75 72 67 64 64 65 63 60 58 51 61 61 60 58 53 50 46 44 47
24 25 27 30 32 31 32 33 33 35 36 37 37 39 43 45 59 67 69 70 71 71 72 73 73 72 78 76 71 69 67 66 65 62 58 53 51 57 61 60 57 50 48 47
16 17 20 22 24 26 28 32 36 39 41 41 42 42 40 40 40 44 64 78 77 78 77 75 77 78 76 80 79 75 73 69 67 65 56 53 47 48 55 62 56 49 48 45
7 8 10 11 13 15 17 17 19 20 21 26 27 31 36 40 42 44 46 51 69 84 84 83 81 80 82 81 82 82 79 76 72 67 60 57 53 53 56 63 55 53 51 47
18 17 15 15 17 18 19 20 21 23 22 20 20 22 25 27 30 35 43 49 53 54 76 90 88 85 83 85 85 82 84 82 76 72 67 61 58 56 52 60 61 62 57 52
25 28 27 26 25 27 29 29 29 30 31 30 30 29 30 31 33 35 33 37 46 52 53 62 86 94 90 87 87 87 85 86 85 79 75 70 66 63 64 61 66 64 58 53
30 30 32 31 30 31 32 32 33 33 33 34 32 32 32 32 34 35 35 33 36 44 51 51 59 73 94 96 90 88 89 88 89 89 84 79 73 66 66 58 69 71 56 61
31 30 32 34 31 31 34 35 33 32 31 30 29 31 32 34 34 35 35 35 34 40 44 49 49 55 67 85 96 93 89 91 91 90 91 87 82 76 69 63 59 57 67 65
42 37 29 29 34 35 34 32 32 32 33 33 33 33 35 37 40 43 44 41 40 37 41 42 45 49 54 64 76 89 92 91 94 96 96 92 88 82 78 76 70 66 65 56
28 29 28 27 33 30 30 30 32 34 34 35 34 36 38 41 42 46 42 41 38 38 37 41 43 46 47 51 61 70 81 92 93 96 98 98 94 90 80 74 71 56 60 50
16 17 21 23 24 28 30 30 29 28 30 33 36 40 39 37 33 32 33 34 36 34 34 36 37 39 42 47 50 60 71 77 91 95 98 99 97 96 92 81 76 58 58 57
19 20 22 20 23 28 31 31 32 34 36 36 36 37 35 35 35 34 32 32 33 33 34 31 34 39 38 38 43 48 51 67 76 90 96 98 100 98 95 93 87 83 67 70
18 21 24 26 30 34 35 32 33 32 30 30 30 30 30 30 30 30 31 31 30 29 31 32 31 36 42 42 42 41 36 43 61 75 87 95 99 100 99 93 88 85 80 73
20 21 22 23 27 30 27 27 29 31 31 31 31 32 30 31 34 31 29 29 29 26 27 32 33 32 36 42 46 44 43 42 37 55 75 83 94 98 99 94 89 82 84 75
27 27 28 27 28 32 32 30 29 32 30 33 32 30 31 30 31 30 29 28 27 25 23 28 31 31 29 31 36 36 38 38 38 35 54 74 82 91 95 94 91 86 88 85
29 30 32 32 29 27 31 32 30 30 35 36 29 26 26 27 27 27 26 26 24 23 22 23 30 29 24 25 27 35 40 41 39 37 39 54 72 80 86 86 86 87 89 88
32 33 33 28 27 29 35 34 35 32 33 29 26 23 18 19 19 16 18 21 23 24 23 17 21 27 23 22 24 25 25 26 28 34 34 34 57 67 74 78 77 73 72 78
33 33 30 25 22 23 27 29 31 28 26 23 21 19 17 18 17 20 20 22 21 21 21 16 13 20 21 21 17 12 19 21 23 25 24 29 31 53 49 44 67 69 63 61
31 27 23 27 24 33 31 26 19 24 24 16 20 21 19 18 18 20 23 25 23 19 17 17 10 10 17 18 16 18 15 21 28 29 32 31 47 34 33 41 56 57 58 58
31 16 13 11 18 15 21 18 15 15 17 18 16 19 21 21 24 26 26 24 23 20 15 15 11 2 11 15 12 9 20 21 13 35 34 25 18 24 42 43 42 43 46 40

GFSNGP_500_spd_078.txt.gz
Wind_Speed
35 37 37 38 41 44 45 45 42 37 42 38 34 34 32 34 38 41 39 40 38 36 32 29 27 27 26 31 34 33 30 31 33 36 38 37 35 32 31 30 29 29 28 26
38 40 40 41 41 42 45 46 47 48 42 40 40 39 38 38 38 40 44 46 45 42 42 40 39 37 32 33 36 37 33 32 34 37 36 37 39 40 38 34 31 31 30 29
37 39 40 41 43 43 42 43 45 44 46 43 43 43 42 41 41 42 43 43 44 45 46 46 45 42 43 41 37 37 38 35 36 35 30 34 39 39 40 39 37 35 33 32
41 34 35 39 37 39 41 43 43 44 41 42 43 44 44 45 45 46 45 46 47 47 46 45 44 44 43 44 45 42 41 41 40 39 39 43 38 42 42 41 41 39 37 35
29 31 37 38 38 39 39 41 41 43 42 42 43 43 45 46 47 49 49 50 50 50 51 50 49 47 47 46 48 49 49 47 47 46 46 51 45 43 42 41 41 42 40 38
30 31 32 34 31 35 37 42 41 42 43 43 43 44 50 48 49 51 51 53 53 54 55 54 54 53 52 52 51 53 54 52 51 52 52 43 40 40 46 43 40 40 40 40
29 30 33 31 33 33 34 38 35 37 38 38 40 41 44 40 46 48 52 55 55 56 57 59 60 59 59 58 58 58 60 59 57 55 51 51 46 41 42 45 46 44 43 41
28 32 36 35 35 38 38 37 37 38 38 39 39 40 44 43 45 47 48 50 54 58 61 62 64 65 65 64 63 63 63 62 65 61 57 57 53 47 42 44 48 50 48 46
27 29 31 35 38 40 41 41 41 40 41 42 42 43 45 47 49 52 53 55 56 58 59 63 65 68 70 71 71 69 69 69 66 66 67 65 63 60 57 56 55 55 56 51
21 25 27 29 31 34 38 39 39 39 39 40 42 43 42 41 44 46 48 51 56 60 64 67 69 70 71 74 77 77 76 74 73 72 71 69 69 67 63 62 56 55 52 54
11 15 20 22 25 27 29 30 32 33 35 37 41 43 44 46 46 48 48 50 50 51 52 56 63 74 78 77 77 81 81 81 81 80 77 73 73 72 70 68 63 61 60 56
19 17 16 17 19 22 23 24 26 27 27 27 29 30 32 34 36 38 39 41 44 43 43 50 55 58 66 82 84 83 83 86 86 85 83 81 77 75 74 72 65 59 59 60
28 25 24 26 25 25 25 25 26 27 28 30 31 31 31 31 31 30 28 28 30 33 37 38 39 52 59 63 75 91 89 87 88 89 88 87 84 80 77 74 70 64 63 60
30 29 30 32 31 32 34 34 34 36 37 37 37 38 36 38 41 40 40 39 39 42 44 47 46 44 49 60 62 66 83 95 92 89 92 92 91 87 82 80 75 68 67 63
27 31 30 32 34 33 33 36 38 39 39 41 41 40 41 41 41 42 43 43 44 46 49 49 51 52 51 51 58 61 58 68 92 98 93 94 95 94 90 85 82 75 70 69
25 27 32 35 36 35 34 36 36 36 37 38 41 42 41 40 41 43 44 43 46 51 52 53 56 57 57 53 55 59 62 61 62 86 101 98 95 98 96 92 88 82 75 71
23 24 27 30 33 31 35 36 36 36 36 38 39 40 41 41 43 44 43 44 51 55 55 50 52 52 53 52 52 58 59 59 63 62 83 101 101 96 98 98 95 90 82 77
24 25 20 27 27 24 23 26 28 28 32 34 38 39 41 42 42 44 45 48 51 52 50 48 48 51 50 48 48 54 59 59 59 62 62 78 97 102 97 98 99 97 92 84
20 22 26 28 29 26 27 29 29 32 35 37 39 40 42 44 42 42 42 43 43 44 44 45 44 47 46 46 45 48 54 55 53 55 60 60 79 96 102 97 98 99 98 94
18 18 19 21 24 26 30 31 33 35 38 40 43 41 37 36 36 38 40 40 38 40 42 43 43 45 41 43 41 43 48 51 53 50 52 57 58 77 94 101 98 97 99 97
20 22 22 22 23 24 25 26 28 32 33 33 32 32 32 32 34 36 37 37 36 35 37 38 38 40 39 40 40 39 41 44 47 49 49 43 47 52 65 91 99 98 97 99
25 26 25 27 27 29 30 30 31 34 37 34 34 31 28 33 33 32 30 33 34 36 35 34 33 36 38 38 34 35 36 36 39 44 50 52 49 47 50 61 88 98 96 96
25 28 31 31 30 30 32 34 35 34 30 31 33 33 29 31 33 29 30 27 30 31 33 33 30 30 33 39 31 29 29 33 36 41 46 46 46 43 44 53 62 85 94 94
31 33 34 34 33 33 33 31 29 32 37 29 25 29 33 33 29 30 27 25 29 29 31 31 29 27 29 37 29 26 26 29 29 28 32 40 43 43 42 45 53 63 81 90
33 33 31 28 28 29 26 21 29 34 25 28 27 27 30 33 28 27 25 25 28 33 33 31 26 25 25 27 27 23 24 24 23 26 27 28 28 30 34 29 37 47 62 78
31 21 19 20 20 24 21 28 20 17 17 20 24 24 22 22 24 25 22 26 29 34 33 32 27 25 20 17 23 23 23 21 23 21 19 17 28 24 29 34 22 28 37 56
24 18 24 19 9 2 14 13 14 10 15 20 19 16 18 20 22 24 23 27 30 36 30 30 24 22 20 11 16 21 20 22 23 22 21 24 21 26 25 23 29 29 34 40

GFSNGP_500_spd_081.txt.gz
Wind_Speed
35 35 30 37 44 45 43 33 29 32 45 45 39 33 34 35 36 34 33 33 32 32 30 32 35 29 25 27 27 28 26 26 28 28 29 32 29 28 26 24 24 24 24 24
37 38 41 42 43 47 46 49 38 36 42 46 42 32 34 36 39 41 40 40 39 36 30 37 24 22 21 21 23 28 28 29 29 28 28 30 34 34 31 29 28 27 27 27
25 39 40 42 43 42 47 47 45 37 53 39 39 45 38 38 38 41 45 46 45 44 40 38 37 34 34 32 30 27 27 32 33 34 31 30 32 34 36 36 36 33 31 31
26 38 41 37 42 43 46 49 50 54 56 49 47 42 41 43 43 43 44 46 49 49 47 44 44 43 43 42 39 39 37 34 33 36 35 34 32 31 33 34 35 37 37 36
39 38 34 44 41 41 41 46 43 50 52 49 46 46 47 47 45 45 47 47 49 49 50 50 49 49 50 48 46 45 43 42 40 37 38 38 37 36 33 35 34 35 38 39
25 30 26 37 47 39 36 43 42 46 47 44 46 47 51 46 47 47 48 49 50 50 51 52 52 52 51 50 49 46 47 46 46 45 44 43 43 44 41 42 41 45 41 39
26 29 34 34 28 30 38 44 46 45 47 45 48 52 51 49 50 50 50 51 51 52 53 53 53 54 54 54 53 52 50 50 49 50 51 49 47 47 50 46 50 50 44 38
25 27 31 33 27 31 34 36 42 41 44 44 46 45 50 50 49 52 55 55 56 56 57 56 57 57 58 58 57 56 56 56 54 54 54 55 54 54 51 50 47 50 48 47
28 32 29 33 31 33 35 37 38 38 38 39 39 40 43 44 42 46 50 53 55 56 58 60 60 60 61 62 62 62 62 61 61 61 60 60 60 58 57 57 53 49 50 44
21 29 31 35 35 37 39 41 43 43 43 44 43 43 43 45 44 44 45 46 48 50 52 54 56 60 62 62 66 67 66 67 67 67 67 67 66 64 63 62 60 59 53 50
18 18 20 27 32 35 38 41 44 46 48 47 47 46 46 47 47 47 48 48 49 50 52 55 57 59 61 63 65 66 69 72 72 73 74 74 73 73 70 69 69 65 63 61
26 24 23 22 22 28 32 35 37 39 42 44 45 45 45 47 49 49 50 51 49 49 49 49 51 54 58 62 64 68 72 73 75 77 79 80 79 79 78 75 75 73 70 67
31 28 29 29 25 23 25 28 31 32 34 36 37 38 39 40 42 43 45 48 51 52 52 51 53 53 51 55 61 64 67 71 75 79 82 83 85 85 84 83 80 78 77 74
32 31 32 34 34 34 32 30 30 31 31 33 35 37 37 36 37 37 38 39 41 42 42 42 41 42 46 47 47 53 61 68 68 70 74 82 89 90 90 90 88 84 83 80
30 32 35 36 38 37 36 39 40 40 40 41 41 42 42 43 42 42 44 45 46 47 49 49 50 52 54 55 55 55 54 56 61 68 73 73 76 86 93 94 92 92 89 85
27 31 31 31 31 34 35 36 40 43 43 42 44 46 47 46 46 47 49 49 50 51 53 54 56 58 61 61 60 60 63 65 66 65 69 71 73 75 78 91 98 97 95 92
23 25 27 29 30 30 30 35 39 42 44 44 43 45 47 47 48 48 47 46 48 50 52 54 55 58 61 63 66 65 65 68 70 74 70 72 72 75 75 71 80 97 99 96
24 24 25 28 28 28 29 33 36 37 37 43 48 47 47 45 45 43 44 43 43 45 48 51 54 58 62 66 69 70 70 74 76 71 75 71 72 72 77 75 67 70 90 102
20 21 22 24 24 25 28 33 34 34 31 31 32 34 35 37 39 38 38 41 44 47 49 51 53 55 56 58 59 59 61 62 64 66 68 67 67 70 73 72 75 65 65 84
21 21 22 23 23 25 27 28 31 31 32 33 34 35 36 36 38 39 41 40 40 41 43 46 49 51 53 55 60 64 65 63 61 59 58 60 59 61 66 70 68 67 63 63
22 23 24 26 27 27 28 28 29 29 29 32 32 30 32 32 32 31 33 38 40 43 42 39 38 43 48 54 56 56 56 54 53 52 53 52 53 57 60 63 67 67 63 64
22 24 26 29 30 33 34 34 35 35 34 34 33 32 35 35 34 34 33 32 35 35 33 34 34 35 39 39 40 43 45 45 47 45 46 47 48 49 53 56 61 57 58 56
26 28 31 33 34 35 37 39 40 41 39 38 35 33 35 32 30 34 37 36 36 35 34 35 36 39 44 45 42 41 42 38 37 37 37 37 40 43 45 49 50 51 53 49
26 30 32 34 36 38 39 38 41 41 42 39 37 37 35 30 30 29 29 32 35 34 35 36 39 42 47 45 44 36 40 32 27 26 27 31 33 36 40 39 45 50 53 52
29 27 27 27 27 26 28 32 34 33 31 30 26 34 31 30 28 28 29 32 34 33 35 35 39 41 43 42 40 33 35 31 22 23 23 25 26 30 32 37 40 40 48 51
29 25 23 22 21 16 18 16 17 24 22 31 31 24 22 22 27 35 36 31 29 29 33 37 37 39 40 38 34 29 30 32 24 19 24 19 23 24 29 27 32 32 36 43
29 27 22 18 20 22 8 3 4 10 16 9 19 25 32 32 25 23 26 27 27 29 32 35 38 43 35 31 29 24 22 26 26 20 22 21 20 23 29 30 27 30 35 37

GFSNGP_500_spd_084.txt.gz
Wind_Speed
24 16 23 41 46 37 50 41 32 30 36 27 29 26 23 25 33 38 38 36 31 29 31 33 37 35 39 36 31 29 28 24 22 21 20 24 25 24 22 20 20 22 23 22
16 18 28 23 32 36 45 45 26 23 35 42 41 37 34 28 31 36 38 39 36 35 36 37 34 42 41 32 28 32 32 29 27 20 20 22 23 26 25 23 22 22 23 25
35 31 35 38 39 46 46 47 33 29 39 46 38 42 42 39 33 39 42 43 43 41 42 45 38 36 30 28 28 32 34 34 30 25 23 23 24 25 25 28 28 24 23 23
29 18 37 32 40 42 41 44 40 38 51 41 38 37 41 44 41 40 44 45 45 46 45 44 41 36 37 39 20 20 22 17 21 24 24 26 27 25 24 25 26 28 29 30
38 21 18 40 39 30 30 29 44 54 52 58 58 51 42 34 41 43 40 43 46 47 47 47 45 40 38 38 42 39 36 33 30 28 27 27 29 31 29 26 26 26 27 27
41 40 26 24 42 43 38 27 44 47 56 59 56 53 51 47 46 43 44 46 47 47 47 47 49 48 44 44 44 45 45 43 41 38 36 36 35 34 35 33 30 31 29 28
25 35 38 32 30 34 37 31 43 43 47 52 55 55 52 47 48 49 49 49 50 50 51 50 50 50 50 48 46 47 47 47 46 44 43 43 42 40 40 39 38 36 38 38
21 22 25 41 36 35 37 41 48 48 47 52 47 48 50 50 47 47 49 49 50 51 51 52 51 52 52 52 50 49 48 48 49 49 49 47 45 46 45 48 46 44 44 45
29 32 32 35 32 31 29 30 33 37 43 44 42 46 49 51 51 51 50 49 52 53 53 53 53 53 54 53 53 52 52 51 51 51 51 52 52 51 50 50 51 52 51 49
29 31 32 33 27 26 32 34 36 38 39 39 39 40 48 50 49 51 50 49 52 53 55 56 56 56 57 57 57 57 57 58 57 57 58 57 57 57 55 57 55 54 53 52
22 26 27 30 34 34 34 36 36 39 41 41 41 40 41 44 44 43 46 46 48 49 51 52 53 53 55 57 57 58 58 59 61 64 64 64 63 63 62 62 62 62 60 59
29 30 26 25 23 24 27 34 37 37 40 42 45 44 45 45 47 47 45 46 47 49 49 50 51 52 53 53 53 55 57 58 61 63 65 68 69 70 69 68 68 68 68 68
33 35 30 30 28 28 27 26 27 32 36 39 41 41 45 47 49 50 49 49 50 50 50 51 52 53 54 55 55 56 56 57 59 62 65 68 70 72 73 74 76 75 75 74
32 35 33 34 36 34 33 32 30 29 29 33 36 37 40 41 41 44 44 44 46 46 46 47 49 52 54 56 58 58 58 59 59 60 62 64 67 70 73 75 76 78 80 81
34 36 37 37 38 40 38 37 35 36 34 33 34 34 36 37 37 41 41 42 42 43 44 43 42 42 45 48 51 52 52 53 53 56 59 62 65 67 69 72 76 77 79 82
35 31 30 35 37 38 38 41 42 43 45 43 43 41 41 41 42 44 45 46 47 47 47 48 49 48 49 51 53 56 56 58 60 63 64 64 66 68 71 73 73 75 77 79
19 23 25 26 30 36 38 37 38 41 43 42 43 43 46 47 48 48 49 50 51 51 52 53 54 55 56 56 56 59 63 66 67 68 71 72 74 75 76 77 79 79 78 78
18 22 26 26 25 28 30 31 35 35 37 39 40 41 42 46 50 50 49 50 51 54 55 56 58 57 59 61 63 63 63 64 67 69 71 73 75 77 79 82 84 85 86 85
22 23 24 24 26 28 29 31 33 32 34 37 40 42 44 43 50 52 50 53 54 55 53 53 51 53 56 57 59 62 64 65 69 73 76 78 80 81 82 84 87 90 93 93
22 24 25 26 27 28 28 29 29 33 37 41 42 39 35 35 36 36 37 39 41 42 45 46 48 51 52 53 52 52 55 58 63 69 71 75 78 79 80 82 82 80 80 81
20 23 24 25 27 28 29 30 30 31 34 35 36 33 34 34 34 35 35 33 35 35 38 40 42 44 45 46 48 50 51 55 59 62 64 64 64 65 65 64 62 64 69 68
23 23 25 27 29 30 32 33 30 33 34 35 37 30 36 34 31 31 32 32 35 33 34 34 34 38 40 42 45 49 52 52 57 59 60 58 55 57 54 53 55 57 57 56
21 20 24 28 33 36 38 40 39 40 33 37 33 37 39 36 34 34 43 35 37 35 37 38 38 39 43 47 46 47 47 50 55 55 55 47 46 47 47 46 46 47 52 57
21 23 28 27 26 30 31 35 41 45 48 49 46 45 41 36 32 28 39 36 35 35 34 32 33 34 37 41 45 45 51 56 51 46 46 39 38 37 39 41 42 43 45 45
23 24 27 25 25 23 30 24 26 30 33 40 45 43 41 37 32 53 44 49 35 33 35 33 34 35 35 36 41 45 53 50 43 41 41 30 30 33 34 34 30 29 31 33
24 24 27 26 22 20 26 18 8 10 13 18 23 31 34 36 39 37 37 34 35 34 36 36 37 35 33 33 39 44 45 41 38 38 38 27 23 28 25 26 30 28 29 26
24 25 24 26 25 18 17 13 12 7 4 11 5 18 20 21 20 23 26 32 33 29 28 31 33 31 31 36 39 44 45 36 33 31 34 29 22 22 23 20 20 25 32 32

GFSNGP_500_spd_087.txt.gz
Wind_Speed
47 45 43 39 44 42 43 48 42 45 40 36 29 23 26 22 28 28 29 30 29 26 26 21 23 27 32 23 28 40 26 21 24 28 31 30 26 26 23 20 19 18 18 19
42 35 38 34 38 44 46 46 46 47 39 17 27 24 28 27 24 23 25 29 32 33 31 28 26 27 33 29 31 25 27 24 28 23 36 28 26 27 26 24 22 20 20 20
39 30 28 25 22 37 35 42 54 53 49 38 21 23 25 27 25 22 23 27 30 33 33 34 32 31 32 31 28 32 35 29 25 23 29 19 20 21 27 28 25 23 21 20
23 37 32 41 34 44 34 37 57 55 57 50 33 26 27 28 30 29 27 26 30 33 34 33 33 34 34 32 33 29 37 38 32 32 24 26 26 26 23 25 25 26 26 24
27 29 33 31 35 40 37 30 47 53 58 54 36 34 29 29 31 32 33 34 32 34 39 40 39 39 39 39 35 34 30 26 22 13 23 23 20 16 21 23 24 24 27 29
30 32 37 34 37 36 25 34 39 50 56 58 56 43 40 34 27 23 28 32 39 35 38 41 43 42 41 38 37 36 36 40 44 31 28 26 26 25 25 27 26 26 26 26
43 34 38 38 43 37 30 32 37 40 47 55 60 58 57 54 46 43 43 43 42 39 41 43 44 43 42 39 39 38 38 39 42 39 33 36 36 34 33 32 32 32 32 31
29 54 51 59 48 33 31 37 47 48 47 48 54 57 57 57 58 54 52 51 51 50 48 47 48 49 47 45 44 42 41 40 40 40 40 38 38 36 36 37 38 38 37 39
22 24 30 41 50 52 31 38 41 44 47 45 45 46 44 48 50 51 51 50 53 53 52 50 50 50 50 48 47 45 43 43 43 44 45 44 43 44 42 42 41 41 40 41
21 24 27 26 26 28 44 43 38 39 42 45 47 46 47 48 49 49 48 49 51 52 52 50 50 49 49 49 49 49 48 47 46 46 47 47 47 47 47 46 46 46 46 46
22 26 30 29 29 27 29 32 34 39 41 42 38 39 39 40 43 46 46 48 50 51 52 51 53 52 52 52 51 51 51 51 52 52 52 52 52 52 52 53 53 52 51 52
28 29 30 28 24 22 26 31 34 36 37 41 42 41 38 38 42 41 40 43 44 46 48 49 50 51 51 51 52 53 53 53 52 53 54 54 54 55 56 57 59 60 60 59
32 34 34 34 32 29 27 27 27 27 32 36 41 41 41 41 44 45 44 44 44 44 46 46 46 48 49 50 50 50 51 52 53 52 52 53 54 54 55 57 58 58 60 62
29 33 35 37 39 37 36 33 33 33 32 30 30 34 37 38 41 43 45 46 46 47 48 49 49 49 50 51 51 52 52 53 54 53 54 54 54 55 57 56 57 60 62 63
29 31 31 34 38 40 38 38 37 38 38 36 35 34 34 33 34 37 40 41 41 41 42 44 46 48 50 50 51 51 52 53 55 56 57 58 58 59 61 62 62 61 62 64
20 27 34 37 35 38 42 41 40 39 43 43 41 39 39 38 36 36 37 38 38 39 40 40 40 41 43 45 46 47 47 47 49 50 51 52 55 57 59 61 64 66 66 68
17 18 19 21 29 36 37 36 36 40 40 41 43 43 44 46 47 45 43 43 42 43 44 44 46 47 47 49 50 50 52 53 55 58 58 59 59 61 64 66 67 70 72 73
20 19 19 19 23 25 26 28 30 31 34 38 40 41 43 42 44 47 48 48 50 52 52 52 53 53 53 54 54 54 56 57 59 61 64 67 68 69 70 71 72 73 75 78
18 21 22 22 23 23 25 27 29 32 33 33 35 37 40 40 39 41 44 46 48 50 51 53 54 55 55 56 55 56 58 59 61 63 66 68 69 72 75 77 79 81 82 83
20 21 21 22 25 26 27 28 29 30 31 32 35 38 40 40 37 37 38 41 41 44 42 44 46 48 48 49 51 53 55 57 58 60 63 65 65 68 73 76 79 82 84 87
19 20 21 22 23 25 27 29 31 31 31 32 33 34 37 39 39 38 38 37 38 40 39 39 41 43 46 47 46 46 47 46 46 48 52 55 61 67 72 76 79 80 82 85
23 24 18 17 20 23 26 31 34 36 38 39 38 37 39 39 33 32 34 32 33 33 35 37 37 36 37 37 38 39 40 41 44 48 53 58 58 61 67 71 71 70 70 66
21 23 21 21 23 26 27 29 35 40 42 43 44 44 36 38 34 34 37 35 35 34 35 40 39 34 36 37 38 40 41 42 45 48 52 53 60 65 57 53 53 54 53 53
22 24 24 23 23 24 25 26 26 35 37 39 43 49 43 28 35 37 33 30 31 33 37 41 39 38 36 36 36 37 40 41 44 48 50 55 65 55 49 44 45 49 48 47
22 23 23 23 23 23 24 21 22 23 18 22 31 40 46 49 47 43 41 36 35 40 40 45 40 40 38 37 39 39 38 41 45 44 50 61 56 51 43 36 39 40 43 44
21 22 23 25 26 26 24 21 18 17 15 13 12 16 22 28 36 40 41 39 38 33 39 40 35 35 33 35 37 37 39 38 39 46 54 50 48 48 41 28 31 35 34 35
21 22 24 26 28 28 26 21 21 16 12 8 4 7 8 11 17 19 25 30 30 37 42 38 36 35 30 31 35 34 37 41 42 44 46 40 44 41 39 32 28 26 27 27

GFSNGP_500_spd_090.txt.gz
Wind_Speed
43 46 47 49 49 50 51 54 53 50 50 43 37 37 26 25 25 22 21 22 21 22 22 20 21 21 15 14 24 17 22 23 25 28 29 28 27 27 26 25 25 23 21 22
39 46 49 47 48 49 46 46 49 54 55 47 40 33 30 21 21 21 24 25 25 25 26 24 21 19 15 23 23 26 23 21 32 30 27 27 28 32 31 33 30 28 26 25
46 45 49 46 38 44 43 45 49 54 60 53 43 30 23 24 22 21 22 24 23 23 26 27 26 23 21 18 22 31 27 22 27 25 24 30 27 35 37 39 30 28 28 27
32 50 48 42 38 37 43 43 44 48 51 59 51 34 21 27 26 23 22 20 21 23 23 23 24 23 24 26 27 25 22 21 20 35 30 31 27 33 37 41 34 31 30 28
38 42 47 43 42 37 40 43 49 46 44 54 56 44 35 26 27 29 28 27 27 26 25 26 27 27 28 28 28 25 24 22 23 30 34 37 25 23 30 25 33 36 34 32
32 27 46 45 36 36 42 39 48 52 55 53 47 46 39 33 33 35 32 31 32 35 35 34 32 31 31 32 33 32 27 27 30 30 29 39 18 29 18 18 28 27 26 26
28 34 35 40 41 46 45 44 43 42 40 41 48 51 40 33 35 40 34 28 28 30 31 31 30 33 32 33 35 34 34 33 33 33 30 31 35 27 27 21 23 23 24 24
24 33 35 38 33 32 36 40 41 42 40 36 40 44 47 42 41 40 40 39 38 37 40 40 39 38 36 37 38 39 39 39 37 34 32 30 28 28 30 32 32 33 34 30
16 18 35 42 34 26 41 40 38 40 43 40 42 40 40 39 37 41 39 40 43 46 48 48 47 47 46 45 44 43 43 41 40 39 38 38 37 35 35 35 36 37 40 40
18 19 22 22 23 42 40 31 40 47 48 47 47 53 50 45 44 45 46 48 52 55 54 54 52 51 50 49 47 46 45 45 44 43 42 42 42 41 39 38 40 40 40 40
17 21 23 24 22 21 26 36 47 49 49 45 49 48 49 45 46 47 47 49 49 46 46 47 49 48 48 48 48 47 46 46 45 45 45 45 46 46 46 44 41 44 46 45
25 25 23 20 21 23 25 28 31 35 37 42 50 47 46 45 41 38 40 42 44 45 47 48 48 47 47 47 48 48 48 47 47 48 48 48 48 48 49 50 49 48 49 52
26 30 33 33 30 25 25 31 34 38 40 42 43 43 44 43 43 42 41 42 42 42 42 42 44 45 45 46 47 47 47 47 47 46 46 46 47 49 50 50 52 54 54 54
24 26 28 32 37 36 33 32 33 33 33 35 40 42 44 45 44 43 43 44 43 43 43 44 45 46 46 46 46 47 47 47 48 48 48 48 48 48 48 50 51 52 55 56
22 24 27 31 33 35 38 39 39 39 40 39 38 38 38 37 36 38 42 44 44 44 44 45 46 47 48 48 48 49 49 49 49 50 50 51 51 51 51 52 52 54 55 58
21 22 23 25 31 34 35 37 39 40 42 44 43 42 42 42 40 38 38 38 38 40 40 42 43 44 46 46 45 46 47 48 48 48 48 49 50 50 50 51 53 54 56 58
20 20 22 22 23 24 29 37 40 37 38 44 46 45 43 44 44 44 43 43 42 42 41 41 43 43 45 46 45 45 45 45 46 48 49 49 51 52 53 53 54 56 57 59
18 19 21 23 23 24 25 27 28 33 37 36 40 41 44 47 48 49 50 50 49 50 50 50 49 47 46 46 46 48 49 49 50 51 52 53 55 56 58 60 61 62 64 66
14 16 18 20 21 23 26 27 28 30 33 34 35 36 40 41 43 45 48 47 46 47 50 51 53 53 54 54 53 54 55 56 56 57 57 59 60 61 62 64 66 69 71 74
15 16 18 20 21 22 24 26 27 30 33 34 35 36 40 41 42 43 43 43 44 46 46 49 50 50 51 51 51 51 52 54 56 56 58 58 58 59 61 64 67 71 74 77
16 16 18 19 18 18 20 22 24 27 31 33 35 39 40 40 39 36 42 42 42 42 41 42 42 43 43 44 45 46 46 46 46 47 48 49 49 51 53 56 60 64 68 71
20 19 18 19 19 19 21 23 25 28 32 34 37 39 39 42 43 44 47 42 38 39 39 39 39 41 43 43 44 44 43 42 43 42 43 44 46 48 51 55 61 64 70 76
19 20 20 21 22 22 22 24 26 28 31 33 33 39 45 47 42 52 44 42 42 39 37 36 37 38 36 36 36 37 39 41 41 42 44 45 47 50 51 55 60 67 73 70
19 19 19 20 22 24 26 26 27 29 29 31 37 41 42 47 50 52 49 44 40 37 38 41 39 37 39 39 39 39 43 44 45 46 46 47 48 49 53 56 62 72 66 54
19 19 19 20 22 26 29 30 29 29 29 28 29 29 27 27 37 42 48 45 40 50 44 37 34 33 41 38 38 43 42 46 46 45 45 46 49 52 54 58 61 70 55 44
22 20 22 23 24 29 34 35 31 30 28 24 20 16 15 16 18 26 34 49 42 35 27 36 36 37 35 43 47 40 35 37 40 44 46 47 50 52 54 58 63 58 47 37
21 22 24 24 26 30 35 37 35 32 26 19 14 13 10 3 4 11 15 17 28 31 29 34 31 33 39 39 38 39 40 41 43 46 49 49 51 53 52 53 47 49 44 34

GFSNGP_500_spd_093.txt.gz
Wind_Speed
39 41 46 49 47 47 49 51 53 52 49 45 36 32 31 24 16 25 25 24 23 18 17 15 20 24 17 16 17 21 37 36 34 34 33 33 32 31 31 28 26 27 26 26
39 41 46 43 43 46 48 49 52 53 54 51 53 45 38 34 27 22 23 25 23 19 20 20 19 22 23 14 16 27 22 29 36 33 33 37 34 34 35 33 34 33 31 29
38 40 46 47 43 45 46 49 51 52 50 53 54 48 40 35 31 31 26 28 26 24 22 23 24 22 21 19 15 17 24 23 18 30 30 38 36 36 31 37 43 40 36 33
39 45 39 50 48 47 50 47 46 47 48 51 53 49 44 40 32 28 25 26 28 27 24 21 23 23 24 23 21 22 25 21 20 20 22 37 37 31 32 34 34 37 37 34
40 46 43 44 51 47 49 48 49 46 48 48 48 51 49 48 34 31 27 29 29 27 24 22 21 23 20 20 20 21 23 22 18 17 21 22 26 35 31 36 37 33 36 33
23 39 48 35 54 47 39 50 55 51 40 39 48 46 41 33 36 35 27 27 31 29 26 24 24 24 24 25 25 24 21 21 21 20 21 24 25 26 20 36 33 34 31 42
34 33 42 42 47 46 47 42 39 39 39 41 42 45 43 34 34 34 37 36 35 33 34 33 33 33 33 30 29 30 28 26 25 26 25 22 21 20 24 32 31 33 27 23
19 25 33 23 35 49 49 43 41 40 38 42 43 30 31 33 34 38 43 42 41 41 41 41 41 34 31 29 28 29 28 28 28 28 27 28 25 23 24 27 43 35 17 13
14 16 19 23 25 30 28 37 43 41 40 36 36 37 34 34 40 42 45 45 49 44 47 40 38 35 35 37 39 39 38 38 36 34 33 31 31 30 29 29 28 26 27 29
15 14 14 15 19 26 28 30 36 40 36 36 40 35 32 36 46 47 38 38 40 43 42 45 46 46 45 49 52 52 50 45 42 41 39 37 37 36 35 34 33 33 33 33
13 13 14 16 15 16 21 36 33 42 42 41 40 42 43 41 39 40 45 49 51 55 53 49 51 49 55 55 55 53 51 49 46 44 42 41 40 40 40 40 38 38 38 38
20 20 18 15 18 19 21 26 30 43 48 48 48 50 52 48 48 48 49 51 52 52 53 54 55 55 53 53 53 52 51 48 47 45 44 44 43 44 44 44 44 44 43 43
21 24 25 27 25 22 22 27 31 31 34 40 46 49 51 50 50 49 49 48 46 47 48 50 53 54 53 52 52 52 51 50 47 47 47 47 46 47 47 48 48 49 49 49
21 23 24 25 25 26 29 30 31 32 36 39 40 41 42 43 42 44 50 50 51 48 47 47 49 50 50 50 49 49 50 50 50 49 48 48 49 49 50 50 51 52 53 53
21 23 25 26 27 29 29 30 35 38 38 38 38 39 41 42 42 42 41 44 44 44 44 45 46 47 48 48 48 48 49 49 49 49 49 49 50 51 52 52 54 55 55 56
18 21 23 24 26 28 28 29 34 36 40 44 45 45 45 44 43 42 40 39 38 37 40 43 45 46 47 47 47 47 48 49 50 51 51 51 51 52 52 52 54 54 55 56
14 15 18 21 24 26 28 28 28 33 39 39 43 48 50 50 49 48 47 46 44 43 42 41 40 40 41 43 44 45 46 47 48 49 50 50 50 51 52 52 53 54 56 57
15 15 17 18 18 22 27 29 29 29 31 34 40 45 46 48 50 52 50 49 48 47 47 47 46 45 44 43 43 43 44 45 46 48 49 50 50 51 52 53 54 55 56 58
16 17 18 19 20 21 23 26 28 30 31 31 33 36 39 44 46 47 51 52 51 51 51 49 50 51 51 50 51 51 51 51 50 50 50 51 52 53 54 56 57 58 59 61
15 17 17 17 18 18 18 19 21 26 29 31 34 36 37 40 42 44 46 47 48 48 51 51 51 51 51 51 51 51 53 54 54 54 55 55 56 55 55 55 56 58 59 61
13 14 15 15 16 17 17 17 19 22 25 27 30 34 37 40 43 45 45 47 47 49 49 51 50 50 49 49 49 49 50 51 52 53 53 52 51 51 50 50 52 53 54 54
15 15 14 14 15 16 17 18 18 19 22 26 29 33 36 39 42 45 46 47 47 43 45 45 48 48 47 45 44 44 44 44 45 45 47 48 48 49 49 48 48 49 50 51
18 17 15 15 15 16 16 18 21 24 27 28 30 32 34 36 38 43 44 46 46 47 47 49 46 41 42 43 44 45 44 43 42 41 42 41 40 41 43 44 46 49 52 54
20 18 18 18 18 18 20 24 28 31 33 32 33 35 36 36 36 38 44 49 51 54 52 49 45 41 42 41 39 39 38 38 41 41 43 44 44 45 47 48 50 52 53 57
23 21 21 23 23 22 24 27 32 36 38 39 35 32 29 28 29 31 32 34 38 49 64 45 47 41 44 46 51 46 40 40 42 38 40 42 44 45 48 49 49 52 54 56
24 23 21 22 23 24 27 28 32 34 36 30 23 19 19 20 21 22 21 19 21 28 34 46 42 46 42 45 47 44 41 39 43 40 47 52 52 50 49 51 53 55 56 57
23 24 22 22 23 24 24 26 28 29 27 24 19 16 17 16 16 10 8 9 10 14 16 31 39 35 28 36 40 33 33 38 40 42 45 47 49 53 53 56 59 61 63 62

GFSNGP_500_spd_096.txt.gz
Wind_Speed
40 42 44 45 47 47 47 47 47 43 41 36 36 31 27 27 20 17 23 23 20 21 19 19 21 22 17 32 35 26 24 31 28 37 37 34 35 34 32 29 27 26 26 26
29 42 42 46 45 46 45 46 45 44 44 42 40 37 32 27 21 17 18 20 25 23 22 21 21 20 27 24 25 20 16 18 32 38 33 35 33 35 36 34 32 30 28 29
28 40 42 45 48 47 47 44 43 42 42 44 44 44 41 31 30 31 28 25 18 20 21 22 22 21 25 25 16 11 14 19 22 22 34 36 32 38 37 37 38 37 34 34
31 30 46 47 49 50 48 44 43 41 41 44 45 47 47 48 40 39 34 30 28 26 25 26 25 26 29 25 23 20 20 18 18 20 22 24 24 30 38 44 42 40 40 37
26 29 39 48 45 48 45 43 42 42 42 41 43 46 44 44 44 42 35 31 26 28 30 29 28 27 28 25 22 25 22 19 16 20 21 18 19 28 26 43 44 40 34 36
23 30 35 44 44 42 48 45 42 42 39 39 39 37 35 36 38 40 39 37 30 30 32 30 28 26 28 25 20 18 16 15 16 17 19 19 21 20 26 27 46 46 38 40
18 29 32 38 47 43 45 48 44 43 41 43 43 44 41 39 39 33 37 38 42 35 37 36 34 30 30 27 25 23 22 23 24 22 21 21 22 24 22 22 28 27 26 28
14 23 28 35 41 46 45 49 50 44 43 48 47 48 48 37 37 41 37 39 40 43 42 39 36 36 34 33 30 29 28 25 21 20 19 20 22 24 22 23 22 23 26 26
9 14 22 33 31 42 43 42 45 42 35 38 40 37 37 38 36 39 42 44 46 47 47 45 41 42 42 42 40 38 37 30 30 28 26 27 27 28 28 27 27 25 24 30
12 7 9 16 29 29 40 36 42 44 44 38 35 39 40 38 38 46 48 48 51 45 46 47 48 46 44 45 44 43 43 39 36 37 41 43 41 37 34 33 32 30 29 29
12 10 11 13 14 19 27 34 38 40 43 43 35 32 40 31 40 52 54 51 53 50 49 50 50 47 50 51 51 48 45 45 49 53 50 48 45 42 41 40 39 38 36 36
14 15 13 12 16 19 22 28 32 35 31 36 39 36 37 33 37 47 44 42 47 48 48 51 49 49 51 52 53 55 54 54 58 56 53 50 46 45 45 45 44 43 42 42
12 13 15 17 18 19 21 24 25 29 36 40 40 42 38 39 45 41 40 40 42 44 45 44 45 49 52 52 53 53 55 54 55 52 49 49 49 49 48 47 47 47 47 46
14 14 14 14 15 18 22 27 28 30 32 35 41 46 49 53 51 50 50 52 54 54 56 57 60 58 58 55 53 54 55 56 55 54 54 52 52 52 51 50 50 49 50 50
16 17 19 20 20 19 20 22 26 30 35 37 38 39 41 44 45 44 44 49 52 52 52 55 56 55 54 53 52 53 54 54 54 54 54 55 54 54 53 53 53 52 53 53
8 10 13 15 16 20 23 24 25 28 32 36 39 42 44 43 42 42 43 44 43 43 43 42 45 50 54 54 51 51 51 50 50 51 51 52 52 53 53 54 54 54 55 56
12 14 15 18 19 18 18 22 26 28 28 30 35 43 44 45 48 49 48 46 44 43 41 41 41 40 41 43 46 49 49 50 50 49 49 49 50 51 52 54 54 55 55 56
12 14 15 17 18 19 20 21 23 26 31 34 34 34 36 43 47 48 50 52 51 49 49 49 47 46 45 44 44 43 41 43 44 46 46 47 47 48 48 49 50 52 53 54
11 12 13 14 16 18 20 22 23 23 24 28 32 35 36 36 37 41 47 50 51 49 48 51 52 50 49 49 49 49 47 46 45 45 45 45 45 46 46 48 49 50 52 53
13 15 15 16 16 15 16 18 21 22 22 23 25 27 32 36 40 40 40 42 43 46 49 49 48 49 52 53 53 52 52 52 52 52 52 52 52 53 53 54 55 55 56 57
13 13 14 15 15 15 15 15 16 17 17 19 23 26 30 33 36 40 42 43 43 42 46 47 46 47 47 47 48 50 51 52 52 53 53 53 53 53 53 53 53 53 53 53
16 15 16 16 15 15 16 17 17 17 18 21 23 25 28 31 36 40 42 43 45 47 46 42 41 49 48 49 46 44 44 45 48 50 50 50 50 50 50 49 49 49 50 52
22 21 20 20 20 20 20 20 21 23 25 28 32 35 38 39 39 40 41 43 45 47 47 48 49 48 44 47 44 46 44 43 45 47 47 46 46 46 47 47 46 47 48 48
24 23 22 22 22 22 22 24 25 26 27 31 36 39 38 35 37 40 39 36 36 37 40 42 44 45 48 42 52 48 46 46 42 41 41 42 42 42 41 41 40 42 44 47
28 27 26 24 22 22 22 23 24 26 28 31 30 27 25 23 21 23 23 23 27 31 34 40 44 48 48 53 46 43 48 47 38 36 37 37 39 41 42 43 43 44 44 46
35 37 31 24 21 23 21 22 22 24 27 28 28 28 28 23 22 16 16 16 15 20 25 28 29 39 44 54 56 49 38 43 39 45 46 47 44 45 45 46 47 49 50 52
31 34 41 23 19 22 20 20 22 23 25 23 24 25 26 21 20 18 15 16 14 11 16 17 15 19 14 34 53 50 36 33 47 48 53 47 40 39 39 41 44 46 50 56

GFSNGP_500_spd_099.txt.gz
Wind_Speed
31 41 43 43 46 44 44 43 42 38 36 33 31 33 31 31 31 26 24 25 24 22 20 21 18 18 26 32 24 33 33 32 35 26 27 29 32 33 31 30 28 26 25 24
30 32 44 44 44 46 45 44 43 41 38 37 32 32 32 28 25 28 26 18 20 22 23 22 21 19 21 21 21 23 38 32 35 34 25 32 31 34 33 33 32 32 30 28
28 32 37 45 45 47 48 46 44 43 40 36 34 33 34 32 29 25 24 18 14 13 22 20 20 21 19 19 26 20 26 27 22 19 15 24 31 37 36 35 35 38 36 33
25 30 33 47 46 46 48 47 46 44 42 38 38 37 36 38 34 33 29 24 23 18 17 17 18 21 20 21 22 18 17 15 17 16 23 18 23 25 21 26 39 39 40 39
26 29 29 38 48 46 47 46 46 43 43 38 37 37 38 38 40 39 34 29 29 27 25 28 26 24 25 23 22 22 20 23 21 20 17 18 20 26 18 23 29 27 35 44
25 28 26 30 41 47 45 45 39 40 42 39 34 35 34 34 37 38 40 42 42 43 36 30 28 28 27 27 25 26 23 22 20 20 15 14 14 14 18 23 21 29 27 37
19 26 30 30 32 42 46 46 46 43 41 39 37 36 36 37 36 35 36 38 39 40 39 33 31 29 30 29 28 27 24 23 21 16 14 15 17 19 18 20 21 21 22 18
18 22 25 30 32 34 45 48 44 44 41 40 39 39 38 38 36 34 36 34 35 36 41 43 37 35 34 33 31 30 25 24 20 20 20 19 20 21 21 20 19 20 18 23
11 15 18 26 33 32 35 50 44 41 46 47 45 42 41 42 39 43 41 34 39 42 43 46 46 45 39 40 37 33 31 30 24 24 27 26 23 22 21 20 21 23 24 25
7 7 10 15 23 29 33 37 48 44 44 48 47 44 42 46 49 47 45 46 43 46 44 46 46 45 46 48 44 40 38 39 36 37 37 37 37 36 32 29 30 32 33 32
10 9 10 11 11 18 30 44 44 51 45 48 47 44 40 36 44 50 40 44 44 45 49 50 50 51 49 49 47 44 43 45 46 41 42 44 44 45 45 42 42 40 39 40
13 13 11 10 11 13 12 19 22 34 37 43 53 39 38 43 44 46 50 44 48 52 53 55 57 61 57 55 51 49 48 48 46 47 49 50 49 49 46 46 50 50 45 43
12 13 15 16 16 15 14 15 19 21 30 33 46 46 49 32 43 37 40 51 64 60 59 61 62 68 56 53 53 54 56 51 48 52 53 56 54 54 48 50 53 50 48 47
9 10 11 12 14 18 21 21 22 22 23 25 33 40 42 40 46 42 42 40 44 42 46 57 59 54 52 53 55 54 52 51 50 50 51 52 52 52 56 53 51 49 48 49
9 10 11 12 13 15 17 21 25 28 30 31 30 33 38 40 43 47 47 43 45 42 41 40 44 43 46 48 50 51 54 57 60 59 58 56 55 56 56 55 54 53 53 53
6 5 5 7 9 11 14 16 20 24 29 33 35 38 39 42 44 42 43 45 48 50 50 51 50 51 54 55 56 57 56 58 55 56 60 61 59 60 58 56 55 55 55 57
10 11 12 11 11 12 14 16 17 18 22 27 32 37 40 42 45 47 47 47 47 47 48 48 47 47 48 49 51 53 54 55 56 58 60 60 58 58 56 54 52 52 52 53
6 8 9 11 13 13 14 15 18 19 20 22 26 31 37 41 43 45 46 49 50 51 52 54 53 51 50 50 48 47 48 49 49 50 52 53 54 54 53 53 53 54 54 54
6 7 9 10 12 13 14 15 16 17 19 22 23 25 27 31 38 44 46 46 46 47 52 55 54 53 55 56 54 52 51 50 49 49 49 48 47 46 45 47 48 50 51 52
10 10 10 11 12 13 14 15 17 19 20 21 22 23 25 27 28 31 34 38 43 47 48 48 50 51 53 53 53 52 55 54 54 54 54 53 51 50 49 48 47 47 48 50
15 15 16 16 17 18 18 18 19 19 20 20 22 23 24 26 27 29 32 34 37 42 45 48 49 49 47 48 50 51 52 52 55 57 56 55 55 54 55 55 54 55 54 55
17 18 19 20 21 23 23 24 23 23 24 24 25 27 28 30 32 35 37 40 43 44 48 47 45 45 48 51 50 46 46 48 48 49 49 51 53 53 53 52 52 53 54 54
20 20 20 22 24 26 25 25 25 26 28 28 28 29 31 33 34 34 33 35 38 45 50 50 47 43 45 48 49 42 43 45 43 44 44 44 44 44 45 46 46 47 48 48
22 23 24 25 28 32 28 25 25 27 29 29 28 29 31 32 32 32 33 33 36 36 33 39 41 42 44 45 42 49 46 40 42 43 42 40 41 41 42 45 47 47 47 47
22 24 25 29 29 30 26 23 24 26 27 25 26 28 30 29 28 31 31 32 31 27 25 27 32 36 38 39 41 46 53 51 47 46 42 43 43 39 39 40 38 36 37 40
23 24 28 30 32 32 24 22 23 24 24 23 26 29 28 26 27 27 26 26 25 23 17 19 23 27 30 34 38 46 51 50 47 45 46 45 41 37 37 39 38 39 41 43
24 28 33 31 33 29 21 22 23 22 21 22 26 28 27 25 25 23 21 21 20 19 18 19 18 20 24 24 27 33 37 50 54 48 44 39 46 45 43 40 39 41 45 45

GFSNGP_500_spd_102.txt.gz
Wind_Speed
35 36 36 34 33 43 42 40 31 22 28 33 36 37 32 26 25 22 22 22 22 23 24 20 30 18 21 22 23 27 31 33 28 26 27 30 30 31 31 30 27 24 21 19
25 35 39 42 41 42 42 41 40 38 30 32 34 39 40 35 30 29 28 26 22 26 28 21 20 18 20 22 24 21 27 26 36 33 32 30 29 31 31 32 31 29 27 27
18 26 32 36 37 43 45 43 42 38 36 40 34 34 36 38 34 29 28 28 26 26 29 28 25 23 22 22 22 20 19 22 26 36 40 41 38 34 31 30 31 34 32 31
19 28 32 29 35 44 44 44 43 43 42 39 37 35 35 36 36 32 29 28 26 22 20 16 23 24 23 22 22 20 18 27 16 16 18 34 28 19 23 27 29 32 36 37
26 20 22 37 40 41 44 45 43 43 42 42 39 36 36 36 38 38 36 33 30 28 23 22 18 22 19 19 21 19 19 15 14 12 11 15 22 22 26 24 22 26 20 25
20 27 27 29 35 35 40 45 42 43 42 42 40 39 37 37 36 40 42 39 35 33 30 29 30 24 24 26 22 22 23 21 20 17 17 22 21 23 19 21 21 16 19 22
10 25 26 33 31 29 33 40 42 42 43 42 42 42 38 37 37 38 39 41 43 41 39 39 38 36 32 29 29 28 26 24 22 22 22 21 19 18 18 17 17 19 21 21
19 20 25 29 32 31 33 39 45 42 40 41 40 41 39 40 41 40 40 39 39 43 45 45 43 43 38 33 34 32 30 29 25 25 23 21 20 19 19 18 19 21 19 20
22 22 23 24 28 31 34 36 40 44 43 41 40 39 40 38 39 39 39 36 35 37 39 42 44 44 42 39 38 36 34 31 28 28 29 24 21 21 22 22 22 22 21 20
17 17 17 20 20 24 31 34 37 42 45 44 44 43 40 38 38 38 38 40 40 42 42 42 43 43 44 44 43 40 38 38 35 35 34 31 28 27 27 28 27 28 29 29
15 10 11 13 12 15 18 26 30 31 40 46 42 42 46 45 44 45 45 44 45 46 47 46 44 47 48 48 48 48 47 44 41 42 39 39 39 36 37 38 38 39 40 40
14 14 14 13 11 11 10 17 28 33 32 43 47 38 41 56 49 48 48 54 46 47 50 51 51 50 52 51 52 53 52 52 51 50 49 46 44 43 44 46 46 48 49 49
15 16 17 16 16 14 12 12 15 30 40 38 40 38 44 34 49 48 47 49 49 42 52 51 58 57 59 58 57 57 57 58 57 57 54 51 49 49 48 49 52 54 53 53
12 12 13 13 14 15 15 15 15 14 12 31 47 55 49 40 36 33 39 47 61 60 66 56 57 61 59 60 60 62 64 66 64 61 61 57 54 53 59 54 51 52 53 53
11 12 12 13 13 13 14 15 17 19 20 19 23 26 33 51 44 39 38 40 44 50 50 51 59 63 66 68 67 68 71 74 73 74 66 57 60 55 51 50 51 52 52 53
8 9 9 9 10 11 12 14 16 19 21 24 27 31 33 34 34 36 34 39 44 52 49 52 51 47 48 54 59 61 61 67 67 63 59 49 49 52 55 56 57 58 59 58
7 8 9 11 13 15 15 17 20 22 25 26 28 31 33 35 36 37 40 42 43 45 46 46 47 47 51 51 50 52 56 54 52 54 52 51 54 58 61 61 60 60 61 62
3 4 7 9 10 11 12 13 14 15 17 20 23 26 29 31 34 37 38 40 44 47 49 48 49 51 51 51 50 49 50 50 50 52 50 53 59 62 60 59 59 59 59 61
3 3 4 6 8 9 11 12 14 16 18 19 21 22 25 26 28 30 32 34 36 38 44 47 49 49 50 54 56 55 54 54 53 53 53 55 55 55 55 54 53 52 53 54
5 5 7 8 10 11 13 15 16 17 18 19 22 24 25 26 27 28 29 31 33 35 38 39 42 46 50 51 53 54 56 59 59 60 61 59 58 58 56 54 53 52 51 50
7 8 8 10 11 11 12 16 18 21 22 23 24 26 26 27 28 29 30 31 33 34 35 39 41 43 45 47 50 53 55 55 55 57 59 60 60 61 62 60 58 57 56 55
11 10 11 12 12 14 18 21 22 21 22 25 27 28 29 29 30 32 34 35 37 38 40 41 44 47 50 52 52 52 54 54 54 53 52 53 56 57 58 57 58 58 57 55
14 13 12 12 13 17 17 22 25 24 23 26 28 29 30 30 31 32 33 34 37 37 38 38 39 41 45 46 52 57 57 57 55 54 51 50 48 48 50 49 46 46 46 46
20 18 18 18 20 18 19 23 26 25 25 27 26 27 27 28 29 30 33 34 35 37 38 37 38 40 40 38 37 43 49 51 51 54 49 49 50 49 45 43 42 42 42 41
21 21 22 22 20 22 24 27 28 26 24 24 25 26 26 27 27 29 32 33 34 34 35 35 36 34 32 30 30 31 38 48 50 51 49 45 43 45 39 40 41 40 41 39
20 22 23 21 23 23 25 29 29 23 21 24 25 24 25 24 25 29 31 32 33 32 31 30 31 30 31 31 30 31 32 36 42 47 50 49 42 50 45 43 42 41 42 41
31 24 24 26 26 27 32 32 25 20 21 24 24 24 23 22 25 27 27 27 27 27 26 26 27 27 26 25 21 21 25 28 32 37 43 48 54 39 41 44 42 39 40 41

GFSNGP_500_spd_105.txt.gz
Wind_Speed
18 24 36 13 18 28 36 32 24 21 18 19 24 36 32 30 24 26 24 18 15 15 16 21 26 21 25 22 18 18 24 30 41 28 28 32 30 30 29 28 28 27 24 21
35 13 20 33 26 29 27 29 29 28 20 18 32 37 37 34 24 22 23 24 19 18 17 17 18 18 16 18 13 17 20 18 26 31 34 31 30 31 30 29 31 31 30 28
11 20 19 29 31 27 31 26 27 27 27 36 32 38 40 40 36 30 27 23 22 22 21 19 22 23 19 18 19 19 16 19 20 20 23 30 28 32 32 31 33 32 32 30
14 17 26 19 34 37 35 35 37 40 31 44 40 35 36 37 39 35 31 26 29 28 28 26 27 25 25 24 22 21 20 19 19 20 19 26 28 32 36 36 36 35 33 32
18 19 22 25 26 36 37 37 42 36 45 46 44 36 34 35 37 36 36 34 28 28 27 27 25 25 26 24 20 20 22 20 19 18 17 15 18 18 25 26 20 23 24 23
17 24 27 30 31 28 35 34 39 22 41 41 42 38 40 40 38 37 39 41 37 33 32 29 27 24 23 24 23 20 19 21 20 21 17 16 18 16 14 21 24 26 24 20
17 18 20 34 36 21 23 31 44 45 40 37 42 41 43 39 39 40 43 44 44 42 39 36 35 35 33 30 25 22 23 26 23 23 21 21 20 19 20 18 20 20 23 21
22 26 23 28 34 33 26 31 38 37 39 40 39 39 40 40 41 43 45 46 47 47 45 42 43 42 39 39 38 35 31 29 29 28 24 23 23 23 21 23 22 24 21 21
18 26 29 24 27 27 30 33 35 34 35 39 40 37 39 40 43 42 44 45 46 46 51 53 50 48 47 47 44 41 37 34 35 32 30 28 26 25 26 26 25 25 25 22
28 34 29 29 28 28 27 30 34 33 32 35 40 38 38 39 40 40 42 43 44 44 45 48 52 53 53 53 50 48 46 42 39 36 34 35 33 33 31 30 28 27 25 25
16 22 22 23 19 16 19 23 26 32 33 33 39 41 41 40 39 41 41 42 42 43 45 45 47 47 49 49 49 46 44 44 45 43 40 38 38 38 37 34 33 31 31 33
16 13 13 11 13 13 13 17 22 25 29 33 35 42 43 44 42 45 44 42 42 43 45 46 47 46 46 48 47 49 48 47 47 47 45 44 44 44 46 44 41 40 41 40
16 15 15 15 15 14 13 12 14 19 27 33 35 34 42 37 36 41 48 48 51 49 49 48 49 49 49 50 52 52 55 56 54 54 53 52 52 51 50 52 51 48 48 49
15 14 14 14 13 14 13 15 16 13 13 31 31 35 40 41 49 51 49 37 58 54 56 53 53 51 53 46 49 58 59 56 55 56 56 57 57 57 58 60 60 58 54 52
14 13 14 14 13 13 13 13 14 15 15 14 24 33 30 35 43 47 53 48 40 39 57 53 63 54 60 51 56 58 55 59 57 63 62 64 61 64 64 65 64 68 65 61
10 11 11 12 13 13 13 13 14 14 15 14 17 19 23 22 28 31 35 27 39 34 37 41 48 52 57 60 67 64 61 58 65 61 61 66 68 69 68 70 70 75 72 71
7 8 9 10 11 12 14 16 17 18 19 19 20 21 24 27 28 27 29 30 31 35 45 43 35 38 49 55 55 50 50 51 56 57 59 63 67 63 67 73 78 81 80 72
3 3 5 6 7 8 9 11 12 13 15 16 17 18 20 22 25 27 28 27 28 30 33 37 41 43 45 47 48 49 51 54 52 53 53 55 62 62 56 58 56 54 53 54
1 2 3 4 5 6 8 10 11 11 13 14 16 18 20 22 23 25 27 28 29 29 29 31 31 33 36 41 44 47 49 51 51 53 55 55 53 53 53 54 53 52 52 51
1 2 3 3 4 6 6 7 9 12 14 17 20 23 24 25 26 27 29 31 31 31 32 31 33 34 35 34 36 38 41 43 47 51 53 54 55 56 55 55 55 55 53 53
6 7 7 7 8 8 9 9 10 13 15 17 20 25 28 30 30 32 33 33 34 31 32 34 35 36 39 40 39 40 42 43 44 45 46 48 52 52 52 53 55 57 57 59
11 12 13 15 15 15 16 15 15 16 18 20 24 28 29 31 33 34 34 35 37 35 35 36 36 37 38 40 42 44 45 47 49 51 51 51 50 50 51 52 51 52 55 56
16 17 18 18 18 18 19 21 20 20 22 25 29 30 30 32 33 34 35 32 35 34 36 37 37 38 39 41 42 43 44 46 47 49 50 53 55 54 53 51 51 49 48 48
22 24 24 24 24 23 22 22 24 24 25 28 30 30 32 33 32 32 33 33 32 33 35 36 37 38 40 39 40 40 41 42 43 44 47 43 45 44 38 42 45 47 45 43
26 28 30 31 29 26 24 26 27 25 26 29 30 29 29 29 30 30 31 31 33 33 33 35 37 37 36 36 36 38 37 36 36 37 39 40 46 45 48 40 36 41 43 41
36 37 40 39 36 26 25 27 29 31 30 28 28 28 27 27 28 29 29 31 31 32 33 34 34 32 32 33 34 35 34 32 30 30 35 36 36 39 45 49 43 43 40 39
35 35 37 38 36 23 21 22 24 29 31 25 27 26 26 25 26 28 28 29 30 31 31 31 29 30 31 31 31 32 30 29 27 25 23 29 33 36 38 41 40 45 34 31

GFSNGP_500_spd_108.txt.gz
Wind_Speed
26 26 26 25 26 25 25 26 20 18 16 26 31 26 33 28 27 26 29 25 24 25 25 21 16 28 15 32 27 29 25 24 19 24 28 23 28 28 30 27 25 24 24 23
26 13 32 21 14 26 22 25 35 29 28 38 3 20 27 34 38 34 31 32 30 28 25 20 14 22 27 19 22 19 28 24 22 27 18 22 27 28 28 33 30 29 29 28
34 34 12 14 19 18 22 27 28 28 27 31 27 38 21 39 35 40 35 33 28 30 28 22 18 16 15 12 9 16 19 16 17 17 20 23 20 26 27 31 31 28 27 28
29 26 32 20 23 37 22 33 38 45 39 35 38 39 29 20 26 34 37 31 32 25 26 25 25 19 19 17 17 18 18 19 17 16 16 16 20 19 25 25 31 29 31 28
20 22 18 25 32 27 43 29 34 41 46 53 50 42 19 13 31 29 33 34 31 31 32 28 26 25 23 22 23 23 22 20 21 20 20 17 18 19 22 28 27 26 35 32
16 22 28 31 27 36 38 48 55 48 40 45 53 43 25 39 31 38 45 42 37 33 31 29 28 27 27 28 28 24 20 20 20 20 21 19 17 17 20 22 23 29 28 22
20 15 26 26 31 39 38 34 36 36 46 44 56 63 49 30 37 37 36 39 42 40 37 32 27 28 29 26 25 26 25 25 22 19 18 20 20 21 20 21 21 27 24 23
25 27 26 25 24 33 40 38 34 21 34 48 53 45 42 42 42 41 40 40 42 42 40 40 37 36 34 34 31 30 28 28 27 24 21 23 24 23 24 26 24 24 28 23
33 26 16 18 41 9 15 26 37 30 23 30 43 51 46 39 41 43 43 44 46 47 45 45 43 43 40 40 40 35 36 37 36 33 29 28 30 30 28 27 29 27 25 25
17 24 36 29 21 23 25 24 25 25 29 30 33 37 37 44 41 44 46 46 47 47 46 45 46 47 48 48 46 45 45 45 43 43 40 36 33 34 33 32 32 32 31 30
18 22 19 18 22 26 29 26 27 28 26 28 31 32 35 39 40 42 44 44 46 46 45 44 45 45 49 52 53 54 53 52 52 50 46 44 40 39 40 39 38 37 35 35
15 16 15 10 12 14 15 18 20 22 24 25 28 30 32 36 40 40 41 42 42 44 44 45 47 48 49 49 50 51 53 51 52 50 46 45 43 45 44 43 43 42 42 41
16 16 14 13 15 14 14 11 12 14 16 21 25 29 30 34 38 42 42 43 42 43 43 44 45 48 49 50 51 51 50 51 51 51 52 49 48 49 50 48 47 46 46 47
16 14 14 14 14 15 14 16 14 17 16 14 18 27 30 32 32 34 42 38 50 48 46 46 46 50 50 52 54 54 54 55 55 57 56 55 54 56 53 52 54 54 54 52
15 15 15 14 13 13 13 13 14 12 15 14 16 16 22 30 31 37 35 43 44 48 45 40 40 35 44 56 57 57 56 57 56 54 51 53 57 62 60 60 59 61 61 60
11 13 13 13 13 13 14 13 13 13 14 13 14 14 14 17 26 29 32 36 40 43 46 51 46 47 41 48 57 64 61 59 61 60 60 62 60 58 58 69 68 67 68 63
7 8 9 10 10 10 11 12 14 15 16 17 18 18 18 20 22 23 22 25 27 27 28 30 37 37 44 43 41 49 50 48 52 56 64 63 65 64 67 74 71 68 69 60
3 4 6 8 9 9 9 9 9 10 10 10 10 11 12 14 17 20 21 23 22 25 29 25 28 30 33 34 37 45 43 51 49 42 46 50 52 54 58 58 56 58 55 47
3 4 5 6 7 8 9 10 10 11 13 13 13 14 14 15 17 18 20 21 22 22 24 23 25 26 27 29 32 33 37 40 43 46 47 47 47 50 52 52 57 58 58 56
4 4 6 7 8 9 10 12 11 11 12 14 16 19 21 21 24 24 24 27 28 28 28 28 31 33 33 32 34 35 35 35 36 38 39 41 43 45 48 50 51 52 53 52
8 9 9 11 12 12 14 15 16 16 16 16 18 19 22 25 26 28 31 35 34 32 32 33 34 35 34 32 34 35 38 41 42 41 42 43 44 45 45 46 47 49 51 53
12 12 12 13 16 17 19 21 21 23 23 23 24 24 26 29 29 30 32 33 35 36 35 37 35 34 35 38 39 39 37 38 40 42 43 43 45 47 49 50 51 51 52 53
17 17 18 19 20 21 22 25 27 27 30 29 29 31 32 34 34 34 34 33 36 36 36 35 34 35 36 37 37 39 39 40 40 41 43 43 43 44 44 45 48 50 51 50
22 22 22 23 24 26 29 32 32 29 33 33 34 34 35 36 37 35 37 36 34 32 32 32 33 34 35 37 39 39 40 38 36 35 38 38 38 40 41 42 43 44 46 46
26 28 26 29 33 28 27 29 38 37 34 35 35 36 39 38 36 34 33 30 31 30 31 33 34 34 35 37 39 38 35 33 32 33 35 36 36 36 37 40 40 39 41 41
29 31 32 33 37 38 39 33 29 26 26 28 31 35 35 33 35 31 30 29 29 30 31 30 32 35 36 36 34 33 31 30 31 31 31 32 34 30 30 33 36 37 36 41
33 33 35 35 36 36 29 25 22 23 23 20 26 29 32 32 26 25 27 27 27 27 28 31 33 34 33 33 32 30 29 30 30 30 30 33 33 29 29 27 29 31 35 36

GFSNGP_500_spd_111.txt.gz
Wind_Speed
14 19 23 27 34 33 29 25 27 15 23 21 18 25 30 24 22 19 19 22 20 20 19 22 21 16 20 31 37 32 22 20 21 22 20 20 21 24 21 24 23 23 23 21
38 21 21 30 33 39 36 29 32 26 32 29 22 13 23 15 17 29 34 32 27 24 23 21 16 20 24 22 26 29 27 29 24 24 19 24 13 21 21 23 24 27 27 24
46 39 29 21 26 25 37 32 40 29 38 28 39 28 9 14 23 29 29 23 23 25 26 27 22 21 20 16 19 22 27 22 19 22 26 23 19 16 18 26 26 23 25 28
39 42 28 23 24 23 38 38 48 40 46 37 39 41 35 33 37 17 16 25 20 26 25 25 21 22 19 17 16 15 15 18 20 19 18 17 17 17 20 18 29 26 24 27
37 38 28 27 24 25 36 36 44 50 51 46 43 42 44 39 40 34 23 42 29 25 26 22 23 25 23 19 21 20 22 21 17 20 19 17 16 18 17 22 21 23 25 26
24 29 35 34 35 29 30 41 40 38 48 52 45 47 41 34 36 30 30 26 34 27 28 29 24 25 28 25 25 23 20 19 20 21 21 19 19 18 16 17 21 23 25 28
21 29 32 43 31 33 38 38 40 39 42 44 49 50 56 55 48 39 31 38 41 37 37 34 33 35 33 25 24 23 25 22 20 19 18 21 22 20 19 19 21 23 25 25
23 26 30 29 40 36 32 42 44 44 46 50 49 52 52 52 54 57 50 32 32 34 35 35 31 30 29 29 30 30 28 32 26 26 24 26 25 22 20 21 23 25 24 25
21 29 26 25 24 35 31 38 36 39 45 40 45 50 57 56 53 53 53 52 40 43 40 40 41 42 42 40 37 33 34 33 29 29 31 32 28 25 22 23 23 25 24 27
16 26 26 35 37 13 18 18 21 18 25 37 41 31 34 50 56 48 54 43 40 48 46 48 47 43 43 43 43 42 38 37 38 37 37 37 37 34 31 30 29 29 31 33
16 17 16 18 21 20 17 15 18 19 20 22 26 33 34 33 29 37 45 48 41 45 50 47 47 47 45 44 44 46 46 45 45 46 44 44 43 44 42 41 39 35 34 36
16 16 11 10 10 4 10 10 11 15 17 21 22 26 31 33 32 28 33 43 48 47 49 50 50 48 47 47 46 46 47 47 49 51 53 53 52 53 51 49 48 44 41 40
13 13 11 12 9 5 7 12 13 11 11 14 19 24 28 30 31 29 28 34 43 46 47 48 49 48 49 48 45 47 48 48 49 48 49 51 54 52 51 48 47 46 46 47
15 13 12 13 13 12 11 11 13 13 13 10 13 17 24 27 30 30 29 32 35 42 43 42 44 46 48 48 45 47 49 50 53 47 53 53 49 51 50 50 50 50 50 52
12 15 15 13 14 12 12 12 13 14 14 13 12 13 14 18 26 31 31 30 30 31 34 39 40 42 48 48 49 51 53 53 54 55 50 54 54 56 56 55 55 55 54 56
10 11 11 13 13 12 12 14 12 13 16 16 16 17 16 15 15 16 21 26 29 32 32 34 36 37 40 43 42 52 47 41 51 53 55 56 57 59 58 60 58 54 57 55
6 7 8 9 11 11 13 14 16 14 15 17 17 19 19 19 20 19 16 18 22 25 22 27 30 29 27 30 37 40 44 47 49 46 47 51 56 65 69 67 66 65 65 65
0 3 5 6 8 10 12 14 15 12 10 10 9 12 13 14 16 16 17 19 19 20 22 23 24 25 26 26 29 31 32 35 40 42 45 48 47 52 49 51 58 63 60 59
3 2 3 3 5 6 8 9 10 12 13 14 13 14 15 15 14 16 19 20 21 22 23 24 25 26 28 27 27 28 30 33 34 35 36 38 40 43 45 47 51 56 58 51
4 4 4 5 6 7 9 11 9 11 12 14 15 16 16 17 16 17 19 21 22 23 26 29 32 35 34 35 34 35 33 34 36 36 37 37 38 39 41 41 42 43 44 45
5 5 6 7 9 11 13 15 19 20 17 18 19 23 25 25 25 26 28 26 25 27 30 32 34 35 36 37 36 37 37 37 37 35 37 41 44 45 45 45 46 46 46 43
12 11 11 12 13 14 16 19 21 22 23 24 26 28 28 30 30 31 31 33 34 36 36 36 36 36 35 35 36 35 35 37 38 39 40 39 39 41 44 45 44 45 46 47
15 16 16 17 17 17 18 21 24 26 29 26 30 34 38 37 36 33 34 37 39 41 42 41 37 32 31 32 33 34 35 36 36 37 38 40 41 43 44 44 45 45 44 43
19 21 23 24 24 26 27 28 28 26 31 35 30 28 34 38 38 37 39 41 43 43 40 34 32 31 30 32 32 32 33 35 37 39 40 41 40 40 40 40 40 41 41 42
25 26 27 29 30 31 32 33 35 34 36 30 32 32 29 31 31 33 38 37 34 32 31 30 30 30 30 29 30 32 35 37 38 37 37 37 37 37 40 38 39 38 37 36
33 34 34 31 30 32 32 32 31 30 26 31 31 25 21 22 26 33 36 34 29 26 25 27 28 27 28 30 32 34 34 34 33 33 33 34 35 35 35 35 37 36 35 33
32 34 31 28 26 26 26 24 23 31 29 30 26 17 19 27 30 30 29 28 27 26 25 25 25 25 28 30 31 31 30 30 29 28 28 28 30 32 34 36 38 40 38 31

GFSNGP_500_spd_114.txt.gz
Wind_Speed
43 39 33 32 32 38 37 38 33 29 30 29 28 21 15 22 22 23 10 17 15 16 18 17 13 13 20 21 11 17 29 32 29 23 25 25 18 17 16 21 22 22 23 23
32 34 26 38 37 40 40 40 36 38 36 34 34 25 19 22 24 29 26 27 29 25 23 21 21 20 22 22 24 24 15 29 24 25 25 22 22 20 15 14 22 24 25 26
35 40 31 22 36 44 42 39 37 41 42 40 35 33 25 24 35 30 35 34 36 31 26 24 23 24 25 29 29 29 24 20 29 25 27 26 27 22 21 21 19 26 25 28
33 37 35 35 27 41 44 39 39 40 43 41 37 38 33 27 30 37 28 4 21 20 23 25 25 25 26 28 29 27 22 19 27 38 33 31 28 28 27 22 24 29 34 34
28 38 37 34 36 33 39 44 43 46 45 46 42 41 39 35 38 36 38 27 24 7 17 26 25 24 25 29 28 26 22 25 27 38 24 23 27 29 25 25 25 24 25 27
28 34 35 33 32 37 37 33 37 48 50 46 46 44 43 39 36 29 9 20 14 13 20 27 26 30 36 34 30 23 32 27 33 34 24 25 25 19 24 22 23 24 24 28
27 30 34 36 40 30 37 36 44 42 54 50 49 48 49 45 38 30 28 23 21 19 26 32 31 35 46 29 16 31 28 22 26 23 27 27 27 24 22 22 22 22 24 27
27 31 27 28 33 35 36 37 37 39 44 44 52 50 51 52 47 44 41 41 41 37 32 35 37 40 39 39 33 31 35 23 16 25 23 25 19 19 22 22 25 25 28 27
14 25 29 28 25 30 36 37 34 37 42 43 42 41 42 42 46 47 46 44 41 41 45 42 33 35 37 32 29 28 23 21 22 26 34 27 25 19 24 26 25 27 28 29
14 15 21 23 32 24 26 28 44 37 38 42 45 45 45 48 53 53 54 57 53 50 46 48 47 41 41 42 41 40 40 37 34 32 31 26 27 27 31 33 32 30 29 29
13 14 10 15 20 21 26 35 16 30 34 28 21 30 40 49 46 47 44 39 44 50 51 51 51 52 49 48 44 45 45 44 43 39 39 37 36 37 37 38 39 39 39 38
15 15 14 11 9 8 10 12 15 15 15 16 20 21 23 25 38 41 44 37 34 31 47 48 50 51 54 53 53 47 47 47 48 48 48 48 48 47 45 46 47 47 48 48
15 16 15 13 11 13 13 16 15 14 11 11 13 16 18 20 21 23 27 31 37 34 33 41 49 48 50 56 56 54 50 49 49 48 48 52 54 54 54 53 53 53 55 51
13 11 13 13 13 13 14 13 12 13 13 13 14 17 19 20 21 23 23 25 30 32 34 36 45 53 55 56 54 53 51 50 49 50 51 51 53 53 54 55 54 56 55 53
14 13 12 11 12 13 13 13 14 14 13 12 12 13 14 16 19 19 23 26 27 30 34 37 41 46 49 49 48 49 48 49 49 50 50 50 53 54 52 52 52 53 57 56
5 9 10 13 14 15 15 13 11 11 12 12 15 15 16 17 16 18 20 20 22 24 27 31 30 32 34 34 36 43 45 44 42 47 45 54 54 57 58 58 60 60 56 56
2 4 7 9 11 12 14 12 11 12 13 15 17 17 17 20 20 22 23 23 21 20 21 23 26 27 26 30 33 34 34 34 36 39 43 41 48 47 48 46 48 54 59 64
5 6 6 3 1 3 4 5 5 7 9 11 12 13 14 16 15 17 17 16 17 17 18 18 19 20 22 22 24 28 31 32 35 38 39 40 41 42 44 46 48 48 47 50
8 7 6 5 4 3 3 3 3 2 3 6 9 10 12 14 16 16 18 17 18 20 20 21 22 24 24 24 25 26 28 29 31 33 36 36 37 38 38 38 40 43 41 42
2 3 4 5 6 7 9 8 9 9 10 11 12 11 12 15 18 18 18 19 19 21 22 23 24 27 30 32 32 32 32 35 37 38 40 40 41 43 44 43 44 44 45 44
1 1 3 3 4 6 9 13 14 15 17 19 22 25 27 28 27 26 27 27 28 28 30 30 31 31 33 35 36 37 38 39 38 38 39 42 43 44 45 44 45 47 49 50
4 6 8 9 10 11 14 16 16 14 17 18 21 24 29 32 35 34 36 37 37 36 36 35 36 37 39 41 42 41 39 37 37 38 39 39 40 41 42 43 44 45 46 47
7 10 11 12 13 16 18 21 23 23 24 25 25 26 30 32 31 31 34 40 42 41 40 39 40 43 42 41 39 36 34 35 37 38 40 41 41 40 40 42 43 43 45 46
11 13 16 18 21 21 21 22 25 25 26 26 31 34 37 34 29 33 35 35 34 34 36 39 37 35 34 34 34 33 34 36 38 38 38 39 40 42 44 44 44 44 43 43
17 20 21 21 22 24 25 25 25 26 26 26 27 31 30 29 29 30 29 27 28 30 33 35 34 34 33 32 32 32 33 33 34 35 37 39 39 39 39 40 40 41 41 41
23 26 29 30 28 25 22 21 21 22 21 25 23 26 37 35 31 27 24 27 30 32 34 34 33 32 31 30 30 29 30 32 33 34 34 34 34 34 35 36 37 38 39 40
31 34 35 34 32 27 32 22 21 20 25 24 23 27 33 40 35 25 25 29 29 30 30 30 29 28 27 28 28 28 28 28 27 27 26 24 25 26 28 29 31 32 34 35

GFSNGP_500_spd_117.txt.gz
Wind_Speed
35 38 39 36 34 35 33 31 28 27 26 24 23 25 25 19 13 15 19 30 22 20 20 23 22 26 31 32 29 27 21 26 24 28 30 25 27 29 28 26 24 23 24 22
39 42 44 43 39 35 34 34 34 34 31 30 28 30 28 23 15 16 18 24 29 27 23 21 24 18 27 31 29 29 18 19 18 26 34 32 30 33 30 27 28 29 27 25
29 36 33 48 40 38 39 40 40 39 34 35 35 34 32 27 22 20 24 28 30 31 25 20 25 27 24 28 25 27 27 24 30 25 34 41 34 33 30 27 26 23 26 26
27 32 37 37 43 37 42 40 41 37 35 41 37 36 36 34 31 31 28 36 42 34 33 27 28 31 32 33 33 32 24 33 31 26 29 31 34 32 34 33 30 25 25 30
23 30 37 34 41 32 40 35 40 42 40 40 41 42 39 38 37 33 28 31 37 24 13 35 34 33 33 32 29 32 37 37 32 25 31 31 35 32 37 39 40 35 31 30
21 27 32 35 33 35 33 31 45 41 42 41 42 43 45 43 36 31 29 33 33 28 5 12 15 36 38 34 36 36 37 35 33 29 31 32 42 38 34 38 36 33 32 31
22 27 29 31 36 34 35 37 37 41 47 43 46 47 48 47 44 39 34 24 24 14 18 18 18 20 24 27 29 35 40 35 31 31 38 33 43 35 32 29 34 23 25 27
18 23 26 26 29 37 36 30 37 41 38 41 44 49 46 47 49 45 40 35 28 20 18 22 29 25 27 30 32 35 28 26 29 38 34 38 34 30 28 26 27 26 25 24
19 17 22 29 25 32 39 38 38 32 36 37 39 50 47 53 54 53 47 45 41 38 32 29 30 35 38 39 39 36 36 35 29 18 18 21 19 16 23 27 22 24 28 28
20 17 14 15 22 21 25 27 27 27 38 38 34 33 40 44 43 44 42 37 36 38 40 35 36 40 43 44 44 39 35 37 37 33 31 31 29 27 32 30 28 24 27 30
20 19 16 11 16 22 24 26 21 20 18 31 40 36 34 36 41 47 48 45 42 42 42 44 43 43 45 48 48 47 46 43 41 42 39 36 35 33 31 30 29 29 33 36
15 19 19 15 13 19 21 19 22 21 19 17 26 35 38 37 39 42 46 48 48 50 46 46 42 34 36 44 47 50 49 48 47 44 43 42 38 39 41 39 39 38 39 40
16 19 23 19 15 15 16 12 16 16 17 17 18 18 21 24 24 22 24 28 32 37 41 41 38 39 39 36 40 45 48 48 47 47 46 45 44 44 45 46 48 49 49 49
19 18 17 17 18 17 17 16 18 20 20 17 17 17 17 17 19 20 18 20 23 27 31 35 36 37 37 41 40 44 47 50 50 50 49 47 47 48 49 49 50 52 54 54
20 16 17 19 18 18 17 15 16 17 18 20 21 20 19 19 19 16 17 17 18 21 24 26 27 32 37 40 42 44 45 47 51 54 53 51 51 49 50 51 50 51 55 57
10 13 15 17 18 17 16 16 14 14 17 19 20 19 19 19 18 17 17 16 14 16 17 22 27 27 30 35 40 43 43 43 43 45 47 47 48 50 50 51 51 52 54 56
8 10 12 13 14 13 12 12 12 14 15 16 16 16 17 18 18 19 19 19 19 18 17 17 18 22 28 31 32 34 34 35 39 41 40 44 47 45 44 44 46 47 48 52
9 8 9 8 9 11 12 12 13 14 14 13 13 14 14 13 12 12 13 12 13 12 12 13 16 19 21 24 25 28 30 33 35 36 37 39 40 42 45 46 46 45 47 50
10 10 10 10 10 10 11 12 12 12 11 11 9 6 7 10 12 13 14 14 15 14 13 17 18 19 20 20 21 23 26 28 29 31 33 36 38 39 40 40 41 42 42 43
3 5 5 5 5 5 5 4 4 4 5 6 8 10 11 13 14 15 17 18 20 22 23 23 24 25 26 28 28 30 32 33 34 36 38 39 40 41 42 44 45 46 46 47
1 1 2 3 4 4 4 4 5 7 8 10 12 13 14 14 15 18 21 23 25 28 30 31 29 31 34 36 36 36 36 39 40 40 41 42 42 41 43 45 47 48 49 50
5 4 4 6 7 7 9 12 13 14 15 16 17 19 20 21 22 25 27 29 30 30 32 35 37 39 41 41 40 40 43 42 41 37 35 37 38 40 42 44 44 45 48 50
7 6 6 7 8 11 13 15 17 19 20 23 25 25 25 26 27 31 32 33 36 39 39 39 41 42 40 38 37 36 37 37 38 38 39 38 38 40 42 43 43 43 43 45
10 11 12 13 15 18 21 22 21 21 22 24 25 25 25 28 27 24 26 31 32 32 33 34 34 34 34 34 35 35 33 32 34 36 37 39 40 41 42 43 44 46 47 47
14 14 15 18 20 22 25 28 28 24 23 26 24 23 22 23 20 24 26 28 32 28 27 29 31 30 31 33 34 34 32 32 33 34 35 36 38 40 41 42 42 43 43 43
18 21 22 22 24 27 29 28 30 26 30 28 27 23 24 22 19 24 36 37 38 28 25 29 31 32 33 33 31 30 29 29 29 30 31 32 33 35 34 33 31 31 31 33
27 27 29 30 30 35 36 33 30 31 32 25 28 26 27 27 29 35 33 34 29 24 26 31 31 30 31 32 30 27 25 26 26 27 29 29 27 25 24 26 27 28 29 29

GFSNGP_500_spd_120.txt.gz
Wind_Speed
37 38 36 32 36 36 32 27 27 24 22 20 19 19 16 15 13 11 12 12 22 26 23 26 33 32 36 34 37 29 28 24 30 28 30 30 28 28 30 27 26 25 23 24
28 42 42 37 37 34 32 31 30 28 27 24 22 19 20 17 16 11 10 15 11 18 21 28 29 40 38 36 33 31 33 32 29 27 29 29 33 31 31 28 28 27 27 28
29 27 39 45 45 38 37 33 30 30 32 30 28 25 24 22 25 18 17 19 22 15 26 23 21 24 29 26 27 33 31 34 30 24 19 22 30 35 37 35 32 30 31 28
27 29 36 37 32 41 40 40 35 34 33 34 31 29 27 29 29 23 21 18 19 24 28 23 26 33 31 32 29 31 34 30 31 28 29 38 35 31 37 41 36 33 32 32
25 28 32 35 32 38 40 47 41 41 37 34 32 33 33 30 29 28 28 28 28 29 30 31 27 28 36 32 35 32 34 40 36 39 37 45 34 31 33 31 33 40 29 40
21 24 25 25 25 28 35 40 33 37 33 35 36 34 33 35 36 36 32 27 28 26 24 34 27 26 34 38 37 40 41 42 38 32 39 35 30 33 37 38 36 36 45 44
21 23 25 23 23 23 33 28 39 35 35 29 30 35 37 35 36 36 34 33 28 27 22 16 28 31 19 24 39 41 47 42 41 27 32 32 29 31 37 39 44 48 38 45
21 22 23 23 23 24 26 32 31 27 28 27 33 36 36 36 33 31 35 35 34 32 27 19 22 19 20 23 27 27 31 30 28 28 40 36 33 40 41 45 39 36 32 34
23 23 21 20 24 25 22 24 31 32 23 35 36 34 35 37 37 37 33 34 35 30 29 29 28 25 24 28 30 35 32 30 29 33 36 29 35 44 37 37 36 32 29 30
22 25 24 22 24 27 26 23 21 27 32 31 30 38 40 39 40 37 38 32 29 29 25 20 21 29 31 29 29 32 36 33 34 31 28 39 24 26 17 16 17 18 20 20
17 19 21 19 19 22 26 22 20 18 23 25 27 33 35 37 37 36 32 31 30 33 33 33 30 28 30 35 37 36 38 40 39 31 35 34 33 35 27 27 27 21 20 24
19 19 19 21 20 19 24 24 21 22 18 25 17 18 25 33 40 39 35 35 34 33 34 39 40 43 41 43 46 42 35 32 37 37 36 36 37 36 38 39 32 29 34 30
18 19 18 20 20 17 18 21 22 21 24 23 22 21 17 22 27 32 31 29 29 30 28 30 29 32 34 35 36 33 32 31 30 35 38 37 36 38 37 39 42 40 43 40
17 22 18 19 23 17 17 20 22 24 24 25 22 18 16 14 13 16 20 22 21 19 20 22 24 28 31 34 36 36 38 39 37 35 37 40 40 37 38 38 39 43 45 47
12 16 21 20 19 17 19 20 17 17 19 22 21 19 17 16 16 17 19 19 20 19 18 21 22 22 24 27 30 34 37 37 37 37 37 36 36 38 38 39 40 42 44 45
8 11 14 17 18 18 18 17 15 16 16 18 19 17 15 15 15 15 16 17 18 19 21 21 21 23 23 26 27 28 29 31 32 33 33 34 34 34 34 37 41 43 44 45
9 13 15 15 16 17 16 15 14 15 16 15 13 14 14 15 15 16 17 19 19 20 21 22 23 23 22 22 24 27 26 26 28 30 31 31 32 34 36 37 39 41 46 50
6 9 10 12 14 14 14 14 13 13 12 11 12 12 11 12 14 16 16 15 15 17 19 20 21 21 20 19 19 21 21 22 23 23 24 25 28 30 31 33 34 36 38 41
9 9 8 9 11 11 11 12 11 10 9 9 9 9 9 9 9 9 10 10 10 11 12 13 12 14 14 15 16 19 21 22 25 27 28 29 29 30 32 35 37 38 39 41
7 8 9 10 10 9 7 6 6 6 6 7 7 8 10 10 11 12 12 13 15 18 19 19 19 20 22 23 24 26 29 31 33 33 33 34 37 39 39 40 39 39 40 41
2 4 5 5 4 4 4 5 6 7 8 9 11 12 13 13 13 15 17 18 19 22 25 25 25 24 26 29 31 33 35 37 39 40 39 40 41 43 43 42 42 42 43 44
5 4 2 2 3 3 3 4 5 7 9 11 13 15 17 19 20 21 22 24 27 28 28 27 28 31 34 34 35 36 37 38 37 36 36 36 36 37 38 40 41 42 44 46
8 7 6 4 4 5 5 6 8 10 12 14 16 18 21 24 27 25 24 23 23 22 25 28 28 30 30 31 32 32 32 32 32 33 35 36 35 34 34 37 39 41 43 44
11 12 12 10 9 10 10 11 12 14 16 17 19 19 22 23 24 24 24 23 21 20 23 28 29 28 28 27 27 27 28 30 32 34 35 35 35 35 35 35 37 39 41 43
16 16 17 17 17 17 17 19 20 23 25 25 24 25 26 25 23 22 21 23 26 26 28 28 29 28 28 27 26 28 30 31 32 30 30 30 30 31 33 34 35 36 37 37
20 21 22 21 22 24 26 27 27 28 29 28 29 29 30 26 21 24 25 26 30 33 35 32 30 27 26 27 29 28 28 29 29 29 29 29 29 29 30 31 31 31 31 31
26 26 26 26 29 29 31 33 34 29 30 26 25 27 26 24 28 30 32 31 36 33 34 32 30 27 25 28 28 27 27 28 27 28 27 27 26 26 26 27 26 25 26 25

GFSNGP_500_spd_123.txt.gz
Wind_Speed
32 29 33 30 31 30 31 31 29 27 25 26 26 21 16 16 12 12 9 8 12 38 38 37 37 38 38 37 36 38 35 32 29 30 30 30 29 27 24 23 24 25 24 23
27 35 32 37 37 32 32 30 32 28 27 27 27 25 21 16 17 13 9 11 12 16 30 32 38 41 40 39 36 38 38 32 32 34 31 32 31 30 30 28 27 28 29 28
27 29 38 40 41 42 37 31 30 29 30 28 26 25 20 18 20 14 12 11 14 16 15 21 36 25 35 38 40 41 40 40 30 42 31 28 28 33 36 31 31 30 30 30
26 29 35 34 34 36 43 38 35 32 28 26 26 27 26 23 18 15 14 14 13 14 16 16 18 26 24 34 38 41 34 37 39 37 42 41 34 35 41 31 30 29 33 37
23 29 30 26 29 29 31 33 35 39 34 32 27 25 29 28 22 20 21 19 19 18 19 18 22 29 31 18 27 34 31 36 38 36 40 42 41 40 43 40 37 31 32 35
22 23 26 26 26 24 27 31 32 37 38 33 25 27 26 28 30 28 27 25 22 20 17 18 17 20 22 23 30 42 30 39 37 39 46 47 45 45 34 38 26 34 37 36
26 25 24 21 24 21 28 29 30 31 29 35 36 32 29 33 32 29 28 28 26 24 22 17 12 12 20 24 27 32 36 39 33 40 34 36 44 35 43 36 24 40 41 43
26 27 27 23 24 25 23 23 25 28 27 30 34 35 31 30 29 29 27 21 21 20 20 20 17 15 15 19 19 26 20 29 36 27 38 36 34 39 28 30 34 36 41 39
24 27 26 22 20 22 22 22 22 24 30 25 29 26 27 26 27 27 27 26 24 20 19 20 22 24 22 22 22 20 23 25 26 26 26 34 34 35 22 34 42 39 39 44
25 25 27 27 25 21 22 26 23 19 25 30 28 23 24 26 28 28 27 26 25 24 22 20 20 21 22 27 29 28 27 28 30 30 26 24 27 30 29 27 28 34 34 32
21 22 23 23 26 25 23 25 27 25 22 26 30 29 24 23 24 28 29 30 31 30 26 24 21 22 25 21 25 31 33 35 36 34 32 32 26 24 23 24 30 23 17 21
23 25 23 21 22 23 22 19 24 27 26 24 27 26 22 23 26 29 29 29 29 28 29 29 29 29 28 32 33 33 35 37 37 39 42 36 29 28 29 29 32 30 34 40
20 22 21 21 20 23 21 18 22 28 25 24 24 25 20 20 21 23 26 28 31 34 33 33 31 31 36 38 36 36 33 32 33 33 32 30 28 30 30 31 35 39 35 36
18 20 20 19 21 21 20 18 17 21 24 24 26 23 23 19 17 16 17 20 24 26 28 26 25 25 30 35 37 35 33 33 34 33 36 36 37 36 35 34 33 36 41 42
13 17 20 22 16 17 18 16 14 17 18 18 20 20 18 16 14 12 12 14 15 16 18 19 19 20 21 23 25 27 29 30 31 32 31 32 33 33 36 36 35 35 38 41
7 12 13 15 16 18 17 14 11 11 9 8 10 10 11 12 12 13 14 15 15 15 17 17 18 19 19 20 21 22 24 26 27 27 27 26 26 27 29 30 30 31 32 34
2 8 8 11 12 16 17 11 9 8 8 8 9 10 11 12 13 14 15 15 15 15 16 17 18 19 19 19 20 20 21 21 22 24 26 26 26 27 27 28 29 30 32 35
2 1 4 6 7 9 10 10 9 8 8 10 10 9 10 10 11 11 11 12 13 14 15 17 17 17 17 17 17 18 18 18 18 19 19 20 22 23 25 27 28 29 29 31
8 3 3 5 7 7 7 8 8 8 10 10 10 10 11 11 10 10 10 10 10 8 8 10 12 13 13 14 15 16 18 20 21 23 25 26 28 29 30 31 32 33 34 35
4 5 6 6 6 7 7 7 8 9 9 7 6 6 5 5 6 8 10 11 13 11 9 11 13 16 17 18 20 21 23 25 27 28 29 31 32 33 34 35 36 36 37 38
4 4 5 5 5 5 5 5 5 4 5 6 8 9 10 11 12 13 15 16 16 18 18 19 20 20 21 23 25 28 29 31 33 35 36 36 35 33 33 34 34 35 37 37
4 4 5 5 5 4 4 4 4 5 6 7 8 10 11 13 15 17 19 20 21 22 22 22 22 22 24 26 27 27 28 30 32 33 33 32 32 32 34 35 38 39 39 39
9 8 8 8 7 6 7 6 6 6 5 5 7 8 11 14 16 18 21 20 22 23 24 23 22 22 22 23 25 26 29 31 32 31 29 28 30 32 34 36 37 38 39 38
12 12 12 12 12 12 12 10 10 10 11 12 13 15 18 20 21 20 21 22 21 20 22 23 23 24 28 31 31 28 29 30 30 29 29 30 31 32 31 31 31 32 34 36
15 16 16 17 17 17 16 16 16 18 19 21 23 23 24 24 24 25 24 23 23 21 24 26 27 30 32 32 28 29 29 29 29 29 29 30 30 28 28 29 30 31 32 32
20 21 21 22 23 22 23 23 24 24 25 27 28 29 27 23 24 25 27 26 23 28 30 31 33 33 32 26 27 28 27 29 29 29 29 29 27 27 27 28 28 29 29 28
25 24 24 26 27 28 28 29 28 29 29 32 33 32 33 27 22 22 22 22 29 35 32 34 34 36 37 29 26 25 28 28 28 28 27 25 24 25 26 25 26 26 26 24